| time (UTC) | temp F | wind direction | speed knots | gust knots | rain 1hr in | rain 24hr in | rain mn in | humidity % | barometer mb |
| 20260506002709 | 53 | 322 | 0.9 | 2.6 | 0.00 | 0.62 | 0.00 | 92 | 1009.6 |
| 20260506002651 | 53 | 325 | 0.9 | 2.6 | 0.00 | 0.62 | 0.00 | 92 | 1009.7 |
| 20260506002551 | 53 | 331 | 0.9 | 1.7 | 0.00 | 0.62 | 0.00 | 91 | 1009.7 |
| 20260506002451 | 53 | 335 | 0.9 | 1.7 | 0.00 | 0.62 | 0.00 | 91 | 1009.7 |
| 20260506002408 | 53 | 335 | 0.9 | 1.7 | 0.00 | 0.62 | 0.00 | 91 | 1009.7 |
| 20260506002349 | 53 | 335 | 0.9 | 1.7 | 0.00 | 0.62 | 0.00 | 91 | 1009.6 |
| 20260506002249 | 53 | 335 | 0.9 | 1.7 | 0.00 | 0.62 | 0.00 | 91 | 1009.6 |
| 20260506002149 | 53 | 335 | 0.0 | 0.9 | 0.00 | 0.62 | 0.00 | 91 | 1009.6 |
| 20260506002109 | 53 | 335 | 0.0 | 0.9 | 0.00 | 0.62 | 0.00 | 91 | 1009.6 |
| 20260506002051 | 53 | 335 | 0.0 | 0.9 | 0.00 | 0.62 | 0.00 | 91 | 1009.6 |
| 20260506001951 | 53 | 335 | 0.0 | 0.9 | 0.00 | 0.62 | 0.00 | 91 | 1009.7 |
| 20260506001850 | 53 | 335 | 0.0 | 0.9 | 0.00 | 0.62 | 0.00 | 91 | 1009.7 |
| 20260506001808 | 53 | 336 | 0.9 | 1.7 | 0.00 | 0.62 | 0.00 | 91 | 1009.6 |
| 20260506001750 | 53 | 336 | 0.9 | 1.7 | 0.00 | 0.62 | 0.00 | 91 | 1009.6 |
| 20260506001650 | 53 | 336 | 0.9 | 1.7 | 0.00 | 0.62 | 0.00 | 92 | 1009.7 |
| 20260506001550 | 53 | 335 | 0.9 | 1.7 | 0.00 | 0.62 | 0.00 | 91 | 1009.8 |
| 20260506001507 | 53 | 335 | 0.9 | 1.7 | 0.00 | 0.62 | 0.00 | 91 | 1009.8 |
| 20260506001451 | 53 | 335 | 0.9 | 1.7 | 0.00 | 0.62 | 0.00 | 91 | 1009.8 |
| 20260506001350 | 53 | 335 | 0.9 | 1.7 | 0.00 | 0.62 | 0.00 | 92 | 1009.8 |
| 20260506001250 | 53 | 335 | 0.9 | 1.7 | 0.00 | 0.62 | 0.00 | 91 | 1009.7 |
| 20260506001208 | 53 | 335 | 0.9 | 1.7 | 0.00 | 0.62 | 0.00 | 91 | 1009.7 |
| 20260506001150 | 53 | 335 | 0.9 | 1.7 | 0.00 | 0.62 | 0.00 | 91 | 1009.8 |
| 20260506001050 | 53 | 335 | 0.9 | 1.7 | 0.00 | 0.62 | 0.00 | 91 | 1009.7 |
| 20260506000950 | 53 | 335 | 0.9 | 1.7 | 0.00 | 0.62 | 0.00 | 91 | 1009.7 |
| 20260506000908 | 53 | 335 | 0.9 | 1.7 | 0.00 | 0.62 | 0.00 | 91 | 1009.7 |
| 20260506000849 | 53 | 335 | 0.9 | 1.7 | 0.00 | 0.62 | 0.00 | 91 | 1009.5 |
| 20260506000749 | 53 | 335 | 0.9 | 1.7 | 0.00 | 0.62 | 0.00 | 91 | 1009.8 |
| 20260506000649 | 53 | 335 | 0.9 | 1.7 | 0.00 | 0.62 | 0.00 | 91 | 1009.8 |
| 20260506000609 | 53 | 335 | 0.9 | 1.7 | 0.00 | 0.62 | 0.00 | 91 | 1009.8 |
| 20260506000551 | 53 | 335 | 0.0 | 1.7 | 0.00 | 0.62 | 0.00 | 91 | 1009.8 |
| 20260506000451 | 54 | 335 | 0.0 | 0.9 | 0.00 | 0.62 | 0.00 | 91 | 1009.7 |
| 20260506000350 | 53 | 335 | 0.0 | 0.9 | 0.00 | 0.62 | 0.00 | 91 | 1009.7 |
| 20260506000309 | 53 | 335 | 0.0 | 0.9 | 0.00 | 0.62 | 0.00 | 91 | 1009.7 |
| 20260506000250 | 53 | 336 | 0.0 | 0.9 | 0.00 | 0.62 | 0.00 | 91 | 1009.7 |
| 20260506000150 | 54 | 336 | 0.0 | 0.9 | 0.00 | 0.62 | 0.00 | 91 | 1009.7 |
| 20260506000050 | 54 | 335 | 0.0 | 0.9 | 0.00 | 0.62 | 0.00 | 91 | 1009.8 |
| 20260506000008 | 54 | 335 | 0.0 | 0.9 | 0.00 | 0.62 | 0.00 | 91 | 1009.8 |
| 20260505235950 | 54 | 335 | 0.0 | 0.0 | 0.00 | 0.62 | 0.00 | 91 | 1009.8 |
| 20260505235849 | 54 | 335 | 0.0 | 0.0 | 0.00 | 0.62 | 0.00 | 91 | 1009.9 |
| 20260505235749 | 54 | 335 | 0.0 | 0.0 | 0.00 | 0.62 | 0.00 | 91 | 1009.8 |
| 20260505235709 | 54 | 335 | 0.0 | 0.0 | 0.00 | 0.62 | 0.00 | 91 | 1009.8 |
| 20260505235651 | 54 | 335 | 0.0 | 0.0 | 0.00 | 0.62 | 0.00 | 91 | 1009.9 |
| 20260505235551 | 54 | 336 | 0.0 | 0.0 | 0.00 | 0.62 | 0.00 | 91 | 1009.8 |
| 20260505235451 | 54 | 335 | 0.0 | 0.0 | 0.00 | 0.62 | 0.00 | 91 | 1009.7 |
| 20260505235408 | 54 | 335 | 0.0 | 0.0 | 0.00 | 0.62 | 0.00 | 91 | 1009.7 |
| 20260505235350 | 54 | 335 | 0.0 | 0.0 | 0.00 | 0.62 | 0.00 | 91 | 1009.8 |
| 20260505235250 | 54 | 335 | 0.0 | 0.9 | 0.00 | 0.62 | 0.00 | 91 | 1009.9 |
| 20260505235149 | 54 | 336 | 0.0 | 0.9 | 0.00 | 0.62 | 0.00 | 91 | 1009.9 |
| 20260505235107 | 54 | 336 | 0.0 | 0.9 | 0.00 | 0.62 | 0.00 | 91 | 1009.9 |
| 20260505235049 | 54 | 338 | 0.0 | 0.9 | 0.00 | 0.62 | 0.00 | 91 | 1009.9 |
| 20260505234951 | 54 | 340 | 0.0 | 0.9 | 0.00 | 0.62 | 0.00 | 91 | 1010.0 |
| 20260505234849 | 54 | 341 | 0.0 | 0.9 | 0.00 | 0.62 | 0.00 | 91 | 1010.0 |
| 20260505234807 | 54 | 341 | 0.0 | 0.9 | 0.00 | 0.62 | 0.00 | 91 | 1010.0 |
| 20260505234749 | 54 | 342 | 0.0 | 0.9 | 0.00 | 0.62 | 0.00 | 91 | 1010.0 |
| 20260505234651 | 54 | 340 | 0.0 | 0.9 | 0.00 | 0.62 | 0.00 | 91 | 1010.0 |
| 20260505234551 | 54 | 338 | 0.0 | 0.9 | 0.00 | 0.62 | 0.00 | 91 | 1010.0 |
| 20260505234508 | 54 | 338 | 0.0 | 0.9 | 0.00 | 0.62 | 0.00 | 91 | 1010.0 |
| 20260505234450 | 54 | 336 | 0.0 | 0.9 | 0.00 | 0.62 | 0.00 | 91 | 1010.1 |
| 20260505234350 | 54 | 334 | 0.0 | 0.9 | 0.00 | 0.62 | 0.00 | 91 | 1010.1 |
| 20260505234250 | 54 | 332 | 0.0 | 0.9 | 0.00 | 0.62 | 0.00 | 91 | 1010.1 |
| 20260505234207 | 54 | 332 | 0.0 | 0.9 | 0.00 | 0.62 | 0.00 | 91 | 1010.1 |
| 20260505234149 | 54 | 331 | 0.0 | 0.9 | 0.00 | 0.62 | 0.00 | 91 | 1010.1 |
| 20260505234049 | 54 | 329 | 0.0 | 0.9 | 0.00 | 0.62 | 0.00 | 91 | 1010.0 |
| 20260505233949 | 54 | 323 | 0.0 | 0.9 | 0.00 | 0.62 | 0.00 | 91 | 1010.0 |
| 20260505233909 | 54 | 323 | 0.0 | 0.9 | 0.00 | 0.62 | 0.00 | 91 | 1010.0 |
| 20260505233850 | 54 | 317 | 0.0 | 0.9 | 0.00 | 0.62 | 0.00 | 91 | 1010.1 |
| 20260505233750 | 54 | 309 | 0.0 | 0.9 | 0.00 | 0.62 | 0.00 | 91 | 1010.1 |
| 20260505233650 | 54 | 309 | 0.0 | 0.9 | 0.00 | 0.62 | 0.00 | 91 | 1010.2 |
| 20260505233608 | 54 | 309 | 0.0 | 0.9 | 0.00 | 0.62 | 0.00 | 91 | 1010.2 |
| 20260505233550 | 54 | 309 | 0.0 | 0.9 | 0.00 | 0.62 | 0.00 | 91 | 1010.1 |
| 20260505233450 | 54 | 309 | 0.0 | 0.9 | 0.00 | 0.62 | 0.00 | 91 | 1010.2 |
| 20260505233349 | 54 | 309 | 0.0 | 0.9 | 0.00 | 0.62 | 0.00 | 91 | 1010.3 |
| 20260505233309 | 54 | 309 | 0.0 | 0.9 | 0.00 | 0.62 | 0.00 | 91 | 1010.3 |
| 20260505233251 | 53 | 309 | 0.0 | 0.0 | 0.00 | 0.62 | 0.00 | 91 | 1010.3 |
| 20260505233151 | 53 | 309 | 0.0 | 0.0 | 0.00 | 0.62 | 0.00 | 91 | 1010.3 |
| 20260505233051 | 53 | 310 | 0.0 | 0.9 | 0.00 | 0.62 | 0.00 | 91 | 1010.2 |
| 20260505233009 | 53 | 310 | 0.0 | 0.9 | 0.00 | 0.62 | 0.00 | 91 | 1010.2 |
| 20260505232951 | 53 | 309 | 0.0 | 0.9 | 0.00 | 0.62 | 0.00 | 91 | 1010.3 |
| 20260505232849 | 54 | 310 | 0.0 | 0.9 | 0.00 | 0.62 | 0.00 | 91 | 1010.3 |
| 20260505232749 | 54 | 310 | 0.0 | 0.9 | 0.00 | 0.62 | 0.00 | 91 | 1010.3 |
| 20260505232709 | 54 | 310 | 0.0 | 0.9 | 0.00 | 0.62 | 0.00 | 91 | 1010.3 |
| 20260505232651 | 54 | 309 | 0.0 | 1.7 | 0.00 | 0.62 | 0.00 | 91 | 1010.2 |
| 20260505232551 | 54 | 306 | 0.0 | 1.7 | 0.00 | 0.62 | 0.00 | 91 | 1010.2 |
| 20260505232451 | 54 | 304 | 0.0 | 1.7 | 0.00 | 0.62 | 0.00 | 91 | 1010.2 |
| 20260505232408 | 54 | 303 | 0.0 | 1.7 | 0.00 | 0.62 | 0.00 | 91 | 1010.1 |
| 20260505232349 | 54 | 303 | 0.0 | 1.7 | 0.00 | 0.62 | 0.00 | 91 | 1010.1 |
| 20260505232250 | 54 | 303 | 0.0 | 1.7 | 0.00 | 0.62 | 0.00 | 91 | 1010.2 |
| 20260505232150 | 54 | 301 | 0.0 | 1.7 | 0.00 | 0.62 | 0.00 | 91 | 1010.3 |
| 20260505232108 | 54 | 301 | 0.0 | 1.7 | 0.00 | 0.62 | 0.00 | 91 | 1010.3 |
| 20260505232050 | 54 | 299 | 0.0 | 1.7 | 0.00 | 0.62 | 0.00 | 91 | 1010.2 |
| 20260505231950 | 54 | 299 | 0.0 | 1.7 | 0.00 | 0.62 | 0.00 | 91 | 1010.2 |
| 20260505231851 | 54 | 299 | 0.0 | 1.7 | 0.00 | 0.62 | 0.00 | 91 | 1010.2 |
| 20260505231808 | 54 | 299 | 0.0 | 1.7 | 0.00 | 0.62 | 0.00 | 91 | 1010.2 |
| 20260505231750 | 54 | 297 | 0.0 | 1.7 | 0.00 | 0.62 | 0.00 | 91 | 1010.3 |
| 20260505231650 | 54 | 294 | 0.0 | 0.9 | 0.00 | 0.62 | 0.00 | 91 | 1010.3 |
| 20260505231550 | 54 | 298 | 0.0 | 0.9 | 0.00 | 0.62 | 0.00 | 91 | 1010.4 |
| 20260505231508 | 54 | 298 | 0.0 | 0.9 | 0.00 | 0.62 | 0.00 | 91 | 1010.4 |
| 20260505231450 | 54 | 304 | 0.0 | 0.9 | 0.00 | 0.62 | 0.00 | 91 | 1010.4 |
| 20260505231350 | 54 | 310 | 0.0 | 0.9 | 0.00 | 0.62 | 0.00 | 91 | 1010.4 |
| 20260505231250 | 54 | 322 | 0.0 | 0.9 | 0.00 | 0.62 | 0.00 | 91 | 1010.4 |
| 20260505231208 | 54 | 322 | 0.0 | 0.9 | 0.00 | 0.62 | 0.00 | 91 | 1010.4 |
| 20260505231150 | 54 | 334 | 0.0 | 1.7 | 0.00 | 0.62 | 0.00 | 91 | 1010.4 |
| 20260505231050 | 54 | 345 | 0.0 | 1.7 | 0.00 | 0.62 | 0.00 | 91 | 1010.5 |
| 20260505230950 | 54 | 347 | 0.0 | 1.7 | 0.00 | 0.62 | 0.00 | 91 | 1010.6 |
| 20260505230907 | 54 | 347 | 0.0 | 1.7 | 0.00 | 0.62 | 0.00 | 91 | 1010.6 |
| 20260505230851 | 54 | 348 | 0.9 | 2.6 | 0.00 | 0.62 | 0.00 | 91 | 1010.6 |
| 20260505230751 | 54 | 347 | 0.9 | 2.6 | 0.00 | 0.62 | 0.00 | 91 | 1010.5 |
| 20260505230651 | 53 | 344 | 0.9 | 2.6 | 0.00 | 0.62 | 0.00 | 91 | 1010.5 |
| 20260505230608 | 53 | 344 | 0.9 | 2.6 | 0.00 | 0.62 | 0.00 | 91 | 1010.5 |
| 20260505230550 | 53 | 343 | 0.9 | 2.6 | 0.00 | 0.62 | 0.00 | 91 | 1010.4 |
| 20260505230450 | 53 | 342 | 1.7 | 2.6 | 0.00 | 0.62 | 0.00 | 91 | 1010.4 |
| 20260505230350 | 53 | 342 | 1.7 | 2.6 | 0.00 | 0.62 | 0.00 | 91 | 1010.4 |
| 20260505230308 | 53 | 342 | 1.7 | 2.6 | 0.00 | 0.62 | 0.00 | 91 | 1010.4 |
| 20260505230249 | 53 | 340 | 1.7 | 2.6 | 0.00 | 0.62 | 0.00 | 91 | 1010.4 |
| 20260505230149 | 53 | 340 | 1.7 | 2.6 | 0.00 | 0.62 | 0.00 | 91 | 1010.4 |
| 20260505230049 | 53 | 338 | 1.7 | 2.6 | 0.00 | 0.62 | 0.00 | 91 | 1010.4 |
| 20260505230007 | 53 | 338 | 1.7 | 2.6 | 0.00 | 0.62 | 0.00 | 91 | 1010.4 |
| 20260505225951 | 53 | 336 | 1.7 | 2.6 | 0.00 | 0.62 | 0.00 | 91 | 1010.4 |
| 20260505225850 | 54 | 332 | 1.7 | 2.6 | 0.00 | 0.62 | 0.00 | 91 | 1010.4 |
| 20260505225750 | 54 | 331 | 1.7 | 2.6 | 0.00 | 0.62 | 0.00 | 91 | 1010.4 |
| 20260505225708 | 54 | 331 | 1.7 | 2.6 | 0.00 | 0.62 | 0.00 | 91 | 1010.4 |
| 20260505225650 | 54 | 330 | 0.9 | 2.6 | 0.00 | 0.62 | 0.00 | 91 | 1010.5 |
| 20260505225550 | 54 | 327 | 0.9 | 2.6 | 0.00 | 0.62 | 0.00 | 91 | 1010.5 |
| 20260505225450 | 54 | 325 | 0.9 | 2.6 | 0.00 | 0.62 | 0.00 | 91 | 1010.6 |
| 20260505225407 | 54 | 325 | 0.9 | 2.6 | 0.00 | 0.62 | 0.00 | 91 | 1010.6 |
| 20260505225349 | 54 | 323 | 0.9 | 1.7 | 0.00 | 0.62 | 0.00 | 91 | 1010.6 |
| 20260505225249 | 54 | 320 | 0.9 | 1.7 | 0.00 | 0.62 | 0.00 | 91 | 1010.7 |
| 20260505225151 | 54 | 319 | 0.9 | 1.7 | 0.00 | 0.62 | 0.00 | 91 | 1010.7 |
| 20260505225109 | 54 | 319 | 0.9 | 1.7 | 0.00 | 0.62 | 0.00 | 91 | 1010.7 |
| 20260505225051 | 54 | 319 | 0.9 | 0.9 | 0.00 | 0.62 | 0.00 | 91 | 1010.7 |
| 20260505224951 | 54 | 319 | 0.9 | 0.9 | 0.00 | 0.62 | 0.00 | 91 | 1010.7 |
| 20260505224851 | 54 | 319 | 0.9 | 0.9 | 0.00 | 0.62 | 0.00 | 91 | 1010.7 |
| 20260505224807 | 54 | 319 | 0.9 | 0.9 | 0.00 | 0.62 | 0.00 | 91 | 1010.7 |
| 20260505224749 | 54 | 319 | 0.9 | 0.9 | 0.00 | 0.62 | 0.00 | 91 | 1010.6 |
| 20260505224649 | 54 | 319 | 0.9 | 0.9 | 0.00 | 0.62 | 0.00 | 91 | 1010.7 |
| 20260505224549 | 54 | 319 | 0.9 | 0.9 | 0.00 | 0.62 | 0.00 | 91 | 1010.7 |
| 20260505224509 | 54 | 319 | 0.9 | 0.9 | 0.00 | 0.62 | 0.00 | 91 | 1010.7 |
| 20260505224451 | 54 | 319 | 0.9 | 0.9 | 0.00 | 0.62 | 0.00 | 91 | 1010.6 |
| 20260505224350 | 54 | 319 | 0.9 | 0.9 | 0.00 | 0.62 | 0.00 | 91 | 1010.6 |
| 20260505224250 | 54 | 320 | 0.0 | 0.9 | 0.00 | 0.62 | 0.00 | 91 | 1010.6 |
| 20260505224207 | 54 | 320 | 0.0 | 0.9 | 0.00 | 0.62 | 0.00 | 91 | 1010.6 |
| 20260505224149 | 54 | 321 | 0.0 | 0.9 | 0.00 | 0.62 | 0.00 | 91 | 1010.5 |
| 20260505224049 | 54 | 321 | 0.0 | 0.9 | 0.00 | 0.62 | 0.00 | 91 | 1010.6 |
| 20260505223949 | 54 | 322 | 0.0 | 0.9 | 0.00 | 0.62 | 0.00 | 91 | 1010.6 |
| 20260505223909 | 54 | 322 | 0.0 | 0.9 | 0.00 | 0.62 | 0.00 | 91 | 1010.5 |
| 20260505223850 | 54 | 322 | 0.0 | 0.9 | 0.00 | 0.62 | 0.00 | 91 | 1010.5 |
| 20260505223750 | 54 | 323 | 0.0 | 0.9 | 0.00 | 0.62 | 0.00 | 91 | 1010.6 |
| 20260505223650 | 54 | 323 | 0.0 | 0.9 | 0.00 | 0.62 | 0.00 | 91 | 1010.6 |
| 20260505223608 | 54 | 323 | 0.0 | 0.9 | 0.00 | 0.62 | 0.00 | 91 | 1010.6 |
| 20260505223550 | 54 | 323 | 0.0 | 0.9 | 0.00 | 0.62 | 0.00 | 91 | 1010.7 |
| 20260505223452 | 54 | 323 | 0.0 | 0.9 | 0.00 | 0.62 | 0.00 | 91 | 1010.6 |
| 20260505223350 | 54 | 323 | 0.0 | 0.9 | 0.00 | 0.62 | 0.00 | 91 | 1010.7 |
| 20260505223307 | 54 | 323 | 0.0 | 0.9 | 0.00 | 0.62 | 0.00 | 91 | 1010.7 |
| 20260505223249 | 54 | 323 | 0.0 | 0.9 | 0.00 | 0.62 | 0.00 | 91 | 1010.7 |
| 20260505223149 | 54 | 323 | 0.0 | 0.9 | 0.00 | 0.62 | 0.00 | 91 | 1010.7 |
| 20260505223049 | 54 | 323 | 0.0 | 0.9 | 0.00 | 0.62 | 0.00 | 91 | 1010.7 |
| 20260505223007 | 54 | 323 | 0.0 | 0.9 | 0.00 | 0.62 | 0.00 | 91 | 1010.7 |
| 20260505222951 | 54 | 323 | 0.0 | 0.9 | 0.00 | 0.62 | 0.00 | 91 | 1010.7 |
| 20260505222850 | 54 | 323 | 0.0 | 0.9 | 0.00 | 0.62 | 0.00 | 91 | 1010.7 |
| 20260505222750 | 54 | 323 | 0.0 | 0.0 | 0.00 | 0.62 | 0.00 | 91 | 1010.8 |
| 20260505222708 | 54 | 323 | 0.0 | 0.0 | 0.00 | 0.62 | 0.00 | 91 | 1010.8 |
| 20260505222650 | 54 | 323 | 0.0 | 0.0 | 0.00 | 0.62 | 0.00 | 91 | 1010.8 |
| 20260505222550 | 54 | 323 | 0.0 | 0.0 | 0.00 | 0.62 | 0.00 | 91 | 1010.7 |
| 20260505222450 | 53 | 323 | 0.0 | 0.0 | 0.00 | 0.62 | 0.00 | 91 | 1010.6 |
| 20260505222408 | 53 | 323 | 0.0 | 0.0 | 0.00 | 0.62 | 0.00 | 91 | 1010.6 |
| 20260505222349 | 53 | 323 | 0.0 | 0.0 | 0.00 | 0.62 | 0.00 | 91 | 1010.5 |
| 20260505222249 | 53 | 323 | 0.0 | 0.0 | 0.00 | 0.62 | 0.00 | 91 | 1010.6 |
| 20260505222149 | 53 | 323 | 0.0 | 0.0 | 0.00 | 0.62 | 0.00 | 91 | 1010.4 |
| 20260505222107 | 53 | 323 | 0.0 | 0.0 | 0.00 | 0.62 | 0.00 | 91 | 1010.4 |
| 20260505222049 | 53 | 323 | 0.0 | 0.0 | 0.00 | 0.62 | 0.00 | 91 | 1010.5 |
| 20260505221949 | 53 | 323 | 0.0 | 0.9 | 0.00 | 0.62 | 0.00 | 91 | 1010.5 |
| 20260505221850 | 53 | 323 | 0.0 | 0.9 | 0.00 | 0.62 | 0.00 | 91 | 1010.5 |
| 20260505221807 | 53 | 323 | 0.0 | 0.9 | 0.00 | 0.62 | 0.00 | 91 | 1010.5 |
| 20260505221749 | 53 | 323 | 0.0 | 0.9 | 0.00 | 0.62 | 0.00 | 91 | 1010.5 |
| 20260505221651 | 53 | 324 | 0.0 | 0.9 | 0.00 | 0.62 | 0.00 | 91 | 1010.5 |
| 20260505221551 | 53 | 324 | 0.0 | 0.9 | 0.00 | 0.62 | 0.00 | 91 | 1010.5 |
| 20260505221508 | 53 | 324 | 0.0 | 0.9 | 0.00 | 0.62 | 0.00 | 91 | 1010.5 |
| 20260505221451 | 53 | 324 | 0.0 | 0.9 | 0.00 | 0.62 | 0.00 | 91 | 1010.4 |
| 20260505221349 | 54 | 324 | 0.0 | 0.9 | 0.00 | 0.62 | 0.00 | 91 | 1010.4 |
| 20260505221251 | 54 | 324 | 0.0 | 0.9 | 0.00 | 0.62 | 0.00 | 91 | 1010.5 |
| 20260505221208 | 54 | 324 | 0.0 | 0.9 | 0.00 | 0.62 | 0.00 | 91 | 1010.5 |
| 20260505221150 | 54 | 323 | 0.0 | 0.9 | 0.00 | 0.62 | 0.00 | 91 | 1010.6 |
| 20260505221050 | 54 | 320 | 0.0 | 0.9 | 0.00 | 0.62 | 0.00 | 91 | 1010.6 |
| 20260505220950 | 54 | 316 | 0.9 | 0.9 | 0.00 | 0.62 | 0.00 | 91 | 1010.6 |
| 20260505220908 | 54 | 316 | 0.9 | 0.9 | 0.00 | 0.62 | 0.00 | 91 | 1010.6 |
| 20260505220849 | 54 | 312 | 0.0 | 0.9 | 0.00 | 0.62 | 0.00 | 91 | 1010.7 |
| 20260505220749 | 54 | 311 | 0.0 | 0.9 | 0.00 | 0.62 | 0.00 | 91 | 1010.6 |
| 20260505220649 | 54 | 309 | 0.0 | 0.9 | 0.00 | 0.62 | 0.00 | 91 | 1010.7 |
| 20260505220609 | 54 | 309 | 0.0 | 0.9 | 0.00 | 0.62 | 0.00 | 91 | 1010.7 |
| 20260505220551 | 54 | 306 | 0.0 | 0.9 | 0.00 | 0.62 | 0.00 | 91 | 1010.7 |
| 20260505220451 | 54 | 304 | 0.0 | 0.9 | 0.00 | 0.62 | 0.00 | 91 | 1010.7 |
| 20260505220351 | 54 | 301 | 0.0 | 0.9 | 0.00 | 0.62 | 0.00 | 91 | 1010.7 |
| 20260505220308 | 54 | 301 | 0.0 | 0.9 | 0.00 | 0.62 | 0.00 | 91 | 1010.7 |
| 20260505220250 | 54 | 294 | 0.0 | 0.9 | 0.00 | 0.62 | 0.00 | 91 | 1010.7 |
| 20260505220150 | 54 | 289 | 0.0 | 0.9 | 0.00 | 0.62 | 0.00 | 91 | 1010.7 |
| 20260505220050 | 54 | 287 | 0.0 | 0.9 | 0.00 | 0.62 | 0.00 | 91 | 1010.7 |
| 20260505220008 | 54 | 287 | 0.0 | 0.9 | 0.00 | 0.62 | 0.00 | 91 | 1010.7 |
| 20260505215950 | 54 | 285 | 0.0 | 0.9 | 0.00 | 0.62 | 0.62 | 91 | 1010.8 |
| 20260505215849 | 54 | 285 | 0.0 | 0.9 | 0.00 | 0.62 | 0.62 | 91 | 1010.8 |
| 20260505215750 | 54 | 285 | 0.0 | 0.9 | 0.00 | 0.62 | 0.62 | 91 | 1010.8 |
| 20260505215707 | 54 | 285 | 0.0 | 0.9 | 0.00 | 0.62 | 0.62 | 91 | 1010.8 |
| 20260505215649 | 54 | 285 | 0.0 | 0.9 | 0.00 | 0.62 | 0.62 | 91 | 1010.8 |
| 20260505215549 | 54 | 285 | 0.0 | 0.9 | 0.00 | 0.62 | 0.62 | 91 | 1010.9 |
| 20260505215449 | 54 | 285 | 0.0 | 0.9 | 0.00 | 0.62 | 0.62 | 91 | 1010.9 |
| 20260505215409 | 54 | 285 | 0.0 | 0.9 | 0.00 | 0.62 | 0.62 | 91 | 1010.9 |
| 20260505215351 | 54 | 285 | 0.0 | 0.9 | 0.00 | 0.62 | 0.62 | 91 | 1010.9 |
| 20260505215251 | 54 | 286 | 0.0 | 0.0 | 0.00 | 0.62 | 0.62 | 91 | 1010.9 |
| 20260505215150 | 54 | 285 | 0.0 | 0.0 | 0.00 | 0.62 | 0.62 | 91 | 1010.9 |
| 20260505215108 | 54 | 285 | 0.0 | 0.0 | 0.00 | 0.62 | 0.62 | 91 | 1011.0 |
| 20260505215050 | 54 | 285 | 0.0 | 0.0 | 0.00 | 0.62 | 0.62 | 91 | 1011.0 |
| 20260505214950 | 54 | 286 | 0.0 | 0.0 | 0.00 | 0.62 | 0.62 | 91 | 1010.9 |
| 20260505214851 | 54 | 285 | 0.0 | 0.0 | 0.00 | 0.62 | 0.62 | 91 | 1011.0 |
| 20260505214808 | 54 | 285 | 0.0 | 0.0 | 0.00 | 0.62 | 0.62 | 91 | 1011.0 |
| 20260505214750 | 54 | 285 | 0.0 | 0.0 | 0.00 | 0.62 | 0.62 | 91 | 1010.9 |
| 20260505214649 | 54 | 298 | 0.0 | 0.9 | 0.00 | 0.62 | 0.62 | 91 | 1010.9 |
| 20260505214549 | 54 | 302 | 0.0 | 0.9 | 0.00 | 0.62 | 0.62 | 91 | 1011.0 |
| 20260505214509 | 54 | 302 | 0.0 | 0.9 | 0.00 | 0.62 | 0.62 | 91 | 1011.0 |
| 20260505214451 | 54 | 305 | 0.0 | 0.9 | 0.00 | 0.62 | 0.62 | 91 | 1010.9 |
| 20260505214349 | 54 | 310 | 0.0 | 0.9 | 0.00 | 0.62 | 0.62 | 91 | 1010.9 |
| 20260505214249 | 54 | 312 | 0.0 | 0.9 | 0.00 | 0.62 | 0.62 | 91 | 1010.9 |
| 20260505214209 | 54 | 312 | 0.0 | 0.9 | 0.00 | 0.62 | 0.62 | 91 | 1010.9 |
| 20260505214151 | 54 | 314 | 0.0 | 0.9 | 0.00 | 0.62 | 0.62 | 91 | 1010.9 |
| 20260505214050 | 54 | 320 | 0.0 | 0.9 | 0.00 | 0.62 | 0.62 | 91 | 1011.0 |
| 20260505213950 | 54 | 325 | 0.0 | 0.9 | 0.00 | 0.62 | 0.62 | 91 | 1011.0 |
| 20260505213908 | 54 | 325 | 0.0 | 0.9 | 0.00 | 0.62 | 0.62 | 91 | 1011.0 |
| 20260505213849 | 54 | 332 | 0.0 | 0.9 | 0.00 | 0.62 | 0.62 | 91 | 1011.0 |
| 20260505213749 | 54 | 337 | 0.0 | 0.9 | 0.00 | 0.62 | 0.62 | 91 | 1011.0 |
| 20260505213649 | 54 | 340 | 0.0 | 0.9 | 0.00 | 0.62 | 0.62 | 91 | 1011.0 |
| 20260505213607 | 54 | 340 | 0.0 | 0.9 | 0.00 | 0.62 | 0.62 | 91 | 1011.0 |
| 20260505213549 | 54 | 340 | 0.0 | 1.7 | 0.00 | 0.62 | 0.62 | 91 | 1011.0 |
| 20260505213449 | 53 | 341 | 0.0 | 1.7 | 0.00 | 0.62 | 0.62 | 91 | 1011.0 |
| 20260505213350 | 54 | 339 | 0.9 | 1.7 | 0.00 | 0.62 | 0.62 | 91 | 1010.9 |
| 20260505213307 | 54 | 339 | 0.9 | 1.7 | 0.00 | 0.62 | 0.62 | 91 | 1010.9 |
| 20260505213249 | 54 | 337 | 0.9 | 1.7 | 0.00 | 0.62 | 0.62 | 91 | 1010.9 |
| 20260505213149 | 54 | 336 | 0.9 | 1.7 | 0.00 | 0.62 | 0.62 | 91 | 1011.0 |
| 20260505213049 | 53 | 334 | 0.9 | 1.7 | 0.00 | 0.62 | 0.62 | 91 | 1011.1 |
| 20260505213009 | 53 | 334 | 0.9 | 1.7 | 0.00 | 0.62 | 0.62 | 91 | 1011.1 |
| 20260505212951 | 53 | 332 | 0.9 | 1.7 | 0.00 | 0.62 | 0.62 | 91 | 1011.1 |
| 20260505212849 | 53 | 331 | 0.9 | 1.7 | 0.00 | 0.62 | 0.62 | 91 | 1011.0 |
| 20260505212749 | 54 | 330 | 0.9 | 1.7 | 0.00 | 0.62 | 0.62 | 91 | 1011.1 |
| 20260505212709 | 54 | 330 | 0.9 | 1.7 | 0.00 | 0.62 | 0.62 | 91 | 1011.1 |
| 20260505212651 | 54 | 328 | 0.9 | 1.7 | 0.00 | 0.62 | 0.62 | 91 | 1011.1 |
| 20260505212551 | 54 | 324 | 0.9 | 1.7 | 0.00 | 0.62 | 0.62 | 91 | 1011.1 |
| 20260505212451 | 54 | 321 | 0.9 | 1.7 | 0.00 | 0.62 | 0.62 | 91 | 1011.0 |
| 20260505212407 | 54 | 321 | 0.9 | 1.7 | 0.00 | 0.62 | 0.62 | 91 | 1011.0 |
| 20260505212349 | 54 | 319 | 0.0 | 0.9 | 0.00 | 0.62 | 0.62 | 91 | 1011.1 |
| 20260505212249 | 54 | 319 | 0.0 | 0.9 | 0.00 | 0.62 | 0.62 | 91 | 1011.2 |
| 20260505212149 | 53 | 319 | 0.0 | 0.9 | 0.00 | 0.62 | 0.62 | 91 | 1011.1 |
| 20260505212109 | 53 | 319 | 0.0 | 0.9 | 0.00 | 0.62 | 0.62 | 91 | 1011.1 |
| 20260505212051 | 54 | 319 | 0.0 | 0.9 | 0.00 | 0.62 | 0.62 | 91 | 1011.1 |
| 20260505211951 | 54 | 319 | 0.0 | 0.9 | 0.00 | 0.62 | 0.62 | 91 | 1011.1 |
| 20260505211851 | 53 | 319 | 0.0 | 0.9 | 0.00 | 0.62 | 0.62 | 91 | 1011.1 |
| 20260505211809 | 53 | 319 | 0.0 | 0.9 | 0.00 | 0.62 | 0.62 | 91 | 1011.1 |
| 20260505211751 | 53 | 319 | 0.0 | 0.9 | 0.00 | 0.62 | 0.62 | 91 | 1011.1 |
| 20260505211650 | 54 | 319 | 0.0 | 0.9 | 0.00 | 0.62 | 0.62 | 91 | 1011.2 |
| 20260505211550 | 54 | 319 | 0.0 | 1.7 | 0.00 | 0.62 | 0.62 | 91 | 1011.2 |
| 20260505211507 | 54 | 319 | 0.0 | 1.7 | 0.00 | 0.62 | 0.62 | 91 | 1011.2 |
| 20260505211451 | 54 | 321 | 0.9 | 1.7 | 0.00 | 0.62 | 0.62 | 91 | 1011.2 |
| 20260505211350 | 54 | 323 | 0.9 | 1.7 | 0.01 | 0.62 | 0.62 | 91 | 1011.2 |
| 20260505211250 | 54 | 324 | 0.9 | 1.7 | 0.01 | 0.62 | 0.62 | 91 | 1011.2 |
| 20260505211207 | 54 | 324 | 0.9 | 1.7 | 0.01 | 0.62 | 0.62 | 91 | 1011.2 |
| 20260505211149 | 54 | 324 | 0.9 | 1.7 | 0.01 | 0.62 | 0.62 | 91 | 1011.2 |
| 20260505211049 | 53 | 325 | 0.0 | 1.7 | 0.01 | 0.62 | 0.62 | 91 | 1011.3 |
| 20260505210949 | 53 | 326 | 0.0 | 1.7 | 0.01 | 0.62 | 0.62 | 91 | 1011.4 |
| 20260505210909 | 53 | 326 | 0.0 | 1.7 | 0.01 | 0.62 | 0.62 | 91 | 1011.4 |
| 20260505210850 | 53 | 327 | 0.0 | 1.7 | 0.01 | 0.62 | 0.62 | 91 | 1011.4 |
| 20260505210750 | 53 | 328 | 0.0 | 1.7 | 0.01 | 0.62 | 0.62 | 91 | 1011.3 |
| 20260505210650 | 53 | 330 | 0.0 | 1.7 | 0.01 | 0.62 | 0.62 | 91 | 1011.2 |
| 20260505210608 | 53 | 330 | 0.0 | 1.7 | 0.01 | 0.62 | 0.62 | 91 | 1011.2 |
| 20260505210550 | 53 | 333 | 0.0 | 0.9 | 0.01 | 0.62 | 0.62 | 91 | 1011.2 |
| 20260505210450 | 54 | 333 | 0.0 | 0.9 | 0.01 | 0.62 | 0.62 | 91 | 1011.2 |
| 20260505210349 | 54 | 333 | 0.0 | 0.9 | 0.01 | 0.62 | 0.62 | 91 | 1011.2 |
| 20260505210309 | 54 | 333 | 0.0 | 0.9 | 0.01 | 0.62 | 0.62 | 91 | 1011.2 |
| 20260505210250 | 54 | 334 | 0.0 | 0.0 | 0.01 | 0.62 | 0.62 | 91 | 1011.2 |
| 20260505210150 | 54 | 334 | 0.0 | 0.0 | 0.01 | 0.62 | 0.62 | 91 | 1011.2 |
| 20260505210050 | 54 | 334 | 0.0 | 0.0 | 0.01 | 0.62 | 0.62 | 91 | 1011.2 |
| 20260505210008 | 54 | 334 | 0.0 | 0.0 | 0.01 | 0.62 | 0.62 | 91 | 1011.2 |
| 20260505205950 | 54 | 334 | 0.0 | 0.0 | 0.01 | 0.62 | 0.62 | 91 | 1011.3 |
| 20260505205851 | 54 | 333 | 0.0 | 0.0 | 0.01 | 0.62 | 0.62 | 91 | 1011.2 |
| 20260505205751 | 54 | 333 | 0.0 | 0.0 | 0.01 | 0.62 | 0.62 | 91 | 1011.2 |
| 20260505205708 | 54 | 333 | 0.0 | 0.0 | 0.01 | 0.62 | 0.62 | 91 | 1011.2 |
| 20260505205650 | 53 | 333 | 0.0 | 0.0 | 0.01 | 0.62 | 0.62 | 91 | 1011.3 |
| 20260505205550 | 53 | 333 | 0.0 | 0.0 | 0.02 | 0.62 | 0.62 | 91 | 1011.4 |
| 20260505205450 | 53 | 333 | 0.0 | 0.0 | 0.02 | 0.62 | 0.62 | 91 | 1011.3 |
| 20260505205408 | 53 | 333 | 0.0 | 0.0 | 0.02 | 0.62 | 0.62 | 91 | 1011.3 |
| 20260505205350 | 53 | 333 | 0.0 | 0.0 | 0.02 | 0.62 | 0.62 | 91 | 1011.4 |
| 20260505205250 | 53 | 333 | 0.0 | 0.0 | 0.02 | 0.62 | 0.62 | 91 | 1011.4 |
| 20260505205151 | 53 | 333 | 0.0 | 0.9 | 0.02 | 0.62 | 0.62 | 91 | 1011.4 |
| 20260505205108 | 53 | 333 | 0.0 | 0.9 | 0.02 | 0.62 | 0.62 | 91 | 1011.4 |
| 20260505205050 | 53 | 333 | 0.0 | 0.9 | 0.02 | 0.62 | 0.62 | 91 | 1011.3 |
| 20260505204950 | 53 | 333 | 0.0 | 0.9 | 0.02 | 0.62 | 0.62 | 91 | 1011.3 |
| 20260505204851 | 53 | 333 | 0.0 | 0.9 | 0.02 | 0.62 | 0.62 | 91 | 1011.2 |
| 20260505204808 | 53 | 333 | 0.0 | 0.9 | 0.02 | 0.62 | 0.62 | 91 | 1011.2 |
| 20260505204750 | 53 | 333 | 0.0 | 0.9 | 0.03 | 0.62 | 0.62 | 91 | 1011.2 |
| 20260505204650 | 53 | 333 | 0.0 | 0.9 | 0.03 | 0.62 | 0.62 | 91 | 1011.2 |
| 20260505204550 | 53 | 333 | 0.0 | 0.9 | 0.03 | 0.62 | 0.62 | 91 | 1011.3 |
| 20260505204508 | 53 | 333 | 0.0 | 0.9 | 0.03 | 0.62 | 0.62 | 91 | 1011.3 |
| 20260505204452 | 53 | 335 | 0.0 | 0.9 | 0.03 | 0.62 | 0.62 | 91 | 1011.4 |
| 20260505204350 | 53 | 336 | 0.9 | 0.9 | 0.03 | 0.62 | 0.62 | 91 | 1011.4 |
| 20260505204250 | 53 | 336 | 0.9 | 0.9 | 0.03 | 0.62 | 0.62 | 91 | 1011.5 |
| 20260505204208 | 53 | 336 | 0.9 | 0.9 | 0.03 | 0.62 | 0.62 | 91 | 1011.5 |
| 20260505204150 | 53 | 337 | 0.9 | 0.9 | 0.03 | 0.62 | 0.62 | 91 | 1011.4 |
| 20260505204050 | 53 | 338 | 0.9 | 0.9 | 0.03 | 0.62 | 0.62 | 91 | 1011.3 |
| 20260505203952 | 53 | 338 | 0.9 | 0.9 | 0.03 | 0.62 | 0.62 | 91 | 1011.3 |
| 20260505203908 | 53 | 338 | 0.9 | 0.9 | 0.03 | 0.62 | 0.62 | 91 | 1011.3 |
| 20260505203850 | 53 | 339 | 0.9 | 0.9 | 0.03 | 0.62 | 0.62 | 91 | 1011.3 |
| 20260505203750 | 53 | 339 | 0.9 | 0.9 | 0.03 | 0.62 | 0.62 | 91 | 1011.4 |
| 20260505203650 | 53 | 337 | 0.9 | 0.9 | 0.03 | 0.62 | 0.62 | 91 | 1011.3 |
| 20260505203607 | 53 | 337 | 0.9 | 0.9 | 0.03 | 0.62 | 0.62 | 91 | 1011.3 |
| 20260505203549 | 53 | 335 | 0.9 | 0.9 | 0.03 | 0.62 | 0.62 | 91 | 1011.5 |
| 20260505203449 | 53 | 331 | 0.0 | 0.9 | 0.03 | 0.62 | 0.62 | 91 | 1011.4 |
| 20260505203350 | 54 | 328 | 0.0 | 0.9 | 0.03 | 0.62 | 0.62 | 91 | 1011.4 |
| 20260505203308 | 54 | 328 | 0.0 | 0.9 | 0.03 | 0.62 | 0.62 | 91 | 1011.4 |
| 20260505203250 | 54 | 325 | 0.0 | 0.9 | 0.03 | 0.62 | 0.62 | 91 | 1011.4 |
| 20260505203150 | 54 | 319 | 0.0 | 0.9 | 0.03 | 0.62 | 0.62 | 91 | 1011.4 |
| 20260505203050 | 54 | 314 | 0.0 | 0.9 | 0.03 | 0.62 | 0.62 | 91 | 1011.5 |
| 20260505203007 | 54 | 314 | 0.0 | 0.9 | 0.03 | 0.62 | 0.62 | 91 | 1011.5 |
| 20260505202951 | 54 | 309 | 0.0 | 0.9 | 0.03 | 0.62 | 0.62 | 91 | 1011.4 |
| 20260505202851 | 54 | 302 | 0.0 | 0.9 | 0.03 | 0.62 | 0.62 | 91 | 1011.5 |
| 20260505202750 | 54 | 292 | 0.0 | 0.9 | 0.03 | 0.62 | 0.62 | 91 | 1011.5 |
| 20260505202708 | 54 | 292 | 0.0 | 0.9 | 0.03 | 0.62 | 0.62 | 91 | 1011.5 |
| 20260505202650 | 54 | 285 | 0.0 | 0.9 | 0.03 | 0.62 | 0.62 | 91 | 1011.4 |
| 20260505202550 | 54 | 285 | 0.0 | 0.9 | 0.03 | 0.62 | 0.62 | 91 | 1011.5 |
| 20260505202450 | 54 | 285 | 0.0 | 0.9 | 0.03 | 0.62 | 0.62 | 91 | 1011.5 |
| 20260505202408 | 54 | 285 | 0.0 | 0.9 | 0.03 | 0.62 | 0.62 | 91 | 1011.5 |
| 20260505202349 | 54 | 285 | 0.0 | 0.9 | 0.03 | 0.62 | 0.62 | 91 | 1011.4 |
| 20260505202249 | 54 | 285 | 0.0 | 0.9 | 0.03 | 0.62 | 0.62 | 91 | 1011.6 |
| 20260505202149 | 54 | 285 | 0.0 | 0.9 | 0.03 | 0.62 | 0.62 | 91 | 1011.5 |
| 20260505202109 | 54 | 285 | 0.0 | 0.9 | 0.03 | 0.62 | 0.62 | 91 | 1011.5 |
| 20260505202051 | 54 | 284 | 0.0 | 0.9 | 0.03 | 0.61 | 0.61 | 91 | 1011.5 |
| 20260505201951 | 54 | 284 | 0.0 | 0.9 | 0.03 | 0.61 | 0.61 | 91 | 1011.5 |
| 20260505201850 | 54 | 283 | 0.0 | 0.9 | 0.03 | 0.61 | 0.61 | 91 | 1011.6 |
| 20260505201807 | 54 | 283 | 0.0 | 0.9 | 0.03 | 0.61 | 0.61 | 91 | 1011.6 |
| 20260505201749 | 54 | 281 | 0.0 | 0.9 | 0.03 | 0.61 | 0.61 | 91 | 1011.5 |
| 20260505201649 | 54 | 280 | 0.0 | 0.9 | 0.03 | 0.61 | 0.61 | 91 | 1011.5 |
| 20260505201549 | 54 | 278 | 0.0 | 0.0 | 0.03 | 0.61 | 0.61 | 91 | 1011.5 |
| 20260505201509 | 54 | 278 | 0.0 | 0.0 | 0.03 | 0.61 | 0.61 | 91 | 1011.5 |
| 20260505201451 | 54 | 276 | 0.0 | 0.0 | 0.02 | 0.60 | 0.60 | 91 | 1011.5 |
| 20260505201351 | 54 | 275 | 0.0 | 0.0 | 0.02 | 0.60 | 0.60 | 91 | 1011.6 |
| 20260505201251 | 54 | 275 | 0.0 | 0.0 | 0.02 | 0.60 | 0.60 | 91 | 1011.5 |
| 20260505201209 | 54 | 275 | 0.0 | 0.0 | 0.02 | 0.60 | 0.60 | 91 | 1011.5 |
| 20260505201151 | 54 | 275 | 0.0 | 0.9 | 0.02 | 0.60 | 0.60 | 91 | 1011.6 |
| 20260505201051 | 54 | 275 | 0.0 | 0.9 | 0.02 | 0.60 | 0.60 | 91 | 1011.6 |
| 20260505200950 | 53 | 283 | 0.0 | 0.9 | 0.02 | 0.60 | 0.60 | 91 | 1011.5 |
| 20260505200909 | 53 | 283 | 0.0 | 0.9 | 0.02 | 0.60 | 0.60 | 91 | 1011.5 |
| 20260505200851 | 53 | 284 | 0.0 | 0.9 | 0.02 | 0.60 | 0.60 | 90 | 1011.5 |
| 20260505200751 | 54 | 285 | 0.0 | 0.9 | 0.03 | 0.60 | 0.60 | 90 | 1011.6 |
| 20260505200651 | 54 | 288 | 0.0 | 0.9 | 0.03 | 0.60 | 0.60 | 90 | 1011.5 |
| 20260505200608 | 54 | 288 | 0.0 | 0.9 | 0.03 | 0.60 | 0.60 | 90 | 1011.5 |
| 20260505200550 | 54 | 289 | 0.0 | 0.9 | 0.03 | 0.60 | 0.60 | 90 | 1011.5 |
| 20260505200450 | 54 | 294 | 0.0 | 0.9 | 0.03 | 0.60 | 0.60 | 90 | 1011.5 |
| 20260505200350 | 54 | 303 | 0.0 | 0.9 | 0.03 | 0.60 | 0.60 | 91 | 1011.5 |
| 20260505200308 | 54 | 303 | 0.0 | 0.9 | 0.03 | 0.60 | 0.60 | 91 | 1011.5 |
| 20260505200250 | 54 | 317 | 0.0 | 0.9 | 0.03 | 0.60 | 0.60 | 91 | 1011.4 |
| 20260505200150 | 54 | 346 | 0.0 | 0.9 | 0.03 | 0.60 | 0.60 | 90 | 1011.4 |
| 20260505200050 | 54 | 359 | 0.0 | 0.9 | 0.03 | 0.60 | 0.60 | 90 | 1011.5 |
| 20260505200007 | 54 | 359 | 0.0 | 0.9 | 0.03 | 0.60 | 0.60 | 90 | 1011.5 |
| 20260505195949 | 54 | 1 | 0.0 | 0.0 | 0.03 | 0.60 | 0.60 | 91 | 1011.4 |
| 20260505195850 | 54 | 2 | 0.0 | 0.9 | 0.03 | 0.60 | 0.60 | 91 | 1011.3 |
| 20260505195750 | 54 | 2 | 0.0 | 0.9 | 0.03 | 0.60 | 0.60 | 91 | 1011.4 |
| 20260505195707 | 54 | 2 | 0.0 | 0.9 | 0.03 | 0.60 | 0.60 | 91 | 1011.4 |
| 20260505195649 | 54 | 1 | 0.0 | 0.9 | 0.03 | 0.60 | 0.60 | 91 | 1011.4 |
| 20260505195549 | 54 | 1 | 0.0 | 0.9 | 0.02 | 0.59 | 0.59 | 90 | 1011.4 |
| 20260505195449 | 54 | 1 | 0.0 | 0.9 | 0.02 | 0.59 | 0.59 | 90 | 1011.3 |
| 20260505195407 | 54 | 1 | 0.0 | 0.9 | 0.02 | 0.59 | 0.59 | 90 | 1011.3 |
| 20260505195350 | 54 | 1 | 0.0 | 0.9 | 0.02 | 0.59 | 0.59 | 90 | 1011.5 |
| 20260505195250 | 53 | 1 | 0.0 | 0.9 | 0.02 | 0.59 | 0.59 | 90 | 1011.5 |
| 20260505195150 | 53 | 1 | 0.0 | 0.9 | 0.02 | 0.59 | 0.59 | 90 | 1011.4 |
| 20260505195107 | 53 | 1 | 0.0 | 0.9 | 0.02 | 0.59 | 0.59 | 90 | 1011.4 |
| 20260505195049 | 53 | 1 | 0.0 | 0.9 | 0.02 | 0.59 | 0.59 | 90 | 1011.4 |
| 20260505194949 | 53 | 1 | 0.0 | 0.9 | 0.02 | 0.59 | 0.59 | 90 | 1011.3 |
| 20260505194851 | 53 | 1 | 0.0 | 0.9 | 0.01 | 0.59 | 0.59 | 90 | 1011.3 |
| 20260505194809 | 53 | 1 | 0.0 | 0.9 | 0.01 | 0.59 | 0.59 | 90 | 1011.3 |
| 20260505194751 | 54 | 1 | 0.0 | 0.9 | 0.01 | 0.59 | 0.59 | 90 | 1011.3 |
| 20260505194650 | 54 | 1 | 0.0 | 0.0 | 0.01 | 0.59 | 0.59 | 90 | 1011.2 |
| 20260505194549 | 54 | 1 | 0.0 | 0.0 | 0.01 | 0.59 | 0.59 | 90 | 1011.2 |
| 20260505194509 | 54 | 1 | 0.0 | 0.0 | 0.01 | 0.59 | 0.59 | 90 | 1011.2 |
| 20260505194451 | 54 | 1 | 0.0 | 0.0 | 0.01 | 0.59 | 0.59 | 90 | 1011.3 |
| 20260505194350 | 54 | 1 | 0.0 | 0.0 | 0.01 | 0.59 | 0.59 | 90 | 1011.3 |
| 20260505194250 | 54 | 1 | 0.0 | 0.0 | 0.01 | 0.59 | 0.59 | 90 | 1011.3 |
| 20260505194207 | 54 | 1 | 0.0 | 0.0 | 0.01 | 0.59 | 0.59 | 90 | 1011.3 |
| 20260505194149 | 54 | 1 | 0.0 | 0.0 | 0.01 | 0.59 | 0.59 | 90 | 1011.1 |
| 20260505194049 | 54 | 1 | 0.0 | 0.0 | 0.01 | 0.59 | 0.59 | 90 | 1011.2 |
| 20260505193951 | 54 | 1 | 0.0 | 0.0 | 0.01 | 0.59 | 0.59 | 90 | 1011.3 |
| 20260505193907 | 54 | 1 | 0.0 | 0.0 | 0.01 | 0.59 | 0.59 | 90 | 1011.3 |
| 20260505193851 | 54 | 1 | 0.0 | 0.0 | 0.01 | 0.59 | 0.59 | 90 | 1011.2 |
| 20260505193751 | 54 | 1 | 0.0 | 0.0 | 0.01 | 0.59 | 0.59 | 90 | 1011.4 |
| 20260505193651 | 54 | 1 | 0.0 | 0.0 | 0.00 | 0.58 | 0.58 | 90 | 1011.3 |
| 20260505193608 | 54 | 1 | 0.0 | 0.0 | 0.00 | 0.58 | 0.58 | 90 | 1011.3 |
| 20260505193550 | 54 | 1 | 0.0 | 0.0 | 0.00 | 0.58 | 0.58 | 90 | 1011.3 |
| 20260505193450 | 54 | 1 | 0.0 | 0.0 | 0.00 | 0.58 | 0.58 | 90 | 1011.3 |
| 20260505193351 | 54 | 1 | 0.0 | 0.0 | 0.00 | 0.58 | 0.58 | 90 | 1011.2 |
| 20260505193309 | 54 | 1 | 0.0 | 0.0 | 0.00 | 0.58 | 0.58 | 90 | 1011.2 |
| 20260505193251 | 54 | 1 | 0.0 | 0.0 | 0.00 | 0.58 | 0.58 | 90 | 1011.2 |
| 20260505193150 | 54 | 1 | 0.0 | 0.0 | 0.00 | 0.58 | 0.58 | 90 | 1011.2 |
| 20260505193050 | 54 | 1 | 0.0 | 0.0 | 0.00 | 0.58 | 0.58 | 90 | 1011.1 |
| 20260505193009 | 54 | 1 | 0.0 | 0.0 | 0.00 | 0.58 | 0.58 | 90 | 1011.1 |
| 20260505192950 | 54 | 1 | 0.0 | 0.0 | 0.00 | 0.58 | 0.58 | 90 | 1011.2 |
| 20260505192851 | 54 | 1 | 0.0 | 0.0 | 0.00 | 0.58 | 0.58 | 90 | 1011.2 |
| 20260505192751 | 54 | 1 | 0.0 | 0.0 | 0.00 | 0.58 | 0.58 | 90 | 1011.2 |
| 20260505192709 | 54 | 1 | 0.0 | 0.0 | 0.00 | 0.58 | 0.58 | 90 | 1011.2 |
| 20260505192651 | 54 | 1 | 0.0 | 0.0 | 0.00 | 0.58 | 0.58 | 90 | 1011.2 |
| 20260505192551 | 54 | 1 | 0.0 | 0.0 | 0.00 | 0.58 | 0.58 | 90 | 1011.2 |
| 20260505192450 | 54 | 8 | 0.0 | 0.0 | 0.00 | 0.58 | 0.58 | 90 | 1011.2 |
| 20260505192408 | 54 | 8 | 0.0 | 0.0 | 0.00 | 0.58 | 0.58 | 90 | 1011.2 |
| 20260505192350 | 54 | 9 | 0.0 | 0.0 | 0.00 | 0.58 | 0.58 | 90 | 1011.3 |
| 20260505192249 | 54 | 10 | 0.0 | 0.0 | 0.00 | 0.58 | 0.58 | 90 | 1011.1 |
| 20260505192149 | 54 | 11 | 0.0 | 0.0 | 0.00 | 0.58 | 0.58 | 90 | 1011.1 |
| 20260505192107 | 54 | 11 | 0.0 | 0.0 | 0.00 | 0.58 | 0.58 | 90 | 1011.1 |
| 20260505192049 | 54 | 11 | 0.0 | 0.0 | 0.00 | 0.58 | 0.58 | 90 | 1011.2 |
| 20260505191951 | 54 | 15 | 0.0 | 0.0 | 0.00 | 0.58 | 0.58 | 90 | 1011.2 |
| 20260505191850 | 54 | 18 | 0.0 | 0.0 | 0.00 | 0.58 | 0.58 | 90 | 1011.2 |
| 20260505191809 | 54 | 18 | 0.0 | 0.0 | 0.00 | 0.58 | 0.58 | 90 | 1011.2 |
| 20260505191751 | 54 | 19 | 0.0 | 0.0 | 0.00 | 0.58 | 0.58 | 90 | 1011.2 |
| 20260505191651 | 54 | 26 | 0.0 | 0.0 | 0.00 | 0.58 | 0.58 | 90 | 1011.2 |
| 20260505191551 | 54 | 27 | 0.0 | 0.0 | 0.00 | 0.58 | 0.58 | 89 | 1011.2 |
| 20260505191508 | 54 | 30 | 0.0 | 0.0 | 0.00 | 0.58 | 0.58 | 89 | 1011.1 |
| 20260505191450 | 54 | 30 | 0.0 | 0.0 | 0.00 | 0.58 | 0.58 | 89 | 1011.1 |
| 20260505191349 | 54 | 30 | 0.0 | 0.0 | 0.00 | 0.58 | 0.58 | 89 | 1011.2 |
| 20260505191249 | 54 | 30 | 0.0 | 0.0 | 0.00 | 0.58 | 0.58 | 90 | 1011.1 |
| 20260505191209 | 54 | 30 | 0.0 | 0.0 | 0.00 | 0.58 | 0.58 | 90 | 1011.1 |
| 20260505191151 | 54 | 30 | 0.0 | 0.0 | 0.00 | 0.58 | 0.58 | 90 | 1011.1 |
| 20260505191051 | 54 | 30 | 0.0 | 0.0 | 0.00 | 0.58 | 0.58 | 90 | 1011.0 |
| 20260505190951 | 54 | 30 | 0.0 | 0.0 | 0.00 | 0.58 | 0.58 | 90 | 1011.1 |
| 20260505190908 | 54 | 30 | 0.0 | 0.0 | 0.00 | 0.58 | 0.58 | 90 | 1011.1 |
| 20260505190850 | 54 | 30 | 0.0 | 0.0 | 0.00 | 0.57 | 0.57 | 90 | 1011.1 |
| 20260505190749 | 54 | 30 | 0.0 | 0.0 | 0.00 | 0.57 | 0.57 | 89 | 1011.1 |
| 20260505190649 | 54 | 30 | 0.0 | 0.0 | 0.00 | 0.57 | 0.57 | 89 | 1011.1 |
| 20260505190607 | 54 | 30 | 0.0 | 0.0 | 0.00 | 0.57 | 0.57 | 89 | 1011.1 |
| 20260505190549 | 54 | 30 | 0.0 | 0.0 | 0.00 | 0.57 | 0.57 | 89 | 1011.1 |
| 20260505190449 | 54 | 30 | 0.0 | 0.0 | 0.00 | 0.57 | 0.57 | 89 | 1011.1 |
| 20260505190351 | 54 | 30 | 0.0 | 0.0 | 0.00 | 0.57 | 0.57 | 89 | 1011.0 |
| 20260505190309 | 54 | 30 | 0.0 | 0.0 | 0.00 | 0.57 | 0.57 | 89 | 1011.0 |
| 20260505190251 | 54 | 32 | 0.0 | 0.0 | 0.00 | 0.57 | 0.57 | 89 | 1011.0 |
| 20260505190151 | 54 | 25 | 0.0 | 0.0 | 0.00 | 0.57 | 0.57 | 89 | 1011.1 |
| 20260505190051 | 54 | 25 | 0.0 | 0.0 | 0.00 | 0.57 | 0.57 | 89 | 1011.0 |
| 20260505190008 | 54 | 25 | 0.0 | 0.0 | 0.00 | 0.57 | 0.57 | 89 | 1011.0 |
| 20260505185949 | 54 | 24 | 0.0 | 0.0 | 0.00 | 0.57 | 0.57 | 89 | 1011.0 |
| 20260505185851 | 54 | 21 | 0.0 | 0.0 | 0.00 | 0.57 | 0.57 | 90 | 1011.0 |
| 20260505185751 | 54 | 19 | 0.0 | 0.0 | 0.00 | 0.57 | 0.57 | 90 | 1011.1 |
| 20260505185708 | 54 | 19 | 0.0 | 0.0 | 0.00 | 0.57 | 0.57 | 90 | 1011.1 |
| 20260505185650 | 54 | 17 | 0.0 | 0.0 | 0.00 | 0.57 | 0.57 | 90 | 1011.0 |
| 20260505185550 | 54 | 16 | 0.0 | 0.0 | 0.00 | 0.57 | 0.57 | 89 | 1011.0 |
| 20260505185450 | 54 | 13 | 0.0 | 0.0 | 0.00 | 0.57 | 0.57 | 89 | 1010.9 |
| 20260505185408 | 54 | 13 | 0.0 | 0.0 | 0.00 | 0.57 | 0.57 | 89 | 1010.9 |
| 20260505185351 | 54 | 11 | 0.0 | 0.0 | 0.00 | 0.57 | 0.57 | 89 | 1011.0 |
| 20260505185251 | 54 | 7 | 0.0 | 0.0 | 0.00 | 0.57 | 0.57 | 89 | 1010.9 |
| 20260505185151 | 54 | 1 | 0.0 | 0.0 | 0.00 | 0.57 | 0.57 | 89 | 1010.9 |
| 20260505185108 | 54 | 1 | 0.0 | 0.0 | 0.00 | 0.57 | 0.57 | 89 | 1010.9 |
| 20260505185050 | 54 | 1 | 0.0 | 0.0 | 0.00 | 0.57 | 0.57 | 89 | 1010.9 |
| 20260505184950 | 54 | 1 | 0.0 | 0.0 | 0.00 | 0.57 | 0.57 | 89 | 1010.9 |
| 20260505184851 | 54 | 1 | 0.0 | 0.0 | 0.00 | 0.57 | 0.57 | 89 | 1010.9 |
| 20260505184808 | 54 | 1 | 0.0 | 0.0 | 0.00 | 0.57 | 0.57 | 89 | 1010.9 |
| 20260505184750 | 54 | 1 | 0.0 | 0.0 | 0.00 | 0.57 | 0.57 | 89 | 1010.9 |
| 20260505184650 | 54 | 1 | 0.0 | 0.0 | 0.00 | 0.57 | 0.57 | 89 | 1011.0 |
| 20260505184550 | 54 | 1 | 0.0 | 0.0 | 0.00 | 0.57 | 0.57 | 89 | 1010.9 |
| 20260505184508 | 54 | 1 | 0.0 | 0.0 | 0.00 | 0.57 | 0.57 | 89 | 1010.9 |
| 20260505184449 | 54 | 4 | 0.0 | 0.0 | 0.00 | 0.57 | 0.57 | 89 | 1010.9 |
| 20260505184351 | 54 | 7 | 0.0 | 0.9 | 0.00 | 0.57 | 0.57 | 89 | 1011.0 |
| 20260505184250 | 54 | 9 | 0.0 | 0.9 | 0.00 | 0.57 | 0.57 | 89 | 1010.9 |
| 20260505184208 | 54 | 9 | 0.0 | 0.9 | 0.00 | 0.57 | 0.57 | 89 | 1010.9 |
| 20260505184150 | 54 | 10 | 0.0 | 0.9 | 0.00 | 0.57 | 0.57 | 89 | 1010.9 |
| 20260505184050 | 54 | 11 | 0.0 | 0.9 | 0.00 | 0.57 | 0.57 | 89 | 1011.0 |
| 20260505183950 | 54 | 11 | 0.0 | 0.9 | 0.00 | 0.57 | 0.57 | 89 | 1010.9 |
| 20260505183907 | 54 | 11 | 0.0 | 0.9 | 0.00 | 0.57 | 0.57 | 89 | 1010.9 |
| 20260505183851 | 54 | 11 | 0.0 | 0.9 | 0.00 | 0.57 | 0.57 | 89 | 1011.0 |
| 20260505183751 | 54 | 11 | 0.0 | 0.9 | 0.00 | 0.57 | 0.57 | 89 | 1011.0 |
| 20260505183650 | 54 | 10 | 0.0 | 0.9 | 0.00 | 0.57 | 0.57 | 89 | 1010.9 |
| 20260505183608 | 54 | 10 | 0.0 | 0.9 | 0.00 | 0.57 | 0.57 | 89 | 1010.9 |
| 20260505183550 | 54 | 5 | 0.0 | 0.9 | 0.00 | 0.57 | 0.57 | 89 | 1010.9 |
| 20260505183449 | 54 | 3 | 0.0 | 0.9 | 0.00 | 0.57 | 0.57 | 89 | 1010.9 |
| 20260505183350 | 54 | 1 | 0.0 | 0.9 | 0.00 | 0.57 | 0.57 | 89 | 1011.0 |
| 20260505183308 | 54 | 1 | 0.0 | 0.9 | 0.00 | 0.57 | 0.57 | 89 | 1011.0 |
| 20260505183250 | 54 | 357 | 0.0 | 0.9 | 0.00 | 0.57 | 0.57 | 89 | 1011.0 |
| 20260505183150 | 54 | 355 | 0.0 | 0.9 | 0.00 | 0.57 | 0.57 | 90 | 1010.9 |
| 20260505183051 | 54 | 353 | 0.0 | 0.9 | 0.00 | 0.57 | 0.57 | 89 | 1010.9 |
| 20260505183009 | 54 | 353 | 0.0 | 0.9 | 0.00 | 0.57 | 0.57 | 89 | 1010.9 |
| 20260505182950 | 54 | 351 | 0.0 | 0.9 | 0.00 | 0.57 | 0.57 | 89 | 1010.9 |
| 20260505182849 | 54 | 351 | 0.0 | 0.9 | 0.00 | 0.57 | 0.57 | 89 | 1011.0 |
| 20260505182749 | 54 | 350 | 0.0 | 0.9 | 0.00 | 0.57 | 0.57 | 89 | 1010.9 |
| 20260505182708 | 54 | 350 | 0.0 | 0.9 | 0.00 | 0.57 | 0.57 | 89 | 1010.9 |
| 20260505182650 | 54 | 350 | 0.0 | 0.9 | 0.00 | 0.57 | 0.57 | 89 | 1010.9 |
| 20260505182550 | 54 | 350 | 0.0 | 0.9 | 0.00 | 0.57 | 0.57 | 90 | 1011.0 |
| 20260505182450 | 54 | 350 | 0.0 | 0.0 | 0.00 | 0.57 | 0.57 | 89 | 1011.0 |
| 20260505182408 | 54 | 350 | 0.0 | 0.0 | 0.00 | 0.57 | 0.57 | 89 | 1011.0 |
| 20260505182350 | 54 | 350 | 0.0 | 0.0 | 0.00 | 0.57 | 0.57 | 89 | 1011.0 |
| 20260505182250 | 54 | 350 | 0.0 | 0.0 | 0.00 | 0.57 | 0.57 | 89 | 1010.9 |
| 20260505182150 | 54 | 350 | 0.0 | 0.0 | 0.00 | 0.57 | 0.57 | 90 | 1010.9 |
| 20260505182107 | 54 | 350 | 0.0 | 0.0 | 0.00 | 0.57 | 0.57 | 90 | 1010.9 |
| 20260505182049 | 54 | 350 | 0.0 | 0.0 | 0.00 | 0.57 | 0.57 | 90 | 1011.0 |
| 20260505181949 | 54 | 350 | 0.0 | 0.0 | 0.00 | 0.57 | 0.57 | 89 | 1011.0 |
| 20260505181850 | 54 | 350 | 0.0 | 0.0 | 0.00 | 0.57 | 0.57 | 89 | 1010.9 |
| 20260505181808 | 54 | 350 | 0.0 | 0.0 | 0.00 | 0.57 | 0.57 | 89 | 1010.9 |
| 20260505181750 | 54 | 350 | 0.0 | 0.0 | 0.00 | 0.57 | 0.57 | 90 | 1010.9 |
| 20260505181650 | 54 | 350 | 0.0 | 0.0 | 0.00 | 0.57 | 0.57 | 90 | 1010.9 |
| 20260505181550 | 54 | 350 | 0.0 | 0.0 | 0.00 | 0.57 | 0.57 | 89 | 1010.9 |
| 20260505181507 | 54 | 350 | 0.0 | 0.0 | 0.00 | 0.57 | 0.57 | 89 | 1010.9 |
| 20260505181451 | 54 | 350 | 0.0 | 0.0 | 0.00 | 0.57 | 0.57 | 89 | 1010.9 |
| 20260505181351 | 54 | 350 | 0.0 | 0.0 | 0.00 | 0.57 | 0.57 | 89 | 1010.9 |
| 20260505181251 | 54 | 350 | 0.0 | 0.0 | 0.00 | 0.57 | 0.57 | 89 | 1010.9 |
| 20260505181208 | 54 | 350 | 0.0 | 0.0 | 0.00 | 0.57 | 0.57 | 89 | 1010.9 |
| 20260505181151 | 54 | 350 | 0.0 | 0.0 | 0.00 | 0.57 | 0.57 | 89 | 1011.0 |
| 20260505181051 | 54 | 350 | 0.0 | 0.9 | 0.00 | 0.57 | 0.57 | 89 | 1011.0 |
| 20260505180950 | 54 | 350 | 0.0 | 0.9 | 0.00 | 0.57 | 0.57 | 89 | 1010.9 |
| 20260505180908 | 54 | 350 | 0.0 | 0.9 | 0.00 | 0.57 | 0.57 | 89 | 1010.9 |
| 20260505180849 | 54 | 350 | 0.0 | 0.9 | 0.00 | 0.57 | 0.57 | 90 | 1010.9 |
| 20260505180749 | 54 | 350 | 0.0 | 0.9 | 0.00 | 0.57 | 0.57 | 90 | 1010.9 |
| 20260505180649 | 54 | 350 | 0.0 | 0.9 | 0.00 | 0.57 | 0.57 | 89 | 1010.9 |
| 20260505180607 | 54 | 350 | 0.0 | 0.9 | 0.00 | 0.57 | 0.57 | 89 | 1010.9 |
| 20260505180549 | 54 | 350 | 0.0 | 0.9 | 0.00 | 0.57 | 0.57 | 89 | 1010.9 |
| 20260505180451 | 54 | 349 | 0.0 | 0.9 | 0.00 | 0.57 | 0.57 | 89 | 1010.9 |
| 20260505180349 | 54 | 349 | 0.0 | 0.9 | 0.00 | 0.57 | 0.57 | 89 | 1010.9 |
| 20260505180309 | 54 | 349 | 0.0 | 0.9 | 0.00 | 0.57 | 0.57 | 89 | 1010.9 |
| 20260505180251 | 54 | 349 | 0.0 | 0.9 | 0.00 | 0.57 | 0.57 | 89 | 1010.8 |
| 20260505180151 | 54 | 349 | 0.0 | 0.9 | 0.00 | 0.57 | 0.57 | 89 | 1011.0 |
| 20260505180051 | 54 | 349 | 0.0 | 0.9 | 0.00 | 0.57 | 0.57 | 89 | 1010.9 |
| 20260505180008 | 54 | 349 | 0.0 | 0.9 | 0.00 | 0.57 | 0.57 | 89 | 1010.9 |
| 20260505175950 | 54 | 349 | 0.0 | 0.9 | 0.00 | 0.57 | 0.57 | 89 | 1011.0 |
| 20260505175851 | 54 | 350 | 0.0 | 0.9 | 0.00 | 0.57 | 0.57 | 89 | 1010.9 |
| 20260505175751 | 54 | 350 | 0.0 | 0.9 | 0.00 | 0.57 | 0.57 | 89 | 1011.0 |
| 20260505175709 | 54 | 350 | 0.0 | 0.9 | 0.00 | 0.57 | 0.57 | 89 | 1011.0 |
| 20260505175650 | 54 | 351 | 0.0 | 0.9 | 0.00 | 0.57 | 0.57 | 89 | 1010.9 |
| 20260505175550 | 54 | 352 | 0.0 | 0.9 | 0.00 | 0.57 | 0.57 | 89 | 1010.9 |
| 20260505175450 | 54 | 352 | 0.0 | 0.9 | 0.00 | 0.57 | 0.57 | 89 | 1010.9 |
| 20260505175408 | 54 | 352 | 0.0 | 0.9 | 0.00 | 0.57 | 0.57 | 89 | 1010.9 |
| 20260505175350 | 54 | 353 | 0.0 | 0.9 | 0.00 | 0.57 | 0.57 | 89 | 1010.9 |
| 20260505175250 | 54 | 355 | 0.0 | 0.9 | 0.00 | 0.57 | 0.57 | 89 | 1010.9 |
| 20260505175150 | 54 | 354 | 0.0 | 0.9 | 0.00 | 0.57 | 0.57 | 89 | 1011.0 |
| 20260505175107 | 54 | 354 | 0.0 | 0.9 | 0.00 | 0.57 | 0.57 | 89 | 1011.0 |
| 20260505175049 | 54 | 355 | 0.0 | 0.9 | 0.00 | 0.56 | 0.56 | 89 | 1011.0 |
| 20260505174949 | 54 | 356 | 0.0 | 0.9 | 0.00 | 0.56 | 0.56 | 89 | 1010.9 |
| 20260505174850 | 54 | 357 | 0.0 | 0.9 | 0.00 | 0.56 | 0.56 | 89 | 1010.9 |
| 20260505174808 | 54 | 357 | 0.0 | 0.9 | 0.00 | 0.56 | 0.56 | 89 | 1010.9 |
| 20260505174750 | 54 | 356 | 0.0 | 0.9 | 0.00 | 0.56 | 0.56 | 89 | 1011.0 |
| 20260505174649 | 54 | 355 | 0.0 | 0.9 | 0.00 | 0.56 | 0.56 | 89 | 1011.0 |
| 20260505174549 | 54 | 354 | 0.0 | 0.9 | 0.00 | 0.56 | 0.56 | 89 | 1010.8 |
| 20260505174507 | 54 | 354 | 0.0 | 0.9 | 0.00 | 0.56 | 0.56 | 89 | 1010.8 |
| 20260505174451 | 54 | 354 | 0.0 | 0.9 | 0.00 | 0.56 | 0.56 | 89 | 1010.9 |
| 20260505174350 | 54 | 354 | 0.0 | 0.9 | 0.00 | 0.56 | 0.56 | 89 | 1010.9 |
| 20260505174250 | 54 | 352 | 0.0 | 0.9 | 0.00 | 0.56 | 0.56 | 89 | 1010.9 |
| 20260505174207 | 54 | 352 | 0.0 | 0.9 | 0.00 | 0.56 | 0.56 | 89 | 1010.9 |
| 20260505174149 | 54 | 352 | 0.0 | 0.9 | 0.00 | 0.56 | 0.56 | 89 | 1010.8 |
| 20260505174051 | 54 | 351 | 0.0 | 0.0 | 0.00 | 0.56 | 0.56 | 89 | 1010.9 |
| 20260505173951 | 54 | 351 | 0.0 | 0.0 | 0.00 | 0.56 | 0.56 | 89 | 1010.9 |
| 20260505173907 | 54 | 351 | 0.0 | 0.0 | 0.00 | 0.56 | 0.56 | 89 | 1011.0 |
| 20260505173851 | 54 | 351 | 0.0 | 0.0 | 0.00 | 0.56 | 0.56 | 89 | 1011.0 |
| 20260505173751 | 54 | 351 | 0.0 | 0.0 | 0.00 | 0.56 | 0.56 | 89 | 1010.9 |
| 20260505173651 | 54 | 351 | 0.0 | 0.0 | 0.00 | 0.56 | 0.56 | 89 | 1010.9 |
| 20260505173608 | 54 | 351 | 0.0 | 0.0 | 0.00 | 0.56 | 0.56 | 89 | 1010.9 |
| 20260505173550 | 54 | 352 | 0.0 | 0.0 | 0.00 | 0.56 | 0.56 | 89 | 1010.9 |
| 20260505173449 | 54 | 352 | 0.0 | 0.0 | 0.00 | 0.56 | 0.56 | 89 | 1010.9 |
| 20260505173351 | 54 | 352 | 0.0 | 0.0 | 0.00 | 0.56 | 0.56 | 89 | 1010.9 |
| 20260505173309 | 54 | 352 | 0.0 | 0.0 | 0.00 | 0.56 | 0.56 | 89 | 1010.9 |
| 20260505173250 | 54 | 351 | 0.0 | 0.0 | 0.00 | 0.56 | 0.56 | 89 | 1011.0 |
| 20260505173150 | 54 | 351 | 0.0 | 0.9 | 0.00 | 0.56 | 0.56 | 89 | 1011.0 |
| 20260505173050 | 54 | 351 | 0.0 | 0.9 | 0.00 | 0.56 | 0.56 | 89 | 1011.0 |
| 20260505173008 | 54 | 351 | 0.0 | 0.9 | 0.00 | 0.56 | 0.56 | 89 | 1011.0 |
| 20260505172949 | 54 | 351 | 0.0 | 0.9 | 0.00 | 0.56 | 0.56 | 89 | 1011.0 |
| 20260505172850 | 54 | 351 | 0.0 | 0.9 | 0.00 | 0.56 | 0.56 | 89 | 1010.9 |
| 20260505172750 | 54 | 352 | 0.0 | 0.9 | 0.00 | 0.56 | 0.56 | 89 | 1011.0 |
| 20260505172709 | 54 | 352 | 0.0 | 0.9 | 0.00 | 0.56 | 0.56 | 89 | 1011.0 |
| 20260505172651 | 54 | 352 | 0.0 | 0.9 | 0.00 | 0.56 | 0.56 | 89 | 1011.0 |
| 20260505172551 | 54 | 352 | 0.0 | 0.9 | 0.00 | 0.56 | 0.56 | 89 | 1011.0 |
| 20260505172451 | 54 | 352 | 0.0 | 0.9 | 0.00 | 0.56 | 0.56 | 89 | 1011.0 |
| 20260505172408 | 54 | 352 | 0.0 | 0.9 | 0.00 | 0.56 | 0.56 | 89 | 1011.0 |
| 20260505172350 | 54 | 1 | 0.0 | 0.9 | 0.00 | 0.56 | 0.56 | 90 | 1011.0 |
| 20260505172250 | 54 | 20 | 0.0 | 0.9 | 0.00 | 0.56 | 0.56 | 90 | 1011.0 |
| 20260505172150 | 54 | 44 | 0.0 | 0.9 | 0.00 | 0.56 | 0.56 | 90 | 1010.9 |
| 20260505172108 | 54 | 44 | 0.0 | 0.9 | 0.00 | 0.56 | 0.56 | 90 | 1010.9 |
| 20260505172050 | 54 | 69 | 0.0 | 0.9 | 0.00 | 0.56 | 0.56 | 89 | 1011.0 |
| 20260505171951 | 54 | 85 | 0.9 | 1.7 | 0.00 | 0.56 | 0.56 | 90 | 1011.0 |
| 20260505171850 | 54 | 95 | 0.9 | 1.7 | 0.00 | 0.56 | 0.56 | 89 | 1011.0 |
| 20260505171808 | 54 | 95 | 0.9 | 1.7 | 0.00 | 0.56 | 0.56 | 89 | 1011.0 |
| 20260505171750 | 54 | 104 | 0.9 | 1.7 | 0.00 | 0.56 | 0.56 | 89 | 1011.0 |
| 20260505171649 | 54 | 110 | 0.9 | 1.7 | 0.00 | 0.56 | 0.56 | 89 | 1011.0 |
| 20260505171549 | 54 | 115 | 0.9 | 1.7 | 0.00 | 0.56 | 0.56 | 89 | 1011.0 |
| 20260505171507 | 54 | 115 | 0.9 | 1.7 | 0.00 | 0.56 | 0.56 | 89 | 1011.0 |
| 20260505171451 | 54 | 121 | 0.9 | 1.7 | 0.00 | 0.56 | 0.56 | 89 | 1011.0 |
| 20260505171350 | 54 | 122 | 0.9 | 1.7 | 0.00 | 0.56 | 0.56 | 90 | 1011.1 |
| 20260505171250 | 54 | 123 | 0.9 | 1.7 | 0.00 | 0.56 | 0.56 | 89 | 1011.1 |
| 20260505171209 | 54 | 123 | 0.9 | 1.7 | 0.00 | 0.56 | 0.56 | 89 | 1011.1 |
| 20260505171151 | 54 | 124 | 0.9 | 1.7 | 0.00 | 0.56 | 0.56 | 89 | 1011.1 |
| 20260505171051 | 54 | 125 | 0.9 | 1.7 | 0.00 | 0.56 | 0.56 | 89 | 1011.1 |
| 20260505170951 | 54 | 125 | 0.0 | 1.7 | 0.00 | 0.56 | 0.56 | 90 | 1011.0 |
| 20260505170908 | 54 | 125 | 0.0 | 1.7 | 0.00 | 0.56 | 0.56 | 90 | 1011.0 |
| 20260505170849 | 54 | 126 | 0.0 | 0.9 | 0.00 | 0.56 | 0.56 | 89 | 1011.1 |
| 20260505170751 | 54 | 126 | 0.0 | 0.9 | 0.00 | 0.56 | 0.56 | 89 | 1011.1 |
| 20260505170651 | 54 | 126 | 0.0 | 0.9 | 0.00 | 0.56 | 0.56 | 89 | 1011.0 |
| 20260505170609 | 54 | 126 | 0.0 | 0.9 | 0.00 | 0.56 | 0.56 | 89 | 1011.0 |
| 20260505170551 | 54 | 126 | 0.0 | 0.9 | 0.00 | 0.56 | 0.56 | 89 | 1011.0 |
| 20260505170451 | 54 | 125 | 0.0 | 0.9 | 0.00 | 0.56 | 0.56 | 89 | 1011.1 |
| 20260505170350 | 54 | 125 | 0.0 | 0.9 | 0.00 | 0.56 | 0.56 | 89 | 1011.1 |
| 20260505170308 | 54 | 125 | 0.0 | 0.9 | 0.00 | 0.56 | 0.56 | 89 | 1011.1 |
| 20260505170250 | 54 | 124 | 0.0 | 0.9 | 0.00 | 0.56 | 0.56 | 89 | 1011.1 |
| 20260505170150 | 54 | 123 | 0.0 | 0.9 | 0.00 | 0.56 | 0.56 | 89 | 1011.1 |
| 20260505170050 | 54 | 123 | 0.0 | 0.0 | 0.00 | 0.56 | 0.56 | 89 | 1011.2 |
| 20260505170007 | 54 | 123 | 0.0 | 0.0 | 0.00 | 0.56 | 0.56 | 89 | 1011.2 |
| 20260505165949 | 54 | 123 | 0.0 | 0.0 | 0.00 | 0.56 | 0.56 | 89 | 1011.1 |
| 20260505165851 | 54 | 123 | 0.0 | 0.9 | 0.00 | 0.56 | 0.56 | 89 | 1011.2 |
| 20260505165751 | 54 | 123 | 0.0 | 0.9 | 0.00 | 0.56 | 0.56 | 89 | 1011.2 |
| 20260505165708 | 54 | 123 | 0.0 | 0.9 | 0.00 | 0.56 | 0.56 | 89 | 1011.2 |
| 20260505165650 | 54 | 123 | 0.0 | 0.9 | 0.00 | 0.56 | 0.56 | 90 | 1011.1 |
| 20260505165550 | 54 | 123 | 0.0 | 0.9 | 0.00 | 0.56 | 0.56 | 90 | 1011.1 |
| 20260505165450 | 54 | 123 | 0.0 | 0.9 | 0.00 | 0.56 | 0.56 | 90 | 1011.1 |
| 20260505165408 | 54 | 123 | 0.0 | 0.9 | 0.00 | 0.56 | 0.56 | 90 | 1011.1 |
| 20260505165349 | 54 | 123 | 0.0 | 0.9 | 0.00 | 0.56 | 0.56 | 89 | 1011.2 |
| 20260505165249 | 54 | 123 | 0.0 | 0.9 | 0.00 | 0.56 | 0.56 | 89 | 1011.1 |
| 20260505165149 | 54 | 123 | 0.0 | 0.9 | 0.00 | 0.56 | 0.56 | 89 | 1011.1 |
| 20260505165109 | 54 | 124 | 0.0 | 0.9 | 0.00 | 0.56 | 0.56 | 89 | 1011.1 |
| 20260505165051 | 54 | 124 | 0.0 | 0.9 | 0.00 | 0.56 | 0.56 | 89 | 1011.1 |
| 20260505164951 | 54 | 124 | 0.0 | 0.9 | 0.00 | 0.56 | 0.56 | 89 | 1011.1 |
| 20260505164849 | 54 | 125 | 0.0 | 0.0 | 0.00 | 0.56 | 0.56 | 89 | 1011.2 |
| 20260505164809 | 54 | 125 | 0.0 | 0.0 | 0.00 | 0.56 | 0.56 | 89 | 1011.2 |
| 20260505164751 | 54 | 125 | 0.0 | 0.0 | 0.00 | 0.56 | 0.56 | 89 | 1011.1 |
| 20260505164651 | 54 | 125 | 0.0 | 0.0 | 0.00 | 0.56 | 0.56 | 89 | 1011.2 |
| 20260505164551 | 54 | 125 | 0.0 | 0.0 | 0.00 | 0.56 | 0.56 | 89 | 1011.2 |
| 20260505164508 | 54 | 125 | 0.0 | 0.0 | 0.00 | 0.56 | 0.56 | 89 | 1011.2 |
| 20260505164450 | 54 | 125 | 0.0 | 0.0 | 0.00 | 0.56 | 0.56 | 89 | 1011.2 |
| 20260505164349 | 54 | 125 | 0.0 | 0.0 | 0.00 | 0.56 | 0.56 | 89 | 1011.1 |
| 20260505164249 | 54 | 125 | 0.0 | 0.0 | 0.00 | 0.56 | 0.56 | 89 | 1011.2 |
| 20260505164207 | 54 | 125 | 0.0 | 0.0 | 0.00 | 0.56 | 0.56 | 89 | 1011.2 |
| 20260505164149 | 54 | 125 | 0.0 | 0.0 | 0.00 | 0.56 | 0.56 | 89 | 1011.2 |
| 20260505164049 | 54 | 125 | 0.0 | 0.0 | 0.00 | 0.56 | 0.56 | 89 | 1011.2 |
| 20260505163949 | 54 | 125 | 0.0 | 0.0 | 0.00 | 0.56 | 0.56 | 89 | 1011.2 |
| 20260505163908 | 54 | 125 | 0.0 | 0.0 | 0.00 | 0.56 | 0.56 | 89 | 1011.2 |
| 20260505163850 | 54 | 125 | 0.0 | 0.0 | 0.00 | 0.56 | 0.56 | 89 | 1011.2 |
| 20260505163750 | 54 | 126 | 0.0 | 0.0 | 0.00 | 0.56 | 0.56 | 89 | 1011.2 |
| 20260505163650 | 54 | 126 | 0.0 | 0.0 | 0.00 | 0.56 | 0.56 | 89 | 1011.2 |
| 20260505163608 | 54 | 126 | 0.0 | 0.0 | 0.00 | 0.56 | 0.56 | 89 | 1011.2 |
| 20260505163550 | 54 | 127 | 0.0 | 0.0 | 0.00 | 0.56 | 0.56 | 89 | 1011.2 |
| 20260505163450 | 54 | 128 | 0.0 | 0.0 | 0.00 | 0.56 | 0.56 | 89 | 1011.2 |
| 20260505163350 | 54 | 129 | 0.0 | 0.0 | 0.00 | 0.56 | 0.56 | 89 | 1011.2 |
| 20260505163308 | 54 | 129 | 0.0 | 0.0 | 0.00 | 0.56 | 0.56 | 89 | 1011.2 |
| 20260505163250 | 54 | 126 | 0.0 | 0.0 | 0.00 | 0.56 | 0.56 | 88 | 1011.2 |
| 20260505163150 | 54 | 92 | 0.0 | 0.0 | 0.00 | 0.56 | 0.56 | 88 | 1011.3 |
| 20260505163050 | 54 | 75 | 0.0 | 0.0 | 0.00 | 0.56 | 0.56 | 88 | 1011.2 |
| 20260505163009 | 54 | 75 | 0.0 | 0.0 | 0.00 | 0.56 | 0.56 | 88 | 1011.2 |
| 20260505162949 | 54 | 72 | 0.0 | 0.0 | 0.00 | 0.56 | 0.56 | 88 | 1011.4 |
| 20260505162851 | 54 | 62 | 0.0 | 0.0 | 0.00 | 0.56 | 0.56 | 88 | 1011.2 |
| 20260505162751 | 54 | 48 | 0.0 | 0.0 | 0.00 | 0.56 | 0.56 | 88 | 1011.3 |
| 20260505162708 | 54 | 48 | 0.0 | 0.0 | 0.00 | 0.56 | 0.56 | 88 | 1011.3 |
| 20260505162650 | 54 | 43 | 0.0 | 0.0 | 0.00 | 0.56 | 0.56 | 88 | 1011.2 |
| 20260505162550 | 54 | 26 | 0.0 | 0.0 | 0.00 | 0.56 | 0.56 | 88 | 1011.2 |
| 20260505162449 | 54 | 21 | 0.0 | 0.0 | 0.00 | 0.56 | 0.56 | 88 | 1011.2 |
| 20260505162409 | 54 | 21 | 0.0 | 0.0 | 0.00 | 0.56 | 0.56 | 88 | 1011.2 |
| 20260505162351 | 54 | 20 | 0.0 | 0.0 | 0.00 | 0.56 | 0.56 | 88 | 1011.2 |
| 20260505162250 | 54 | 15 | 0.0 | 0.0 | 0.00 | 0.56 | 0.56 | 88 | 1011.4 |
| 20260505162150 | 54 | 26 | 0.0 | 0.0 | 0.00 | 0.56 | 0.56 | 88 | 1011.2 |
| 20260505162108 | 54 | 26 | 0.0 | 0.0 | 0.00 | 0.56 | 0.56 | 88 | 1011.2 |
| 20260505162050 | 54 | 35 | 0.0 | 0.0 | 0.00 | 0.56 | 0.56 | 88 | 1011.4 |
| 20260505161950 | 54 | 36 | 0.0 | 0.0 | 0.00 | 0.56 | 0.56 | 88 | 1011.3 |
| 20260505161850 | 54 | 42 | 0.0 | 0.0 | 0.00 | 0.56 | 0.56 | 88 | 1011.3 |
| 20260505161808 | 54 | 42 | 0.0 | 0.0 | 0.00 | 0.56 | 0.56 | 88 | 1011.3 |
| 20260505161750 | 54 | 57 | 0.0 | 0.0 | 0.00 | 0.56 | 0.56 | 88 | 1011.3 |
| 20260505161650 | 54 | 67 | 0.0 | 0.0 | 0.00 | 0.56 | 0.56 | 87 | 1011.3 |
| 20260505161550 | 54 | 75 | 0.0 | 0.0 | 0.00 | 0.56 | 0.56 | 87 | 1011.3 |
| 20260505161507 | 54 | 75 | 0.0 | 0.0 | 0.00 | 0.56 | 0.56 | 87 | 1011.3 |
| 20260505161449 | 54 | 81 | 0.0 | 0.0 | 0.00 | 0.56 | 0.56 | 87 | 1011.4 |
| 20260505161350 | 54 | 88 | 0.0 | 0.0 | 0.00 | 0.56 | 0.56 | 88 | 1011.3 |
| 20260505161250 | 54 | 89 | 0.0 | 0.0 | 0.00 | 0.56 | 0.56 | 87 | 1011.3 |
| 20260505161208 | 54 | 89 | 0.0 | 0.0 | 0.00 | 0.56 | 0.56 | 87 | 1011.3 |
| 20260505161150 | 54 | 89 | 0.0 | 0.0 | 0.00 | 0.56 | 0.56 | 87 | 1011.3 |
| 20260505161050 | 54 | 95 | 0.0 | 0.0 | 0.00 | 0.56 | 0.56 | 87 | 1011.2 |
| 20260505160950 | 54 | 99 | 0.0 | 0.0 | 0.00 | 0.56 | 0.56 | 87 | 1011.2 |
| 20260505160907 | 54 | 111 | 0.0 | 0.0 | 0.00 | 0.56 | 0.56 | 87 | 1011.2 |
| 20260505160851 | 54 | 111 | 0.0 | 0.0 | 0.00 | 0.56 | 0.56 | 87 | 1011.2 |
| 20260505160751 | 54 | 111 | 0.0 | 0.0 | 0.00 | 0.56 | 0.56 | 87 | 1011.3 |
| 20260505160651 | 54 | 110 | 0.0 | 0.0 | 0.00 | 0.56 | 0.56 | 87 | 1011.2 |
| 20260505160608 | 54 | 110 | 0.0 | 0.0 | 0.00 | 0.56 | 0.56 | 87 | 1011.2 |
| 20260505160550 | 54 | 108 | 0.0 | 0.0 | 0.00 | 0.56 | 0.56 | 88 | 1011.3 |
| 20260505160449 | 54 | 106 | 0.0 | 0.0 | 0.00 | 0.56 | 0.56 | 87 | 1011.3 |
| 20260505160350 | 54 | 98 | 0.0 | 0.0 | 0.00 | 0.56 | 0.56 | 87 | 1011.2 |
| 20260505160308 | 54 | 98 | 0.0 | 0.0 | 0.00 | 0.56 | 0.56 | 87 | 1011.2 |
| 20260505160250 | 54 | 95 | 0.0 | 0.0 | 0.00 | 0.56 | 0.56 | 88 | 1011.3 |
| 20260505160150 | 54 | 95 | 0.0 | 0.0 | 0.00 | 0.56 | 0.56 | 88 | 1011.4 |
| 20260505153350 | 54 | 27 | 0.0 | 1.7 | 0.00 | 0.56 | 0.56 | 87 | 1011.6 |
| 20260505153308 | 54 | 27 | 0.0 | 1.7 | 0.00 | 0.56 | 0.56 | 87 | 1011.6 |
| 20260505153250 | 54 | 21 | 0.0 | 1.7 | 0.00 | 0.56 | 0.56 | 88 | 1011.6 |
| 20260505153150 | 54 | 10 | 0.0 | 1.7 | 0.00 | 0.56 | 0.56 | 88 | 1011.6 |
| 20260505153050 | 54 | 6 | 0.0 | 1.7 | 0.00 | 0.56 | 0.56 | 88 | 1011.6 |
| 20260505153008 | 54 | 6 | 0.0 | 1.7 | 0.00 | 0.56 | 0.56 | 88 | 1011.5 |
| 20260505152949 | 54 | 6 | 0.0 | 1.7 | 0.00 | 0.56 | 0.56 | 88 | 1011.5 |
| 20260505152849 | 54 | 6 | 0.0 | 1.7 | 0.00 | 0.56 | 0.56 | 88 | 1011.5 |
| 20260505152751 | 54 | 6 | 0.0 | 1.7 | 0.00 | 0.56 | 0.56 | 88 | 1011.5 |
| 20260505152709 | 54 | 6 | 0.0 | 1.7 | 0.00 | 0.56 | 0.56 | 88 | 1011.5 |
| 20260505152651 | 54 | 6 | 0.0 | 1.7 | 0.00 | 0.56 | 0.56 | 87 | 1011.4 |
| 20260505152551 | 54 | 2 | 0.0 | 1.7 | 0.00 | 0.56 | 0.56 | 88 | 1011.6 |
| 20260505152451 | 54 | 342 | 0.0 | 0.9 | 0.00 | 0.56 | 0.56 | 88 | 1011.5 |
| 20260505152408 | 54 | 342 | 0.0 | 0.9 | 0.00 | 0.56 | 0.56 | 88 | 1011.5 |
| 20260505152350 | 54 | 335 | 0.0 | 0.9 | 0.00 | 0.56 | 0.56 | 88 | 1011.6 |
| 20260505152250 | 54 | 337 | 0.0 | 0.9 | 0.00 | 0.56 | 0.56 | 88 | 1011.5 |
| 20260505152150 | 54 | 352 | 0.0 | 0.9 | 0.00 | 0.56 | 0.56 | 88 | 1011.5 |
| 20260505152107 | 54 | 352 | 0.0 | 0.9 | 0.00 | 0.56 | 0.56 | 88 | 1011.5 |
| 20260505152049 | 54 | 355 | 0.0 | 0.9 | 0.00 | 0.56 | 0.56 | 88 | 1011.4 |
| 20260505151951 | 54 | 352 | 0.0 | 0.9 | 0.00 | 0.56 | 0.56 | 88 | 1011.6 |
| 20260505151849 | 54 | 351 | 0.0 | 0.9 | 0.00 | 0.56 | 0.56 | 88 | 1011.5 |
| 20260505151807 | 54 | 351 | 0.0 | 0.9 | 0.00 | 0.56 | 0.56 | 88 | 1011.5 |
| 20260505151749 | 54 | 348 | 0.0 | 0.9 | 0.00 | 0.56 | 0.56 | 88 | 1011.5 |
| 20260505151650 | 54 | 343 | 0.0 | 0.9 | 0.00 | 0.56 | 0.56 | 88 | 1011.6 |
| 20260505151550 | 54 | 340 | 0.0 | 0.9 | 0.00 | 0.56 | 0.56 | 89 | 1011.6 |
| 20260505151508 | 54 | 340 | 0.0 | 0.9 | 0.00 | 0.56 | 0.56 | 89 | 1011.6 |
| 20260505151450 | 54 | 329 | 0.0 | 0.9 | 0.00 | 0.56 | 0.56 | 88 | 1011.6 |
| 20260505151350 | 54 | 326 | 0.0 | 0.9 | 0.00 | 0.56 | 0.56 | 88 | 1011.6 |
| 20260505151249 | 54 | 318 | 0.0 | 0.9 | 0.00 | 0.56 | 0.56 | 88 | 1011.5 |
| 20260505151209 | 54 | 318 | 0.0 | 0.9 | 0.00 | 0.56 | 0.56 | 88 | 1011.5 |
| 20260505151151 | 54 | 274 | 0.0 | 0.9 | 0.00 | 0.56 | 0.56 | 88 | 1011.6 |
| 20260505151051 | 54 | 260 | 0.0 | 0.9 | 0.00 | 0.56 | 0.56 | 88 | 1011.5 |
| 20260505150951 | 54 | 232 | 0.0 | 0.9 | 0.00 | 0.56 | 0.56 | 89 | 1011.6 |
| 20260505150908 | 54 | 232 | 0.0 | 0.9 | 0.00 | 0.56 | 0.56 | 89 | 1011.6 |
| 20260505150850 | 54 | 225 | 0.0 | 0.9 | 0.00 | 0.56 | 0.56 | 89 | 1011.5 |
| 20260505150750 | 54 | 217 | 0.0 | 0.9 | 0.00 | 0.56 | 0.56 | 89 | 1011.5 |
| 20260505150650 | 54 | 217 | 0.0 | 0.9 | 0.00 | 0.56 | 0.56 | 89 | 1011.5 |
| 20260505150607 | 54 | 217 | 0.0 | 0.9 | 0.00 | 0.56 | 0.56 | 89 | 1011.5 |
| 20260505150549 | 54 | 217 | 0.0 | 0.9 | 0.00 | 0.56 | 0.56 | 88 | 1011.6 |
| 20260505150452 | 54 | 218 | 0.0 | 0.9 | 0.00 | 0.56 | 0.56 | 88 | 1011.6 |
| 20260505150350 | 54 | 218 | 0.0 | 0.9 | 0.00 | 0.56 | 0.56 | 89 | 1011.4 |
| 20260505150308 | 54 | 218 | 0.0 | 0.9 | 0.00 | 0.56 | 0.56 | 89 | 1011.4 |
| 20260505150250 | 54 | 218 | 0.0 | 0.9 | 0.00 | 0.56 | 0.56 | 89 | 1011.5 |
| 20260505150150 | 54 | 219 | 0.0 | 0.0 | 0.00 | 0.56 | 0.56 | 89 | 1011.5 |
| 20260505140651 | 53 | 356 | 0.9 | 2.6 | 0.01 | 0.56 | 0.56 | 90 | 1011.8 |
| 20260505140608 | 53 | 356 | 0.9 | 2.6 | 0.01 | 0.56 | 0.56 | 90 | 1011.8 |
| 20260505140550 | 53 | 356 | 0.9 | 2.6 | 0.01 | 0.56 | 0.56 | 90 | 1011.8 |
| 20260505140449 | 53 | 355 | 0.9 | 2.6 | 0.01 | 0.56 | 0.56 | 90 | 1011.7 |
| 20260505140350 | 53 | 352 | 0.9 | 2.6 | 0.01 | 0.56 | 0.56 | 90 | 1011.7 |
| 20260505140307 | 53 | 352 | 0.9 | 2.6 | 0.01 | 0.56 | 0.56 | 90 | 1011.7 |
| 20260505140249 | 53 | 350 | 0.9 | 2.6 | 0.01 | 0.56 | 0.56 | 90 | 1011.7 |
| 20260505140149 | 53 | 353 | 0.9 | 2.6 | 0.01 | 0.56 | 0.56 | 90 | 1011.8 |
| 20260505130308 | 54 | 9 | 1.7 | 3.5 | 0.00 | 0.55 | 0.55 | 89 | 1012.1 |
| 20260505130250 | 54 | 9 | 1.7 | 3.5 | 0.00 | 0.55 | 0.55 | 89 | 1012.1 |
| 20260505130150 | 54 | 6 | 1.7 | 3.5 | 0.00 | 0.55 | 0.55 | 89 | 1012.2 |
| 20260505124951 | 54 | 2 | 0.9 | 2.6 | 0.01 | 0.55 | 0.55 | 89 | 1012.2 |
| 20260505124850 | 54 | 1 | 0.9 | 3.5 | 0.00 | 0.54 | 0.54 | 89 | 1012.1 |
| 20260505124807 | 54 | 1 | 0.9 | 3.5 | 0.00 | 0.54 | 0.54 | 89 | 1012.1 |
| 20260505124749 | 54 | 359 | 1.7 | 3.5 | 0.00 | 0.54 | 0.54 | 89 | 1012.2 |
| 20260505124649 | 54 | 357 | 1.7 | 5.2 | 0.00 | 0.54 | 0.54 | 89 | 1012.1 |
| 20260505124549 | 54 | 357 | 1.7 | 5.2 | 0.00 | 0.54 | 0.54 | 89 | 1012.1 |
| 20260505124507 | 54 | 357 | 1.7 | 5.2 | 0.00 | 0.54 | 0.54 | 89 | 1012.1 |
| 20260505124449 | 54 | 357 | 1.7 | 5.2 | 0.00 | 0.54 | 0.54 | 89 | 1012.1 |
| 20260505124350 | 54 | 358 | 1.7 | 5.2 | 0.00 | 0.54 | 0.54 | 89 | 1012.1 |
| 20260505124250 | 54 | 357 | 1.7 | 5.2 | 0.00 | 0.54 | 0.54 | 89 | 1012.1 |
| 20260505124207 | 54 | 357 | 1.7 | 5.2 | 0.00 | 0.54 | 0.54 | 89 | 1012.1 |
| 20260505124149 | 54 | 356 | 1.7 | 5.2 | 0.00 | 0.54 | 0.54 | 89 | 1012.1 |
| 20260505124049 | 54 | 355 | 1.7 | 5.2 | 0.00 | 0.54 | 0.54 | 89 | 1012.0 |
| 20260505123949 | 54 | 355 | 1.7 | 5.2 | 0.00 | 0.54 | 0.54 | 88 | 1012.0 |
| 20260505123908 | 54 | 356 | 1.7 | 5.2 | 0.00 | 0.54 | 0.54 | 88 | 1012.0 |
| 20260505123850 | 54 | 356 | 1.7 | 5.2 | 0.00 | 0.54 | 0.54 | 88 | 1012.0 |
| 20260505123750 | 54 | 357 | 1.7 | 5.2 | 0.00 | 0.54 | 0.54 | 88 | 1012.0 |
| 20260505123650 | 54 | 359 | 1.7 | 5.2 | 0.00 | 0.54 | 0.54 | 89 | 1012.0 |
| 20260505123608 | 54 | 359 | 1.7 | 5.2 | 0.00 | 0.54 | 0.54 | 89 | 1012.0 |
| 20260505123550 | 54 | 358 | 1.7 | 5.2 | 0.00 | 0.54 | 0.54 | 88 | 1012.0 |
| 20260505123450 | 54 | 358 | 1.7 | 5.2 | 0.00 | 0.54 | 0.54 | 89 | 1012.1 |
| 20260505123350 | 54 | 356 | 1.7 | 5.2 | 0.00 | 0.54 | 0.54 | 89 | 1012.1 |
| 20260505123308 | 54 | 356 | 1.7 | 5.2 | 0.00 | 0.54 | 0.54 | 89 | 1012.1 |
| 20260505123250 | 54 | 354 | 2.6 | 5.2 | 0.00 | 0.54 | 0.54 | 88 | 1011.9 |
| 20260505123150 | 54 | 356 | 2.6 | 5.2 | 0.00 | 0.54 | 0.54 | 88 | 1012.0 |
| 20260505123050 | 54 | 356 | 2.6 | 5.2 | 0.00 | 0.54 | 0.54 | 88 | 1011.9 |
| 20260505123007 | 54 | 356 | 2.6 | 5.2 | 0.00 | 0.54 | 0.54 | 88 | 1011.9 |
| 20260505122952 | 54 | 356 | 2.6 | 6.1 | 0.00 | 0.54 | 0.54 | 88 | 1011.9 |
| 20260505122850 | 54 | 355 | 2.6 | 6.1 | 0.00 | 0.54 | 0.54 | 89 | 1011.9 |
| 20260505122750 | 54 | 356 | 2.6 | 6.1 | 0.00 | 0.54 | 0.54 | 88 | 1011.9 |
| 20260505122708 | 54 | 356 | 2.6 | 6.1 | 0.00 | 0.54 | 0.54 | 88 | 1011.9 |
| 20260505122650 | 54 | 355 | 2.6 | 6.1 | 0.00 | 0.54 | 0.54 | 88 | 1011.9 |
| 20260505122550 | 54 | 355 | 2.6 | 6.1 | 0.00 | 0.54 | 0.54 | 88 | 1012.0 |
| 20260505122450 | 54 | 355 | 2.6 | 6.1 | 0.00 | 0.54 | 0.54 | 88 | 1012.0 |
| 20260505122407 | 54 | 355 | 2.6 | 6.1 | 0.00 | 0.54 | 0.54 | 88 | 1012.0 |
| 20260505122349 | 54 | 357 | 2.6 | 6.1 | 0.00 | 0.54 | 0.54 | 88 | 1012.0 |
| 20260505122249 | 54 | 1 | 2.6 | 6.1 | 0.00 | 0.54 | 0.54 | 88 | 1012.0 |
| 20260505122149 | 54 | 359 | 2.6 | 6.1 | 0.00 | 0.54 | 0.54 | 88 | 1012.1 |
| 20260505122109 | 54 | 359 | 2.6 | 6.1 | 0.00 | 0.54 | 0.54 | 88 | 1012.1 |
| 20260505122051 | 54 | 359 | 2.6 | 6.1 | 0.00 | 0.54 | 0.54 | 88 | 1012.1 |
| 20260505121951 | 54 | 358 | 2.6 | 6.1 | 0.00 | 0.54 | 0.54 | 88 | 1012.0 |
| 20260505121849 | 54 | 358 | 2.6 | 5.2 | 0.00 | 0.54 | 0.54 | 88 | 1012.0 |
| 20260505121808 | 54 | 358 | 2.6 | 5.2 | 0.00 | 0.54 | 0.54 | 88 | 1012.0 |
| 20260505121750 | 54 | 357 | 2.6 | 5.2 | 0.00 | 0.54 | 0.54 | 88 | 1012.1 |
| 20260505121650 | 54 | 357 | 2.6 | 5.2 | 0.00 | 0.54 | 0.54 | 88 | 1012.1 |
| 20260505121550 | 54 | 357 | 1.7 | 5.2 | 0.00 | 0.54 | 0.54 | 88 | 1012.0 |
| 20260505121508 | 54 | 357 | 1.7 | 5.2 | 0.00 | 0.54 | 0.54 | 88 | 1012.0 |
| 20260505121450 | 54 | 358 | 1.7 | 5.2 | 0.00 | 0.54 | 0.54 | 88 | 1012.0 |
| 20260505121351 | 54 | 358 | 1.7 | 5.2 | 0.00 | 0.54 | 0.54 | 88 | 1012.0 |
| 20260505121251 | 54 | 355 | 1.7 | 5.2 | 0.00 | 0.54 | 0.54 | 88 | 1012.0 |
| 20260505121208 | 54 | 355 | 1.7 | 5.2 | 0.00 | 0.54 | 0.54 | 88 | 1012.0 |
| 20260505121150 | 54 | 358 | 1.7 | 5.2 | 0.00 | 0.54 | 0.54 | 88 | 1012.1 |
| 20260505121050 | 54 | 358 | 1.7 | 5.2 | 0.00 | 0.54 | 0.54 | 88 | 1012.1 |
| 20260505120950 | 54 | 6 | 1.7 | 5.2 | 0.01 | 0.54 | 0.54 | 88 | 1011.9 |
| 20260505120908 | 54 | 6 | 1.7 | 5.2 | 0.01 | 0.54 | 0.54 | 88 | 1011.9 |
| 20260505120849 | 54 | 8 | 1.7 | 5.2 | 0.01 | 0.54 | 0.54 | 88 | 1012.0 |
| 20260505120749 | 54 | 12 | 1.7 | 3.5 | 0.01 | 0.54 | 0.54 | 88 | 1012.0 |
| 20260505120649 | 54 | 14 | 1.7 | 3.5 | 0.01 | 0.54 | 0.54 | 88 | 1012.0 |
| 20260505120607 | 54 | 14 | 1.7 | 3.5 | 0.01 | 0.54 | 0.54 | 88 | 1012.0 |
| 20260505120549 | 54 | 16 | 1.7 | 6.1 | 0.01 | 0.54 | 0.54 | 88 | 1012.0 |
| 20260505120451 | 54 | 12 | 1.7 | 6.1 | 0.01 | 0.54 | 0.54 | 88 | 1012.0 |
| 20260505120350 | 54 | 11 | 1.7 | 6.1 | 0.01 | 0.54 | 0.54 | 88 | 1012.1 |
| 20260505120308 | 54 | 11 | 1.7 | 6.1 | 0.01 | 0.54 | 0.54 | 88 | 1012.1 |
| 20260505120250 | 54 | 12 | 1.7 | 6.1 | 0.01 | 0.54 | 0.54 | 88 | 1012.0 |
| 20260505120150 | 54 | 10 | 2.6 | 6.1 | 0.01 | 0.54 | 0.54 | 88 | 1012.1 |
| 20260505120049 | 54 | 9 | 2.6 | 6.1 | 0.01 | 0.54 | 0.54 | 88 | 1012.1 |
| 20260505120007 | 54 | 9 | 2.6 | 6.1 | 0.01 | 0.54 | 0.54 | 88 | 1012.1 |
| 20260505115951 | 54 | 9 | 2.6 | 6.1 | 0.01 | 0.54 | 0.54 | 88 | 1012.2 |
| 20260505115850 | 54 | 10 | 2.6 | 6.1 | 0.01 | 0.54 | 0.54 | 88 | 1012.1 |
| 20260505115750 | 54 | 8 | 2.6 | 6.1 | 0.01 | 0.54 | 0.54 | 88 | 1012.1 |
| 20260505115708 | 54 | 10 | 3.5 | 6.1 | 0.01 | 0.54 | 0.54 | 88 | 1012.1 |
| 20260505115650 | 54 | 10 | 3.5 | 6.1 | 0.01 | 0.54 | 0.54 | 88 | 1012.1 |
| 20260505115550 | 54 | 9 | 2.6 | 6.1 | 0.00 | 0.53 | 0.53 | 88 | 1012.1 |
| 20260505115450 | 54 | 11 | 3.5 | 5.2 | 0.00 | 0.53 | 0.53 | 88 | 1012.1 |
| 20260505115408 | 54 | 11 | 3.5 | 5.2 | 0.00 | 0.53 | 0.53 | 88 | 1012.1 |
| 20260505115349 | 54 | 10 | 2.6 | 5.2 | 0.00 | 0.53 | 0.53 | 88 | 1012.2 |
| 20260505115249 | 54 | 10 | 3.5 | 6.1 | 0.00 | 0.53 | 0.53 | 88 | 1012.1 |
| 20260505115149 | 54 | 10 | 3.5 | 6.1 | 0.00 | 0.53 | 0.53 | 88 | 1012.1 |
| 20260505115107 | 54 | 10 | 3.5 | 6.1 | 0.00 | 0.53 | 0.53 | 88 | 1012.1 |
| 20260505115049 | 54 | 10 | 3.5 | 6.1 | 0.00 | 0.53 | 0.53 | 87 | 1012.1 |
| 20260505114951 | 54 | 7 | 3.5 | 6.1 | 0.00 | 0.53 | 0.53 | 88 | 1012.0 |
| 20260505114849 | 55 | 5 | 3.5 | 6.1 | 0.00 | 0.53 | 0.53 | 88 | 1012.1 |
| 20260505114807 | 55 | 5 | 3.5 | 6.1 | 0.00 | 0.53 | 0.53 | 88 | 1012.1 |
| 20260505114749 | 55 | 4 | 3.5 | 6.1 | 0.00 | 0.53 | 0.53 | 88 | 1012.1 |
| 20260505114651 | 55 | 2 | 3.5 | 6.1 | 0.00 | 0.53 | 0.53 | 88 | 1012.1 |
| 20260505114551 | 55 | 3 | 3.5 | 6.1 | 0.00 | 0.53 | 0.53 | 88 | 1012.1 |
| 20260505114509 | 55 | 3 | 3.5 | 6.1 | 0.00 | 0.53 | 0.53 | 88 | 1012.1 |
| 20260505114449 | 55 | 3 | 3.5 | 6.1 | 0.00 | 0.53 | 0.53 | 87 | 1012.1 |
| 20260505114349 | 55 | 4 | 3.5 | 6.1 | 0.00 | 0.53 | 0.53 | 87 | 1012.2 |
| 20260505114251 | 55 | 3 | 2.6 | 6.1 | 0.00 | 0.53 | 0.53 | 87 | 1012.1 |
| 20260505114208 | 55 | 3 | 2.6 | 6.1 | 0.00 | 0.53 | 0.53 | 87 | 1012.1 |
| 20260505114150 | 55 | 3 | 2.6 | 6.1 | 0.00 | 0.53 | 0.53 | 88 | 1012.1 |
| 20260505114050 | 55 | 1 | 3.5 | 6.1 | 0.00 | 0.53 | 0.53 | 87 | 1012.2 |
| 20260505113950 | 55 | 359 | 3.5 | 6.1 | 0.00 | 0.53 | 0.53 | 87 | 1012.2 |
| 20260505113908 | 55 | 359 | 3.5 | 6.1 | 0.00 | 0.53 | 0.53 | 87 | 1012.2 |
| 20260505113849 | 55 | 358 | 2.6 | 6.1 | 0.00 | 0.53 | 0.53 | 87 | 1012.2 |
| 20260505113749 | 55 | 358 | 2.6 | 6.1 | 0.00 | 0.53 | 0.53 | 88 | 1012.2 |
| 20260505113650 | 55 | 1 | 2.6 | 6.1 | 0.00 | 0.53 | 0.53 | 87 | 1012.1 |
| 20260505113607 | 55 | 1 | 2.6 | 6.1 | 0.00 | 0.53 | 0.53 | 87 | 1012.1 |
| 20260505113549 | 55 | 359 | 1.7 | 5.2 | 0.00 | 0.53 | 0.53 | 87 | 1012.1 |
| 20260505113449 | 55 | 358 | 1.7 | 5.2 | 0.00 | 0.53 | 0.53 | 87 | 1012.1 |
| 20260505113350 | 55 | 358 | 1.7 | 5.2 | 0.00 | 0.53 | 0.53 | 87 | 1012.2 |
| 20260505113307 | 55 | 358 | 1.7 | 5.2 | 0.00 | 0.53 | 0.53 | 87 | 1012.2 |
| 20260505113249 | 55 | 359 | 1.7 | 5.2 | 0.00 | 0.53 | 0.53 | 87 | 1012.1 |
| 20260505113149 | 55 | 358 | 1.7 | 5.2 | 0.00 | 0.53 | 0.53 | 87 | 1012.1 |
| 20260505113049 | 55 | 3 | 1.7 | 5.2 | 0.00 | 0.53 | 0.53 | 87 | 1012.1 |
| 20260505113007 | 55 | 3 | 1.7 | 5.2 | 0.00 | 0.53 | 0.53 | 87 | 1012.1 |
| 20260505112951 | 55 | 11 | 1.7 | 3.5 | 0.00 | 0.53 | 0.53 | 87 | 1012.2 |
| 20260505112850 | 55 | 16 | 1.7 | 3.5 | 0.00 | 0.53 | 0.53 | 87 | 1012.2 |
| 20260505112750 | 55 | 15 | 1.7 | 3.5 | 0.00 | 0.53 | 0.53 | 87 | 1012.2 |
| 20260505112707 | 55 | 15 | 1.7 | 3.5 | 0.00 | 0.53 | 0.53 | 87 | 1012.2 |
| 20260505112649 | 55 | 16 | 1.7 | 5.2 | 0.00 | 0.53 | 0.53 | 86 | 1012.2 |
| 20260505112549 | 55 | 25 | 1.7 | 5.2 | 0.00 | 0.53 | 0.53 | 86 | 1012.2 |
| 20260505112451 | 55 | 36 | 1.7 | 5.2 | 0.00 | 0.53 | 0.53 | 86 | 1012.1 |
| 20260505112408 | 55 | 36 | 1.7 | 5.2 | 0.00 | 0.53 | 0.53 | 86 | 1012.1 |
| 20260505112350 | 55 | 46 | 1.7 | 5.2 | 0.00 | 0.53 | 0.53 | 86 | 1012.2 |
| 20260505112249 | 55 | 58 | 1.7 | 5.2 | 0.00 | 0.53 | 0.53 | 86 | 1012.2 |
| 20260505112151 | 55 | 61 | 1.7 | 5.2 | 0.00 | 0.53 | 0.53 | 86 | 1012.1 |
| 20260505112108 | 55 | 61 | 1.7 | 5.2 | 0.00 | 0.53 | 0.53 | 86 | 1012.1 |
| 20260505112050 | 56 | 69 | 1.7 | 5.2 | 0.00 | 0.53 | 0.53 | 86 | 1012.1 |
| 20260505111950 | 56 | 68 | 1.7 | 5.2 | 0.00 | 0.53 | 0.53 | 86 | 1012.2 |
| 20260505111851 | 56 | 68 | 1.7 | 5.2 | 0.00 | 0.53 | 0.53 | 87 | 1012.3 |
| 20260505111808 | 56 | 68 | 1.7 | 5.2 | 0.00 | 0.53 | 0.53 | 87 | 1012.3 |
| 20260505111750 | 55 | 75 | 1.7 | 5.2 | 0.00 | 0.53 | 0.53 | 86 | 1012.2 |
| 20260505111650 | 55 | 76 | 1.7 | 3.5 | 0.00 | 0.53 | 0.53 | 86 | 1012.2 |
| 20260505111550 | 55 | 73 | 1.7 | 3.5 | 0.00 | 0.53 | 0.53 | 86 | 1012.2 |
| 20260505111508 | 55 | 73 | 1.7 | 3.5 | 0.00 | 0.53 | 0.53 | 86 | 1012.2 |
| 20260505111450 | 55 | 68 | 0.9 | 3.5 | 0.00 | 0.53 | 0.53 | 87 | 1012.2 |
| 20260505111351 | 55 | 72 | 0.9 | 3.5 | 0.00 | 0.53 | 0.53 | 86 | 1012.3 |
| 20260505111251 | 55 | 68 | 0.9 | 3.5 | 0.00 | 0.53 | 0.53 | 87 | 1012.2 |
| 20260505111208 | 55 | 68 | 0.9 | 3.5 | 0.00 | 0.53 | 0.53 | 87 | 1012.2 |
| 20260505111150 | 55 | 74 | 0.9 | 3.5 | 0.00 | 0.53 | 0.53 | 86 | 1012.2 |
| 20260505111050 | 55 | 66 | 0.9 | 1.7 | 0.00 | 0.52 | 0.52 | 86 | 1012.2 |
| 20260505110950 | 55 | 42 | 0.9 | 5.2 | 0.00 | 0.52 | 0.52 | 87 | 1012.3 |
| 20260505110907 | 55 | 42 | 0.9 | 5.2 | 0.00 | 0.52 | 0.52 | 87 | 1012.3 |
| 20260505110849 | 55 | 23 | 0.9 | 6.1 | 0.00 | 0.52 | 0.52 | 87 | 1012.3 |
| 20260505110749 | 55 | 19 | 1.7 | 7.0 | 0.00 | 0.52 | 0.52 | 87 | 1012.3 |
| 20260505110649 | 55 | 15 | 1.7 | 7.0 | 0.00 | 0.52 | 0.52 | 86 | 1012.3 |
| 20260505110607 | 55 | 15 | 1.7 | 7.0 | 0.00 | 0.52 | 0.52 | 86 | 1012.3 |
| 20260505110549 | 55 | 12 | 1.7 | 7.0 | 0.00 | 0.52 | 0.52 | 87 | 1012.3 |
| 20260505110450 | 55 | 8 | 1.7 | 7.0 | 0.00 | 0.52 | 0.52 | 87 | 1012.4 |
| 20260505110350 | 55 | 359 | 1.7 | 7.0 | 0.00 | 0.52 | 0.52 | 87 | 1012.3 |
| 20260505110308 | 55 | 359 | 1.7 | 7.0 | 0.00 | 0.52 | 0.52 | 87 | 1012.3 |
| 20260505110250 | 55 | 354 | 1.7 | 7.0 | 0.00 | 0.52 | 0.52 | 87 | 1012.3 |
| 20260505110150 | 55 | 352 | 2.6 | 7.0 | 0.00 | 0.52 | 0.52 | 87 | 1012.4 |
| 20260505102149 | 54 | 354 | 1.7 | 3.5 | 0.00 | 0.52 | 0.52 | 87 | 1012.5 |
| 20260505102107 | 54 | 352 | 1.7 | 3.5 | 0.00 | 0.52 | 0.52 | 87 | 1012.4 |
| 20260505102049 | 54 | 352 | 1.7 | 3.5 | 0.00 | 0.52 | 0.52 | 87 | 1012.4 |
| 20260505101951 | 54 | 353 | 1.7 | 3.5 | 0.00 | 0.52 | 0.52 | 87 | 1012.5 |
| 20260505101850 | 55 | 352 | 0.9 | 2.6 | 0.00 | 0.52 | 0.52 | 87 | 1012.5 |
| 20260505101808 | 55 | 352 | 0.9 | 2.6 | 0.00 | 0.52 | 0.52 | 87 | 1012.5 |
| 20260505101750 | 55 | 350 | 0.9 | 2.6 | 0.00 | 0.52 | 0.52 | 87 | 1012.5 |
| 20260505101651 | 55 | 347 | 0.9 | 2.6 | 0.00 | 0.52 | 0.52 | 87 | 1012.6 |
| 20260505101551 | 55 | 345 | 0.9 | 2.6 | 0.00 | 0.52 | 0.52 | 87 | 1012.5 |
| 20260505101508 | 55 | 345 | 0.9 | 2.6 | 0.00 | 0.52 | 0.52 | 87 | 1012.5 |
| 20260505101452 | 55 | 341 | 0.0 | 2.6 | 0.00 | 0.52 | 0.52 | 87 | 1012.5 |
| 20260505101350 | 55 | 327 | 0.0 | 1.7 | 0.00 | 0.52 | 0.52 | 87 | 1012.5 |
| 20260505101250 | 55 | 332 | 0.0 | 1.7 | 0.01 | 0.52 | 0.52 | 87 | 1012.5 |
| 20260505101207 | 55 | 332 | 0.0 | 1.7 | 0.01 | 0.52 | 0.52 | 87 | 1012.5 |
| 20260505101149 | 55 | 335 | 0.9 | 1.7 | 0.01 | 0.52 | 0.52 | 88 | 1012.5 |
| 20260505101049 | 55 | 339 | 0.9 | 1.7 | 0.01 | 0.52 | 0.52 | 88 | 1012.5 |
| 20260505100949 | 55 | 340 | 0.9 | 1.7 | 0.01 | 0.52 | 0.52 | 88 | 1012.5 |
| 20260505100909 | 55 | 340 | 0.9 | 1.7 | 0.01 | 0.52 | 0.52 | 88 | 1012.5 |
| 20260505100850 | 55 | 344 | 0.9 | 2.6 | 0.01 | 0.52 | 0.52 | 88 | 1012.5 |
| 20260505100750 | 55 | 349 | 0.9 | 3.5 | 0.01 | 0.52 | 0.52 | 88 | 1012.6 |
| 20260505100650 | 54 | 352 | 0.9 | 3.5 | 0.01 | 0.52 | 0.52 | 87 | 1012.5 |
| 20260505100608 | 54 | 352 | 0.9 | 3.5 | 0.01 | 0.52 | 0.52 | 87 | 1012.5 |
| 20260505100550 | 55 | 354 | 1.7 | 3.5 | 0.01 | 0.52 | 0.52 | 87 | 1012.5 |
| 20260505100450 | 55 | 357 | 1.7 | 3.5 | 0.01 | 0.52 | 0.52 | 88 | 1012.6 |
| 20260505100351 | 55 | 359 | 1.7 | 3.5 | 0.01 | 0.52 | 0.52 | 88 | 1012.6 |
| 20260505100308 | 55 | 359 | 1.7 | 3.5 | 0.01 | 0.52 | 0.52 | 88 | 1012.6 |
| 20260505100250 | 55 | 1 | 1.7 | 3.5 | 0.01 | 0.52 | 0.52 | 88 | 1012.5 |
| 20260505100150 | 55 | 4 | 1.7 | 3.5 | 0.01 | 0.52 | 0.52 | 88 | 1012.5 |
| 20260505100050 | 55 | 5 | 0.9 | 3.5 | 0.01 | 0.52 | 0.52 | 88 | 1012.5 |
| 20260505100008 | 55 | 5 | 0.9 | 3.5 | 0.01 | 0.52 | 0.52 | 88 | 1012.5 |
| 20260505095950 | 55 | 5 | 0.9 | 3.5 | 0.01 | 0.52 | 0.52 | 88 | 1012.6 |
| 20260505095850 | 54 | 4 | 0.9 | 2.6 | 0.01 | 0.52 | 0.52 | 88 | 1012.6 |
| 20260505095749 | 55 | 4 | 0.9 | 2.6 | 0.01 | 0.52 | 0.52 | 88 | 1012.5 |
| 20260505095707 | 55 | 4 | 0.9 | 2.6 | 0.01 | 0.52 | 0.52 | 88 | 1012.5 |
| 20260505095649 | 55 | 3 | 0.9 | 2.6 | 0.01 | 0.52 | 0.52 | 88 | 1012.6 |
| 20260505095549 | 55 | 4 | 0.9 | 2.6 | 0.01 | 0.52 | 0.52 | 88 | 1012.6 |
| 20260505095451 | 55 | 5 | 0.9 | 2.6 | 0.01 | 0.52 | 0.52 | 88 | 1012.7 |
| 20260505095408 | 55 | 5 | 0.9 | 2.6 | 0.01 | 0.52 | 0.52 | 88 | 1012.7 |
| 20260505095350 | 54 | 2 | 0.9 | 1.7 | 0.01 | 0.52 | 0.52 | 88 | 1012.6 |
| 20260505095250 | 54 | 3 | 0.9 | 1.7 | 0.01 | 0.52 | 0.52 | 88 | 1012.7 |
| 20260505095150 | 54 | 358 | 0.9 | 2.6 | 0.01 | 0.52 | 0.52 | 88 | 1012.6 |
| 20260505095107 | 54 | 358 | 0.9 | 2.6 | 0.01 | 0.52 | 0.52 | 88 | 1012.6 |
| 20260505095049 | 54 | 359 | 0.9 | 3.5 | 0.01 | 0.52 | 0.52 | 88 | 1012.6 |
| 20260505094949 | 54 | 1 | 0.9 | 3.5 | 0.01 | 0.52 | 0.52 | 88 | 1012.6 |
| 20260505094850 | 54 | 359 | 0.9 | 3.5 | 0.01 | 0.52 | 0.52 | 88 | 1012.7 |
| 20260505094807 | 54 | 359 | 0.9 | 3.5 | 0.01 | 0.52 | 0.52 | 88 | 1012.7 |
| 20260505094749 | 54 | 359 | 0.9 | 3.5 | 0.01 | 0.52 | 0.52 | 88 | 1012.7 |
| 20260505094649 | 54 | 1 | 1.7 | 3.5 | 0.01 | 0.52 | 0.52 | 88 | 1012.7 |
| 20260505094549 | 54 | 358 | 1.7 | 3.5 | 0.01 | 0.52 | 0.52 | 88 | 1012.7 |
| 20260505094509 | 54 | 355 | 1.7 | 3.5 | 0.01 | 0.52 | 0.52 | 88 | 1012.6 |
| 20260505094451 | 54 | 355 | 1.7 | 3.5 | 0.01 | 0.52 | 0.52 | 88 | 1012.6 |
| 20260505094350 | 54 | 356 | 1.7 | 3.5 | 0.01 | 0.52 | 0.52 | 88 | 1012.6 |
| 20260505094251 | 54 | 355 | 1.7 | 3.5 | 0.01 | 0.52 | 0.52 | 87 | 1012.7 |
| 20260505094208 | 54 | 355 | 1.7 | 3.5 | 0.01 | 0.52 | 0.52 | 87 | 1012.7 |
| 20260505094150 | 54 | 355 | 0.9 | 3.5 | 0.01 | 0.52 | 0.52 | 88 | 1012.7 |
| 20260505094050 | 54 | 355 | 0.9 | 2.6 | 0.01 | 0.52 | 0.52 | 88 | 1012.7 |
| 20260505093951 | 54 | 355 | 0.9 | 2.6 | 0.01 | 0.52 | 0.52 | 88 | 1012.7 |
| 20260505093908 | 54 | 355 | 0.9 | 2.6 | 0.01 | 0.52 | 0.52 | 88 | 1012.7 |
| 20260505093850 | 54 | 356 | 0.9 | 2.6 | 0.01 | 0.52 | 0.52 | 88 | 1012.7 |
| 20260505093750 | 54 | 357 | 0.9 | 2.6 | 0.01 | 0.52 | 0.52 | 88 | 1012.6 |
| 20260505093650 | 54 | 354 | 0.9 | 1.7 | 0.01 | 0.52 | 0.52 | 88 | 1012.7 |
| 20260505093607 | 54 | 354 | 0.9 | 1.7 | 0.01 | 0.52 | 0.52 | 88 | 1012.7 |
| 20260505093549 | 54 | 358 | 0.9 | 1.7 | 0.01 | 0.52 | 0.52 | 88 | 1012.7 |
| 20260505093451 | 54 | 356 | 0.9 | 1.7 | 0.01 | 0.52 | 0.52 | 88 | 1012.6 |
| 20260505093351 | 54 | 2 | 0.0 | 1.7 | 0.01 | 0.52 | 0.52 | 88 | 1012.7 |
| 20260505093308 | 54 | 2 | 0.0 | 1.7 | 0.01 | 0.52 | 0.52 | 88 | 1012.7 |
| 20260505093250 | 54 | 7 | 0.0 | 1.7 | 0.01 | 0.52 | 0.52 | 88 | 1012.7 |
| 20260505093150 | 54 | 10 | 0.0 | 1.7 | 0.01 | 0.52 | 0.52 | 88 | 1012.7 |
| 20260505093050 | 54 | 2 | 0.0 | 1.7 | 0.01 | 0.52 | 0.52 | 88 | 1012.6 |
| 20260505093008 | 54 | 2 | 0.0 | 1.7 | 0.01 | 0.52 | 0.52 | 88 | 1012.6 |
| 20260505092952 | 54 | 6 | 0.0 | 1.7 | 0.01 | 0.52 | 0.52 | 88 | 1012.6 |
| 20260505092850 | 54 | 3 | 0.0 | 1.7 | 0.01 | 0.52 | 0.52 | 88 | 1012.7 |
| 20260505092750 | 54 | 349 | 0.0 | 1.7 | 0.00 | 0.51 | 0.51 | 88 | 1012.7 |
| 20260505092708 | 54 | 349 | 0.0 | 1.7 | 0.00 | 0.51 | 0.51 | 88 | 1012.7 |
| 20260505092650 | 54 | 7 | 0.0 | 1.7 | 0.00 | 0.51 | 0.51 | 88 | 1012.7 |
| 20260505092550 | 54 | 2 | 0.0 | 1.7 | 0.00 | 0.51 | 0.51 | 88 | 1012.7 |
| 20260505092449 | 54 | 7 | 0.0 | 1.7 | 0.00 | 0.51 | 0.51 | 88 | 1012.7 |
| 20260505092408 | 54 | 7 | 0.0 | 1.7 | 0.00 | 0.51 | 0.51 | 88 | 1012.7 |
| 20260505092350 | 54 | 10 | 0.0 | 1.7 | 0.00 | 0.51 | 0.51 | 88 | 1012.8 |
| 20260505092250 | 54 | 15 | 0.0 | 1.7 | 0.01 | 0.51 | 0.51 | 88 | 1012.8 |
| 20260505092150 | 54 | 18 | 0.0 | 1.7 | 0.01 | 0.51 | 0.51 | 88 | 1012.7 |
| 20260505092108 | 54 | 18 | 0.0 | 1.7 | 0.01 | 0.51 | 0.51 | 88 | 1012.7 |
| 20260505092050 | 54 | 25 | 0.0 | 1.7 | 0.01 | 0.51 | 0.51 | 88 | 1012.8 |
| 20260505091950 | 54 | 20 | 0.0 | 1.7 | 0.01 | 0.51 | 0.51 | 88 | 1012.7 |
| 20260505091851 | 54 | 18 | 0.0 | 1.7 | 0.01 | 0.51 | 0.51 | 88 | 1012.7 |
| 20260505091808 | 54 | 18 | 0.0 | 1.7 | 0.01 | 0.51 | 0.51 | 88 | 1012.7 |
| 20260505091750 | 54 | 18 | 0.0 | 1.7 | 0.01 | 0.51 | 0.51 | 88 | 1012.8 |
| 20260505091650 | 54 | 21 | 0.0 | 1.7 | 0.01 | 0.51 | 0.51 | 88 | 1012.7 |
| 20260505091550 | 54 | 23 | 0.0 | 1.7 | 0.01 | 0.51 | 0.51 | 88 | 1012.7 |
| 20260505091508 | 54 | 23 | 0.0 | 1.7 | 0.01 | 0.51 | 0.51 | 88 | 1012.7 |
| 20260505091450 | 54 | 24 | 0.0 | 1.7 | 0.01 | 0.51 | 0.51 | 88 | 1012.7 |
| 20260505091351 | 54 | 21 | 0.0 | 1.7 | 0.01 | 0.51 | 0.51 | 88 | 1012.7 |
| 20260505091251 | 54 | 19 | 0.0 | 1.7 | 0.00 | 0.51 | 0.51 | 88 | 1012.7 |
| 20260505091208 | 54 | 19 | 0.0 | 1.7 | 0.00 | 0.51 | 0.51 | 88 | 1012.7 |
| 20260505091150 | 54 | 34 | 0.0 | 2.6 | 0.00 | 0.51 | 0.51 | 88 | 1012.7 |
| 20260505091050 | 54 | 46 | 0.0 | 2.6 | 0.00 | 0.51 | 0.51 | 89 | 1012.8 |
| 20260505090950 | 54 | 47 | 0.0 | 2.6 | 0.00 | 0.51 | 0.51 | 89 | 1012.8 |
| 20260505090908 | 54 | 52 | 0.0 | 2.6 | 0.00 | 0.51 | 0.51 | 89 | 1012.7 |
| 20260505090849 | 54 | 52 | 0.0 | 2.6 | 0.00 | 0.51 | 0.51 | 89 | 1012.7 |
| 20260505090749 | 54 | 72 | 0.0 | 2.6 | 0.00 | 0.51 | 0.51 | 89 | 1012.7 |
| 20260505090649 | 54 | 77 | 0.9 | 2.6 | 0.00 | 0.51 | 0.51 | 89 | 1012.6 |
| 20260505090609 | 54 | 77 | 0.9 | 2.6 | 0.00 | 0.51 | 0.51 | 89 | 1012.6 |
| 20260505090551 | 54 | 73 | 0.9 | 2.6 | 0.00 | 0.51 | 0.51 | 89 | 1012.6 |
| 20260505090449 | 54 | 68 | 0.9 | 3.5 | 0.00 | 0.51 | 0.51 | 89 | 1012.6 |
| 20260505090348 | 54 | 69 | 0.9 | 3.5 | 0.00 | 0.51 | 0.51 | 89 | 1012.6 |
| 20260505090309 | 54 | 69 | 0.9 | 3.5 | 0.00 | 0.51 | 0.51 | 89 | 1012.6 |
| 20260505090249 | 54 | 67 | 0.9 | 3.5 | 0.00 | 0.51 | 0.51 | 89 | 1012.6 |
| 20260505090149 | 54 | 55 | 0.9 | 3.5 | 0.00 | 0.51 | 0.51 | 89 | 1012.6 |
| 20260505090049 | 54 | 66 | 0.9 | 3.5 | 0.00 | 0.51 | 0.51 | 90 | 1012.5 |
| 20260505085010 | 54 | 103 | 0.9 | 2.6 | 0.01 | 0.51 | 0.51 | 90 | 1012.6 |
| 20260505084910 | 54 | 90 | 0.0 | 2.6 | 0.01 | 0.51 | 0.51 | 90 | 1012.6 |
| 20260505084809 | 54 | 85 | 0.0 | 2.6 | 0.01 | 0.51 | 0.51 | 90 | 1012.8 |
| 20260505084710 | 54 | 70 | 0.0 | 0.9 | 0.01 | 0.51 | 0.51 | 90 | 1012.7 |
| 20260505084610 | 53 | 66 | 0.0 | 0.9 | 0.01 | 0.51 | 0.51 | 90 | 1012.7 |
| 20260505084508 | 53 | 63 | 0.0 | 0.9 | 0.01 | 0.51 | 0.51 | 90 | 1012.7 |
| 20260505084412 | 53 | 40 | 0.0 | 0.9 | 0.01 | 0.51 | 0.51 | 90 | 1012.8 |
| 20260505084311 | 53 | 1 | 0.0 | 2.6 | 0.02 | 0.51 | 0.51 | 90 | 1012.8 |
| 20260505084208 | 53 | 1 | 0.0 | 2.6 | 0.02 | 0.51 | 0.51 | 90 | 1012.8 |
| 20260505084110 | 53 | 351 | 0.0 | 2.6 | 0.02 | 0.51 | 0.51 | 90 | 1012.8 |
| 20260505084010 | 53 | 350 | 0.0 | 2.6 | 0.02 | 0.51 | 0.51 | 90 | 1012.7 |
| 20260505083907 | 53 | 349 | 0.9 | 2.6 | 0.02 | 0.51 | 0.51 | 90 | 1012.8 |
| 20260505083812 | 53 | 350 | 0.9 | 2.6 | 0.03 | 0.51 | 0.51 | 90 | 1012.8 |
| 20260505083712 | 53 | 351 | 0.9 | 3.5 | 0.03 | 0.51 | 0.51 | 90 | 1012.7 |
| 20260505083607 | 53 | 353 | 1.7 | 5.2 | 0.03 | 0.51 | 0.51 | 90 | 1012.8 |
| 20260505083511 | 53 | 354 | 1.7 | 5.2 | 0.03 | 0.51 | 0.51 | 90 | 1012.7 |
| 20260505083411 | 53 | 355 | 1.7 | 5.2 | 0.03 | 0.51 | 0.51 | 90 | 1012.7 |
| 20260505083307 | 53 | 355 | 1.7 | 5.2 | 0.03 | 0.51 | 0.51 | 90 | 1012.7 |
| 20260505083211 | 53 | 354 | 1.7 | 5.2 | 0.03 | 0.51 | 0.51 | 90 | 1012.8 |
| 20260505083111 | 53 | 354 | 1.7 | 5.2 | 0.03 | 0.51 | 0.51 | 90 | 1012.8 |
| 20260505083011 | 53 | 356 | 1.7 | 5.2 | 0.03 | 0.51 | 0.51 | 90 | 1012.8 |
| 20260505083007 | 53 | 357 | 2.6 | 5.2 | 0.04 | 0.51 | 0.51 | 90 | 1012.7 |
| 20260505082911 | 53 | 357 | 2.6 | 5.2 | 0.04 | 0.51 | 0.51 | 90 | 1012.7 |
| 20260505082810 | 53 | 357 | 2.6 | 5.2 | 0.04 | 0.51 | 0.51 | 90 | 1012.8 |
| 20260505082708 | 53 | 357 | 2.6 | 5.2 | 0.05 | 0.51 | 0.51 | 90 | 1012.7 |
| 20260505082610 | 53 | 356 | 2.6 | 5.2 | 0.06 | 0.51 | 0.51 | 90 | 1012.8 |
| 20260505082510 | 53 | 355 | 2.6 | 5.2 | 0.06 | 0.51 | 0.51 | 90 | 1012.8 |
| 20260505082408 | 53 | 355 | 2.6 | 5.2 | 0.06 | 0.51 | 0.51 | 90 | 1012.8 |
| 20260505082312 | 53 | 356 | 2.6 | 5.2 | 0.06 | 0.50 | 0.50 | 90 | 1012.8 |
| 20260505082211 | 53 | 356 | 2.6 | 5.2 | 0.07 | 0.50 | 0.50 | 90 | 1012.8 |
| 20260505082108 | 53 | 357 | 2.6 | 5.2 | 0.07 | 0.50 | 0.50 | 90 | 1012.8 |
| 20260505082010 | 53 | 356 | 2.6 | 5.2 | 0.07 | 0.50 | 0.50 | 90 | 1012.8 |
| 20260505081910 | 53 | 356 | 2.6 | 5.2 | 0.07 | 0.50 | 0.50 | 90 | 1012.8 |
| 20260505081809 | 53 | 356 | 2.6 | 5.2 | 0.07 | 0.50 | 0.50 | 90 | 1012.7 |
| 20260505081711 | 53 | 357 | 2.6 | 5.2 | 0.08 | 0.50 | 0.50 | 90 | 1012.7 |
| 20260505081611 | 53 | 359 | 2.6 | 5.2 | 0.09 | 0.50 | 0.50 | 90 | 1012.7 |
| 20260505081508 | 53 | 359 | 2.6 | 5.2 | 0.09 | 0.50 | 0.50 | 90 | 1012.6 |
| 20260505081410 | 53 | 358 | 2.6 | 5.2 | 0.10 | 0.50 | 0.50 | 91 | 1012.8 |
| 20260505081311 | 53 | 357 | 2.6 | 5.2 | 0.10 | 0.50 | 0.50 | 91 | 1012.7 |
| 20260505081209 | 53 | 355 | 2.6 | 5.2 | 0.10 | 0.50 | 0.50 | 91 | 1012.7 |
| 20260505081111 | 53 | 356 | 2.6 | 5.2 | 0.11 | 0.50 | 0.50 | 91 | 1012.7 |
| 20260505081011 | 53 | 356 | 2.6 | 5.2 | 0.11 | 0.50 | 0.50 | 91 | 1012.7 |
| 20260505080908 | 53 | 356 | 2.6 | 5.2 | 0.11 | 0.50 | 0.50 | 91 | 1012.6 |
| 20260505080812 | 53 | 359 | 2.6 | 5.2 | 0.11 | 0.50 | 0.50 | 91 | 1012.7 |
| 20260505080712 | 53 | 4 | 2.6 | 5.2 | 0.11 | 0.50 | 0.50 | 91 | 1012.7 |
| 20260505080607 | 53 | 5 | 2.6 | 5.2 | 0.11 | 0.50 | 0.50 | 91 | 1012.7 |
| 20260505080511 | 53 | 6 | 1.7 | 5.2 | 0.12 | 0.50 | 0.50 | 91 | 1012.6 |
| 20260505080410 | 53 | 12 | 2.6 | 6.1 | 0.12 | 0.50 | 0.50 | 91 | 1012.6 |
| 20260505080308 | 53 | 17 | 1.7 | 6.1 | 0.13 | 0.50 | 0.50 | 91 | 1012.8 |
| 20260505080212 | 52 | 27 | 1.7 | 6.1 | 0.14 | 0.50 | 0.50 | 91 | 1012.8 |
| 20260505080111 | 52 | 30 | 1.7 | 6.1 | 0.14 | 0.50 | 0.50 | 91 | 1012.8 |
| 20260505080007 | 52 | 29 | 1.7 | 6.1 | 0.14 | 0.50 | 0.50 | 91 | 1012.8 |
| 20260505075911 | 52 | 28 | 1.7 | 6.1 | 0.14 | 0.50 | 0.50 | 90 | 1012.8 |
| 20260505075810 | 52 | 27 | 1.7 | 6.1 | 0.14 | 0.50 | 0.50 | 91 | 1012.8 |
| 20260505075708 | 52 | 27 | 1.7 | 6.1 | 0.15 | 0.50 | 0.50 | 91 | 1012.8 |
| 20260505075612 | 52 | 26 | 1.7 | 6.1 | 0.14 | 0.49 | 0.49 | 90 | 1012.8 |
| 20260505075512 | 52 | 22 | 1.7 | 6.1 | 0.14 | 0.49 | 0.49 | 90 | 1012.9 |
| 20260505075407 | 52 | 19 | 1.7 | 5.2 | 0.15 | 0.49 | 0.49 | 90 | 1012.8 |
| 20260505075311 | 52 | 15 | 0.9 | 5.2 | 0.15 | 0.49 | 0.49 | 91 | 1012.8 |
| 20260505075211 | 52 | 8 | 0.9 | 5.2 | 0.15 | 0.49 | 0.49 | 91 | 1012.9 |
| 20260505075108 | 52 | 7 | 0.9 | 5.2 | 0.15 | 0.49 | 0.49 | 91 | 1012.9 |
| 20260505075010 | 52 | 9 | 0.9 | 5.2 | 0.16 | 0.49 | 0.49 | 91 | 1012.8 |
| 20260505074910 | 52 | 7 | 0.9 | 5.2 | 0.16 | 0.49 | 0.49 | 91 | 1012.9 |
| 20260505074811 | 52 | 7 | 0.9 | 5.2 | 0.17 | 0.49 | 0.49 | 91 | 1012.9 |
| 20260505074809 | 52 | 5 | 0.9 | 5.2 | 0.17 | 0.49 | 0.49 | 91 | 1012.8 |
| 20260505074710 | 52 | 5 | 0.9 | 5.2 | 0.17 | 0.49 | 0.49 | 91 | 1012.8 |
| 20260505074610 | 53 | 1 | 0.9 | 2.6 | 0.17 | 0.49 | 0.49 | 91 | 1012.9 |
| 20260505074508 | 52 | 1 | 0.9 | 1.7 | 0.18 | 0.49 | 0.49 | 91 | 1012.8 |
| 20260505074410 | 52 | 355 | 0.9 | 5.2 | 0.18 | 0.49 | 0.49 | 91 | 1012.9 |
| 20260505074310 | 52 | 354 | 0.9 | 5.2 | 0.18 | 0.49 | 0.49 | 91 | 1012.9 |
| 20260505074208 | 52 | 355 | 1.7 | 5.2 | 0.18 | 0.48 | 0.48 | 91 | 1012.9 |
| 20260505074112 | 52 | 351 | 1.7 | 5.2 | 0.18 | 0.48 | 0.48 | 91 | 1012.8 |
| 20260505074012 | 52 | 351 | 1.7 | 5.2 | 0.18 | 0.48 | 0.48 | 91 | 1012.8 |
| 20260505073907 | 52 | 348 | 2.6 | 5.2 | 0.18 | 0.48 | 0.48 | 91 | 1012.9 |
| 20260505073811 | 52 | 347 | 2.6 | 5.2 | 0.18 | 0.48 | 0.48 | 91 | 1012.8 |
| 20260505073711 | 52 | 347 | 2.6 | 6.1 | 0.18 | 0.48 | 0.48 | 91 | 1012.8 |
| 20260505073608 | 52 | 347 | 3.5 | 6.1 | 0.19 | 0.48 | 0.48 | 91 | 1012.8 |
| 20260505073510 | 52 | 348 | 3.5 | 6.1 | 0.19 | 0.48 | 0.48 | 91 | 1012.8 |
| 20260505073411 | 52 | 349 | 3.5 | 6.1 | 0.18 | 0.47 | 0.47 | 91 | 1012.9 |
| 20260505073308 | 52 | 350 | 3.5 | 6.1 | 0.19 | 0.47 | 0.47 | 91 | 1012.8 |
| 20260505073212 | 52 | 349 | 3.5 | 6.1 | 0.19 | 0.47 | 0.47 | 91 | 1012.8 |
| 20260505073112 | 52 | 351 | 3.5 | 6.1 | 0.19 | 0.47 | 0.47 | 91 | 1012.9 |
| 20260505073007 | 52 | 350 | 3.5 | 6.1 | 0.18 | 0.46 | 0.46 | 91 | 1012.9 |
| 20260505072911 | 52 | 353 | 3.5 | 6.1 | 0.18 | 0.46 | 0.46 | 91 | 1012.8 |
| 20260505072812 | 53 | 354 | 3.5 | 6.1 | 0.18 | 0.45 | 0.45 | 91 | 1012.9 |
| 20260505072707 | 53 | 354 | 3.5 | 6.1 | 0.18 | 0.45 | 0.45 | 91 | 1012.7 |
| 20260505072611 | 53 | 356 | 2.6 | 6.1 | 0.18 | 0.44 | 0.44 | 91 | 1012.8 |
| 20260505072511 | 53 | 357 | 2.6 | 6.1 | 0.18 | 0.44 | 0.44 | 91 | 1012.8 |
| 20260505072408 | 53 | 356 | 2.6 | 6.1 | 0.18 | 0.44 | 0.44 | 91 | 1012.8 |
| 20260505072312 | 53 | 353 | 2.6 | 6.1 | 0.18 | 0.44 | 0.44 | 91 | 1012.9 |
| 20260505072211 | 53 | 353 | 2.6 | 6.1 | 0.18 | 0.43 | 0.43 | 91 | 1012.9 |
| 20260505072107 | 53 | 352 | 2.6 | 6.1 | 0.18 | 0.43 | 0.43 | 91 | 1012.8 |
| 20260505072011 | 53 | 353 | 2.6 | 6.1 | 0.17 | 0.42 | 0.42 | 90 | 1012.8 |
| 20260505071912 | 53 | 353 | 2.6 | 6.1 | 0.18 | 0.42 | 0.42 | 91 | 1012.8 |
| 20260505071809 | 53 | 351 | 2.6 | 6.1 | 0.18 | 0.41 | 0.41 | 90 | 1012.9 |
| 20260505071711 | 53 | 350 | 2.6 | 6.1 | 0.18 | 0.41 | 0.41 | 90 | 1012.8 |
| 20260505071612 | 53 | 349 | 2.6 | 6.1 | 0.18 | 0.40 | 0.40 | 91 | 1012.8 |
| 20260505071507 | 53 | 349 | 2.6 | 6.1 | 0.18 | 0.40 | 0.40 | 91 | 1012.7 |
| 20260505071411 | 53 | 351 | 2.6 | 6.1 | 0.18 | 0.40 | 0.40 | 91 | 1012.8 |
| 20260505071310 | 53 | 355 | 2.6 | 6.1 | 0.18 | 0.40 | 0.40 | 90 | 1012.7 |
| 20260505071208 | 53 | 357 | 2.6 | 6.1 | 0.18 | 0.39 | 0.39 | 90 | 1012.6 |
| 20260505071112 | 53 | 357 | 2.6 | 6.1 | 0.18 | 0.39 | 0.39 | 90 | 1012.6 |
| 20260505071012 | 53 | 1 | 1.7 | 6.1 | 0.18 | 0.39 | 0.39 | 90 | 1012.6 |
| 20260505070907 | 53 | 2 | 1.7 | 6.1 | 0.18 | 0.39 | 0.39 | 91 | 1012.6 |
| 20260505070810 | 53 | 12 | 1.7 | 6.1 | 0.17 | 0.38 | 0.38 | 91 | 1012.6 |
| 20260505070710 | 53 | 26 | 0.9 | 6.1 | 0.18 | 0.38 | 0.38 | 90 | 1012.6 |
| 20260505070608 | 53 | 35 | 0.9 | 6.1 | 0.18 | 0.37 | 0.37 | 91 | 1012.6 |
| 20260505070512 | 53 | 56 | 0.9 | 3.5 | 0.18 | 0.37 | 0.37 | 90 | 1012.6 |
| 20260505070412 | 53 | 58 | 0.9 | 3.5 | 0.17 | 0.37 | 0.37 | 90 | 1012.5 |
| 20260505070307 | 53 | 61 | 0.9 | 3.5 | 0.17 | 0.37 | 0.37 | 90 | 1012.6 |
| 20260505070211 | 52 | 54 | 0.9 | 3.5 | 0.17 | 0.36 | 0.36 | 90 | 1012.6 |
| 20260505070111 | 52 | 44 | 0.9 | 3.5 | 0.17 | 0.36 | 0.36 | 90 | 1012.6 |
| 20260505070008 | 52 | 37 | 0.9 | 3.5 | 0.16 | 0.35 | 0.35 | 90 | 1012.5 |
| 20260505065910 | 52 | 38 | 0.9 | 3.5 | 0.17 | 0.35 | 0.35 | 90 | 1012.6 |
| 20260505065811 | 52 | 34 | 0.9 | 3.5 | 0.17 | 0.35 | 0.35 | 90 | 1012.6 |
| 20260505065708 | 52 | 34 | 0.9 | 3.5 | 0.17 | 0.34 | 0.34 | 90 | 1012.4 |
| 20260505065610 | 52 | 34 | 0.9 | 3.5 | 0.17 | 0.34 | 0.34 | 90 | 1012.5 |
| 20260505065510 | 52 | 31 | 0.9 | 3.5 | 0.17 | 0.34 | 0.34 | 90 | 1012.5 |
| 20260505065409 | 52 | 33 | 0.9 | 3.5 | 0.17 | 0.33 | 0.33 | 90 | 1012.4 |
| 20260505065310 | 52 | 32 | 0.9 | 3.5 | 0.17 | 0.33 | 0.33 | 90 | 1012.4 |
| 20260505065210 | 52 | 43 | 0.9 | 3.5 | 0.17 | 0.33 | 0.33 | 90 | 1012.4 |
| 20260505065108 | 52 | 57 | 0.9 | 3.5 | 0.16 | 0.33 | 0.33 | 90 | 1012.5 |
| 20260505065012 | 53 | 64 | 0.0 | 3.5 | 0.16 | 0.33 | 0.33 | 90 | 1012.4 |
| 20260505064911 | 53 | 68 | 0.0 | 1.7 | 0.16 | 0.32 | 0.32 | 90 | 1012.4 |
| 20260505064808 | 53 | 66 | 0.0 | 1.7 | 0.16 | 0.32 | 0.32 | 90 | 1012.4 |
| 20260505064710 | 53 | 245 | 0.0 | 0.9 | 0.16 | 0.32 | 0.32 | 90 | 1012.4 |
| 20260505064611 | 53 | 271 | 0.0 | 0.9 | 0.15 | 0.31 | 0.31 | 90 | 1012.5 |
| 20260505064509 | 53 | 307 | 0.0 | 1.7 | 0.16 | 0.31 | 0.31 | 90 | 1012.3 |
| 20260505064411 | 53 | 314 | 0.0 | 1.7 | 0.15 | 0.30 | 0.30 | 90 | 1012.3 |
| 20260505064310 | 53 | 318 | 0.9 | 2.6 | 0.16 | 0.30 | 0.30 | 90 | 1012.3 |
| 20260505064211 | 53 | 329 | 0.9 | 3.5 | 0.16 | 0.30 | 0.30 | 90 | 1012.3 |
| 20260505064209 | 53 | 335 | 0.9 | 7.0 | 0.15 | 0.29 | 0.29 | 90 | 1012.3 |
| 20260505064111 | 53 | 335 | 0.9 | 7.0 | 0.15 | 0.29 | 0.29 | 90 | 1012.3 |
| 20260505064010 | 53 | 337 | 1.7 | 7.8 | 0.15 | 0.29 | 0.29 | 90 | 1012.3 |
| 20260505063907 | 53 | 337 | 1.7 | 7.8 | 0.16 | 0.29 | 0.29 | 90 | 1012.4 |
| 20260505063811 | 53 | 338 | 2.6 | 7.8 | 0.15 | 0.29 | 0.29 | 90 | 1012.4 |
| 20260505063711 | 53 | 343 | 2.6 | 7.8 | 0.15 | 0.29 | 0.29 | 90 | 1012.4 |
| 20260505063609 | 53 | 344 | 3.5 | 7.8 | 0.14 | 0.28 | 0.28 | 90 | 1012.4 |
| 20260505063511 | 53 | 344 | 3.5 | 7.8 | 0.15 | 0.28 | 0.28 | 90 | 1012.4 |
| 20260505063410 | 53 | 345 | 3.5 | 7.8 | 0.15 | 0.28 | 0.28 | 90 | 1012.4 |
| 20260505063308 | 53 | 345 | 3.5 | 7.8 | 0.14 | 0.27 | 0.27 | 90 | 1012.4 |
| 20260505063212 | 53 | 345 | 2.6 | 7.8 | 0.14 | 0.27 | 0.27 | 89 | 1012.4 |
| 20260505063112 | 53 | 345 | 2.6 | 7.8 | 0.15 | 0.27 | 0.27 | 89 | 1012.4 |
| 20260505063007 | 53 | 346 | 2.6 | 6.1 | 0.15 | 0.27 | 0.27 | 89 | 1012.4 |
| 20260505062911 | 53 | 349 | 1.7 | 6.1 | 0.16 | 0.27 | 0.27 | 90 | 1012.5 |
| 20260505062810 | 53 | 351 | 1.7 | 5.2 | 0.15 | 0.26 | 0.26 | 89 | 1012.4 |
| 20260505062708 | 53 | 352 | 1.7 | 5.2 | 0.15 | 0.26 | 0.26 | 90 | 1012.4 |
| 20260505062610 | 53 | 354 | 0.9 | 5.2 | 0.15 | 0.26 | 0.26 | 90 | 1012.4 |
| 20260505062510 | 53 | 357 | 0.9 | 2.6 | 0.14 | 0.25 | 0.25 | 89 | 1012.4 |
| 20260505062407 | 53 | 357 | 0.9 | 2.6 | 0.14 | 0.25 | 0.25 | 89 | 1012.4 |
| 20260505062311 | 53 | 357 | 0.9 | 2.6 | 0.14 | 0.25 | 0.25 | 89 | 1012.5 |
| 20260505062211 | 53 | 356 | 1.7 | 2.6 | 0.14 | 0.25 | 0.25 | 89 | 1012.5 |
| 20260505062108 | 53 | 356 | 1.7 | 2.6 | 0.14 | 0.25 | 0.25 | 89 | 1012.4 |
| 20260505062010 | 53 | 354 | 1.7 | 2.6 | 0.14 | 0.24 | 0.24 | 89 | 1012.4 |
| 20260505061910 | 53 | 354 | 1.7 | 2.6 | 0.13 | 0.23 | 0.23 | 89 | 1012.5 |
| 20260505061808 | 53 | 354 | 1.7 | 2.6 | 0.13 | 0.23 | 0.23 | 89 | 1012.4 |
| 20260505061712 | 53 | 354 | 1.7 | 2.6 | 0.12 | 0.22 | 0.22 | 89 | 1012.4 |
| 20260505061612 | 53 | 354 | 1.7 | 2.6 | 0.13 | 0.22 | 0.22 | 89 | 1012.4 |
| 20260505061507 | 53 | 352 | 0.9 | 2.6 | 0.12 | 0.22 | 0.22 | 89 | 1012.5 |
| 20260505061410 | 53 | 353 | 0.9 | 2.6 | 0.12 | 0.22 | 0.22 | 89 | 1012.5 |
| 20260505061310 | 53 | 354 | 0.9 | 2.6 | 0.12 | 0.22 | 0.22 | 89 | 1012.4 |
| 20260505061207 | 53 | 351 | 0.9 | 2.6 | 0.11 | 0.21 | 0.21 | 89 | 1012.4 |
| 20260505061111 | 53 | 351 | 0.9 | 2.6 | 0.12 | 0.21 | 0.21 | 89 | 1012.4 |
| 20260505061011 | 53 | 350 | 0.9 | 2.6 | 0.12 | 0.21 | 0.21 | 89 | 1012.4 |
| 20260505060912 | 53 | 349 | 0.9 | 3.5 | 0.12 | 0.21 | 0.21 | 89 | 1012.4 |
| 20260505060907 | 53 | 350 | 0.9 | 3.5 | 0.11 | 0.20 | 0.20 | 89 | 1012.4 |
| 20260505060811 | 53 | 350 | 0.9 | 3.5 | 0.11 | 0.20 | 0.20 | 89 | 1012.4 |
| 20260505060711 | 53 | 350 | 0.9 | 3.5 | 0.12 | 0.20 | 0.20 | 89 | 1012.4 |
| 20260505060609 | 53 | 350 | 1.7 | 3.5 | 0.11 | 0.19 | 0.19 | 89 | 1012.4 |
| 20260505060510 | 53 | 348 | 1.7 | 3.5 | 0.11 | 0.19 | 0.19 | 89 | 1012.4 |
| 20260505060410 | 53 | 346 | 1.7 | 3.5 | 0.11 | 0.19 | 0.19 | 89 | 1012.3 |
| 20260505060309 | 53 | 346 | 1.7 | 3.5 | 0.11 | 0.18 | 0.18 | 89 | 1012.2 |
| 20260505060211 | 53 | 344 | 1.7 | 3.5 | 0.11 | 0.18 | 0.18 | 89 | 1012.3 |
| 20260505060111 | 53 | 342 | 1.7 | 3.5 | 0.11 | 0.18 | 0.18 | 89 | 1012.3 |
| 20260505060008 | 53 | 341 | 0.9 | 3.5 | 0.11 | 0.18 | 0.18 | 88 | 1012.3 |
| 20260505055911 | 53 | 338 | 0.9 | 3.5 | 0.11 | 0.18 | 0.18 | 88 | 1012.3 |
| 20260505055811 | 53 | 329 | 0.9 | 2.6 | 0.11 | 0.18 | 0.18 | 88 | 1012.3 |
| 20260505055709 | 53 | 304 | 0.0 | 2.6 | 0.10 | 0.17 | 0.17 | 88 | 1012.2 |
| 20260505055611 | 53 | 246 | 0.0 | 2.6 | 0.11 | 0.17 | 0.17 | 88 | 1012.2 |
| 20260505055511 | 53 | 208 | 0.0 | 1.7 | 0.11 | 0.17 | 0.17 | 88 | 1012.2 |
| 20260505055408 | 53 | 168 | 0.0 | 1.7 | 0.10 | 0.16 | 0.16 | 88 | 1012.1 |
| 20260505055310 | 53 | 167 | 0.0 | 1.7 | 0.11 | 0.16 | 0.16 | 88 | 1012.1 |
| 20260505055211 | 53 | 150 | 0.0 | 1.7 | 0.11 | 0.16 | 0.16 | 88 | 1012.1 |
| 20260505055109 | 53 | 134 | 0.0 | 1.7 | 0.11 | 0.16 | 0.16 | 88 | 1012.1 |
| 20260505055011 | 53 | 83 | 0.0 | 1.7 | 0.10 | 0.15 | 0.15 | 88 | 1012.1 |
| 20260505054910 | 53 | 114 | 0.0 | 1.7 | 0.10 | 0.15 | 0.15 | 88 | 1012.1 |
| 20260505054807 | 53 | 127 | 0.9 | 3.5 | 0.10 | 0.15 | 0.15 | 88 | 1012.1 |
| 20260505054711 | 53 | 132 | 0.9 | 3.5 | 0.10 | 0.15 | 0.15 | 88 | 1012.0 |
| 20260505054610 | 53 | 134 | 0.9 | 3.5 | 0.10 | 0.14 | 0.14 | 88 | 1012.1 |
| 20260505054508 | 53 | 142 | 0.9 | 3.5 | 0.10 | 0.14 | 0.14 | 88 | 1012.2 |
| 20260505054411 | 53 | 145 | 0.9 | 3.5 | 0.10 | 0.14 | 0.14 | 88 | 1012.1 |
| 20260505054311 | 53 | 146 | 0.9 | 3.5 | 0.09 | 0.14 | 0.14 | 88 | 1012.1 |
| 20260505054208 | 53 | 146 | 0.9 | 3.5 | 0.09 | 0.14 | 0.14 | 88 | 1012.1 |
| 20260505054110 | 53 | 148 | 0.9 | 3.5 | 0.10 | 0.14 | 0.14 | 88 | 1012.1 |
| 20260505054011 | 53 | 151 | 0.9 | 3.5 | 0.10 | 0.14 | 0.14 | 88 | 1012.1 |
| 20260505053911 | 53 | 149 | 0.9 | 3.5 | 0.09 | 0.13 | 0.13 | 88 | 1012.1 |
| 20260505053908 | 53 | 144 | 0.9 | 2.6 | 0.09 | 0.13 | 0.13 | 88 | 1012.0 |
| 20260505053810 | 53 | 144 | 0.9 | 2.6 | 0.09 | 0.13 | 0.13 | 88 | 1012.0 |
| 20260505053710 | 53 | 342 | 0.9 | 1.7 | 0.09 | 0.13 | 0.13 | 87 | 1012.1 |
| 20260505053608 | 53 | 346 | 0.9 | 1.7 | 0.08 | 0.12 | 0.12 | 87 | 1012.1 |
| 20260505053512 | 53 | 351 | 0.9 | 5.2 | 0.08 | 0.12 | 0.12 | 88 | 1011.9 |
| 20260505053412 | 53 | 353 | 0.9 | 6.1 | 0.08 | 0.12 | 0.12 | 88 | 1012.0 |
| 20260505053308 | 53 | 353 | 1.7 | 7.0 | 0.08 | 0.12 | 0.12 | 87 | 1012.0 |
| 20260505053210 | 53 | 355 | 1.7 | 7.0 | 0.08 | 0.11 | 0.11 | 87 | 1012.0 |
| 20260505053110 | 53 | 356 | 1.7 | 7.0 | 0.08 | 0.11 | 0.11 | 87 | 1012.0 |
| 20260505053007 | 53 | 357 | 1.7 | 7.0 | 0.08 | 0.11 | 0.11 | 87 | 1012.0 |
| 20260505052911 | 53 | 358 | 2.6 | 7.0 | 0.07 | 0.11 | 0.11 | 87 | 1012.0 |
| 20260505052810 | 53 | 1 | 2.6 | 7.0 | 0.07 | 0.11 | 0.11 | 87 | 1012.1 |
| 20260505052708 | 53 | 3 | 1.7 | 7.0 | 0.07 | 0.11 | 0.11 | 87 | 1012.0 |
| 20260505052612 | 53 | 4 | 1.7 | 7.0 | 0.07 | 0.11 | 0.11 | 87 | 1012.0 |
| 20260505052511 | 53 | 5 | 1.7 | 7.0 | 0.07 | 0.11 | 0.11 | 87 | 1012.1 |
| 20260505052408 | 53 | 6 | 1.7 | 7.0 | 0.07 | 0.11 | 0.11 | 87 | 1012.1 |
| 20260505052312 | 53 | 7 | 0.9 | 5.2 | 0.07 | 0.10 | 0.10 | 87 | 1012.1 |
| 20260505052211 | 53 | 6 | 1.7 | 5.2 | 0.07 | 0.10 | 0.10 | 87 | 1012.0 |
| 20260505052107 | 53 | 4 | 1.7 | 5.2 | 0.07 | 0.10 | 0.10 | 87 | 1012.1 |
| 20260505052011 | 53 | 4 | 1.7 | 5.2 | 0.07 | 0.10 | 0.10 | 87 | 1012.0 |
| 20260505051910 | 53 | 2 | 1.7 | 5.2 | 0.07 | 0.10 | 0.10 | 86 | 1012.0 |
| 20260505051809 | 53 | 358 | 1.7 | 5.2 | 0.07 | 0.10 | 0.10 | 86 | 1012.1 |
| 20260505051711 | 53 | 356 | 1.7 | 5.2 | 0.07 | 0.09 | 0.09 | 86 | 1012.1 |
| 20260505051611 | 53 | 355 | 2.6 | 6.1 | 0.07 | 0.09 | 0.09 | 86 | 1012.1 |
| 20260505051508 | 53 | 356 | 2.6 | 6.1 | 0.07 | 0.09 | 0.09 | 86 | 1012.0 |
| 20260505051411 | 53 | 355 | 2.6 | 6.1 | 0.07 | 0.09 | 0.09 | 86 | 1012.1 |
| 20260505051311 | 53 | 355 | 2.6 | 6.1 | 0.07 | 0.09 | 0.09 | 86 | 1012.2 |
| 20260505051209 | 53 | 355 | 2.6 | 6.1 | 0.06 | 0.08 | 0.08 | 86 | 1012.0 |
| 20260505051110 | 53 | 355 | 2.6 | 6.1 | 0.06 | 0.08 | 0.08 | 86 | 1012.1 |
| 20260505051010 | 53 | 354 | 2.6 | 6.1 | 0.06 | 0.08 | 0.08 | 86 | 1012.0 |
| 20260505050912 | 53 | 354 | 2.6 | 6.1 | 0.06 | 0.08 | 0.08 | 86 | 1012.0 |
| 20260505050907 | 53 | 355 | 2.6 | 6.1 | 0.05 | 0.07 | 0.07 | 85 | 1012.1 |
| 20260505050811 | 53 | 355 | 2.6 | 6.1 | 0.05 | 0.07 | 0.07 | 85 | 1012.1 |
| 20260505050710 | 53 | 356 | 2.6 | 6.1 | 0.05 | 0.07 | 0.07 | 85 | 1012.0 |
| 20260505050608 | 53 | 355 | 1.7 | 5.2 | 0.05 | 0.07 | 0.07 | 85 | 1012.0 |
| 20260505050512 | 53 | 354 | 1.7 | 5.2 | 0.05 | 0.07 | 0.07 | 85 | 1012.0 |
| 20260505050410 | 54 | 353 | 0.9 | 3.5 | 0.05 | 0.07 | 0.07 | 85 | 1012.0 |
| 20260505050309 | 54 | 354 | 0.9 | 3.5 | 0.05 | 0.07 | 0.07 | 85 | 1011.9 |
| 20260505050211 | 54 | 355 | 0.9 | 3.5 | 0.04 | 0.07 | 0.07 | 85 | 1011.9 |
| 20260505050111 | 54 | 357 | 0.9 | 2.6 | 0.04 | 0.07 | 0.07 | 85 | 1011.9 |
| 20260505041710 | 54 | 351 | 1.7 | 3.5 | 0.02 | 0.02 | 0.02 | 81 | 1011.6 |
| 20260505041610 | 54 | 352 | 1.7 | 3.5 | 0.02 | 0.02 | 0.02 | 80 | 1011.7 |
| 20260505041508 | 54 | 353 | 1.7 | 3.5 | 0.02 | 0.02 | 0.02 | 80 | 1011.6 |
| 20260505041412 | 54 | 353 | 1.7 | 3.5 | 0.02 | 0.02 | 0.02 | 80 | 1011.7 |
| 20260505041310 | 54 | 354 | 1.7 | 3.5 | 0.02 | 0.02 | 0.02 | 81 | 1011.6 |
| 20260505041210 | 54 | 354 | 1.7 | 3.5 | 0.02 | 0.02 | 0.02 | 80 | 1011.6 |
| 20260505041208 | 54 | 354 | 1.7 | 3.5 | 0.02 | 0.02 | 0.02 | 80 | 1011.5 |
| 20260505041110 | 54 | 354 | 1.7 | 3.5 | 0.02 | 0.02 | 0.02 | 80 | 1011.5 |
| 20260505041010 | 54 | 354 | 2.6 | 3.5 | 0.02 | 0.02 | 0.02 | 80 | 1011.5 |
| 20260505040907 | 55 | 353 | 2.6 | 3.5 | 0.02 | 0.02 | 0.02 | 80 | 1011.5 |
| 20260505040811 | 55 | 355 | 2.6 | 5.2 | 0.02 | 0.02 | 0.02 | 80 | 1011.5 |
| 20260505040711 | 55 | 358 | 2.6 | 5.2 | 0.02 | 0.02 | 0.02 | 80 | 1011.5 |
| 20260505040609 | 55 | 357 | 2.6 | 5.2 | 0.02 | 0.02 | 0.02 | 80 | 1011.4 |
| 20260505040511 | 55 | 357 | 2.6 | 5.2 | 0.02 | 0.02 | 0.02 | 80 | 1011.5 |
| 20260505040411 | 55 | 357 | 2.6 | 5.2 | 0.02 | 0.02 | 0.02 | 80 | 1011.6 |
| 20260505040308 | 55 | 358 | 2.6 | 5.2 | 0.02 | 0.02 | 0.02 | 80 | 1011.5 |
| 20260505040210 | 55 | 357 | 2.6 | 6.1 | 0.02 | 0.02 | 0.02 | 80 | 1011.5 |
| 20260505040110 | 55 | 359 | 2.6 | 6.1 | 0.02 | 0.02 | 0.02 | 79 | 1011.5 |
| 20260505040008 | 55 | 358 | 2.6 | 6.1 | 0.02 | 0.02 | 0.02 | 79 | 1011.5 |
| 20260505035911 | 55 | 357 | 2.6 | 6.1 | 0.02 | 0.02 | 0.02 | 79 | 1011.5 |
| 20260505035812 | 55 | 357 | 2.6 | 6.1 | 0.02 | 0.02 | 0.02 | 79 | 1011.5 |
| 20260505035707 | 55 | 355 | 2.6 | 6.1 | 0.02 | 0.02 | 0.02 | 78 | 1011.4 |
| 20260505035611 | 55 | 354 | 2.6 | 6.1 | 0.02 | 0.02 | 0.02 | 78 | 1011.4 |
| 20260505035511 | 55 | 352 | 2.6 | 6.1 | 0.02 | 0.02 | 0.02 | 78 | 1011.3 |
| 20260505035408 | 55 | 349 | 1.7 | 6.1 | 0.02 | 0.02 | 0.02 | 78 | 1011.4 |
| 20260505035311 | 55 | 348 | 2.6 | 7.0 | 0.01 | 0.01 | 0.01 | 78 | 1011.3 |
| 20260505035210 | 55 | 348 | 2.6 | 7.0 | 0.01 | 0.01 | 0.01 | 78 | 1011.3 |
| 20260505035107 | 56 | 348 | 2.6 | 7.0 | 0.01 | 0.01 | 0.01 | 78 | 1011.3 |
| 20260505035010 | 55 | 349 | 2.6 | 7.0 | 0.01 | 0.01 | 0.01 | 77 | 1011.3 |
| 20260505034911 | 55 | 350 | 2.6 | 7.0 | 0.01 | 0.01 | 0.01 | 77 | 1011.3 |
| 20260505034807 | 55 | 352 | 2.6 | 7.0 | 0.01 | 0.01 | 0.01 | 77 | 1011.2 |
| 20260505034711 | 55 | 353 | 2.6 | 7.0 | 0.01 | 0.01 | 0.01 | 76 | 1011.2 |
| 20260505034611 | 55 | 354 | 2.6 | 7.0 | 0.01 | 0.01 | 0.01 | 77 | 1011.3 |
| 20260505034509 | 56 | 354 | 2.6 | 7.0 | 0.01 | 0.01 | 0.01 | 76 | 1011.2 |
| 20260505034411 | 56 | 356 | 2.6 | 7.0 | 0.01 | 0.01 | 0.01 | 75 | 1011.2 |
| 20260505034311 | 56 | 357 | 1.7 | 3.5 | 0.01 | 0.01 | 0.01 | 75 | 1011.2 |
| 20260505034211 | 56 | 355 | 1.7 | 3.5 | 0.01 | 0.01 | 0.01 | 75 | 1011.2 |
| 20260505034207 | 56 | 355 | 1.7 | 7.0 | 0.01 | 0.01 | 0.01 | 75 | 1011.1 |
| 20260505034111 | 56 | 355 | 1.7 | 7.0 | 0.01 | 0.01 | 0.01 | 75 | 1011.1 |
| 20260505034011 | 56 | 354 | 2.6 | 7.0 | 0.00 | 0.00 | 0.00 | 75 | 1011.2 |
| 20260505033908 | 56 | 353 | 2.6 | 7.0 | 0.00 | 0.00 | 0.00 | 75 | 1011.2 |
| 20260505033810 | 56 | 353 | 2.6 | 7.0 | 0.00 | 0.00 | 0.00 | 76 | 1011.2 |
| 20260505033710 | 56 | 352 | 2.6 | 7.0 | 0.00 | 0.00 | 0.00 | 76 | 1011.2 |
| 20260505033608 | 56 | 352 | 2.6 | 7.0 | 0.00 | 0.00 | 0.00 | 76 | 1011.2 |
| 20260505033512 | 56 | 353 | 2.6 | 7.0 | 0.00 | 0.00 | 0.00 | 75 | 1011.2 |
| 20260505033412 | 56 | 353 | 2.6 | 7.0 | 0.00 | 0.00 | 0.00 | 75 | 1011.1 |
| 20260505033308 | 56 | 353 | 2.6 | 7.0 | 0.00 | 0.00 | 0.00 | 74 | 1011.2 |
| 20260505033210 | 56 | 357 | 2.6 | 7.0 | 0.00 | 0.00 | 0.00 | 74 | 1011.2 |
| 20260505033110 | 56 | 358 | 2.6 | 5.2 | 0.00 | 0.00 | 0.00 | 74 | 1011.1 |
| 20260505033008 | 56 | 1 | 2.6 | 5.2 | 0.00 | 0.00 | 0.00 | 74 | 1011.1 |
| 20260505032911 | 56 | 3 | 1.7 | 5.2 | 0.00 | 0.00 | 0.00 | 74 | 1011.1 |
| 20260505032810 | 56 | 3 | 1.7 | 5.2 | 0.00 | 0.00 | 0.00 | 74 | 1011.1 |
| 20260505032708 | 56 | 3 | 1.7 | 5.2 | 0.00 | 0.00 | 0.00 | 74 | 1011.2 |
| 20260505032612 | 56 | 358 | 1.7 | 5.2 | 0.00 | 0.00 | 0.00 | 74 | 1011.1 |
| 20260505032512 | 56 | 351 | 0.9 | 5.2 | 0.00 | 0.00 | 0.00 | 74 | 1011.2 |
| 20260505032407 | 56 | 96 | 0.9 | 5.2 | 0.00 | 0.00 | 0.00 | 74 | 1011.1 |
| 20260505032311 | 56 | 169 | 0.9 | 3.5 | 0.00 | 0.00 | 0.00 | 75 | 1011.2 |
| 20260505032211 | 56 | 182 | 0.9 | 3.5 | 0.00 | 0.00 | 0.00 | 76 | 1011.2 |
| 20260505032108 | 57 | 190 | 0.9 | 3.5 | 0.00 | 0.00 | 0.00 | 77 | 1011.1 |
| 20260505032010 | 57 | 196 | 0.9 | 3.5 | 0.00 | 0.00 | 0.00 | 77 | 1011.1 |
| 20260505031912 | 57 | 197 | 0.9 | 3.5 | 0.00 | 0.00 | 0.00 | 77 | 1011.1 |
| 20260505031808 | 57 | 200 | 0.9 | 3.5 | 0.00 | 0.00 | 0.00 | 77 | 1011.1 |
| 20260505031710 | 57 | 204 | 0.9 | 3.5 | 0.00 | 0.00 | 0.00 | 77 | 1011.2 |
| 20260505031612 | 57 | 209 | 0.9 | 3.5 | 0.00 | 0.00 | 0.00 | 76 | 1011.1 |
| 20260505031507 | 57 | 219 | 0.9 | 3.5 | 0.00 | 0.00 | 0.00 | 75 | 1011.1 |
| 20260505031411 | 57 | 228 | 0.9 | 3.5 | 0.00 | 0.00 | 0.00 | 76 | 1011.2 |
| 20260505031311 | 57 | 238 | 0.9 | 2.6 | 0.00 | 0.00 | 0.00 | 76 | 1011.2 |
| 20260505031207 | 57 | 237 | 1.7 | 3.5 | 0.00 | 0.00 | 0.00 | 76 | 1011.2 |
| 20260505031111 | 57 | 236 | 1.7 | 3.5 | 0.00 | 0.00 | 0.00 | 77 | 1011.2 |
| 20260505031011 | 57 | 232 | 1.7 | 3.5 | 0.00 | 0.00 | 0.00 | 77 | 1011.3 |
| 20260505030909 | 57 | 230 | 2.6 | 3.5 | 0.00 | 0.00 | 0.00 | 77 | 1011.2 |
| 20260505030810 | 57 | 230 | 2.6 | 3.5 | 0.00 | 0.00 | 0.00 | 77 | 1011.2 |
| 20260505030710 | 57 | 231 | 2.6 | 3.5 | 0.00 | 0.00 | 0.00 | 77 | 1011.3 |
| 20260505030608 | 57 | 230 | 2.6 | 3.5 | 0.00 | 0.00 | 0.00 | 76 | 1011.3 |
| 20260505030510 | 57 | 232 | 2.6 | 3.5 | 0.00 | 0.00 | 0.00 | 76 | 1011.2 |
| 20260505030412 | 57 | 237 | 1.7 | 3.5 | 0.00 | 0.00 | 0.00 | 75 | 1011.1 |
| 20260505030310 | 57 | 243 | 1.7 | 3.5 | 0.00 | 0.00 | 0.00 | 75 | 1011.1 |
| 20260505030308 | 58 | 250 | 1.7 | 3.5 | 0.00 | 0.00 | 0.00 | 75 | 1011.2 |
| 20260505030210 | 58 | 250 | 1.7 | 3.5 | 0.00 | 0.00 | 0.00 | 75 | 1011.2 |
| 20260505030110 | 58 | 260 | 1.7 | 3.5 | 0.00 | 0.00 | 0.00 | 75 | 1011.2 |
| 20260505030007 | 58 | 273 | 1.7 | 3.5 | 0.00 | 0.00 | 0.00 | 75 | 1011.1 |
| 20260505025911 | 58 | 289 | 1.7 | 2.6 | 0.00 | 0.00 | 0.00 | 75 | 1011.1 |
| 20260505025810 | 58 | 294 | 1.7 | 2.6 | 0.00 | 0.00 | 0.00 | 75 | 1011.1 |
| 20260505025708 | 58 | 295 | 1.7 | 2.6 | 0.00 | 0.00 | 0.00 | 75 | 1011.1 |
| 20260505025610 | 58 | 297 | 1.7 | 2.6 | 0.00 | 0.00 | 0.00 | 75 | 1011.1 |
| 20260505025512 | 58 | 303 | 1.7 | 2.6 | 0.00 | 0.00 | 0.00 | 75 | 1011.1 |
| 20260505025407 | 58 | 309 | 1.7 | 2.6 | 0.00 | 0.00 | 0.00 | 75 | 1011.1 |
| 20260505025311 | 58 | 312 | 1.7 | 2.6 | 0.00 | 0.00 | 0.00 | 74 | 1011.1 |
| 20260505025210 | 58 | 315 | 1.7 | 2.6 | 0.00 | 0.00 | 0.00 | 74 | 1011.1 |
| 20260505025108 | 58 | 321 | 0.9 | 2.6 | 0.00 | 0.00 | 0.00 | 74 | 1011.2 |
| 20260505025010 | 58 | 326 | 0.9 | 1.7 | 0.00 | 0.00 | 0.00 | 73 | 1011.3 |
| 20260505024912 | 58 | 326 | 0.9 | 1.7 | 0.00 | 0.00 | 0.00 | 73 | 1011.3 |
| 20260505024808 | 58 | 331 | 0.9 | 1.7 | 0.00 | 0.00 | 0.00 | 72 | 1011.2 |
| 20260505024710 | 58 | 337 | 0.9 | 1.7 | 0.00 | 0.00 | 0.00 | 72 | 1011.2 |
| 20260505024612 | 59 | 338 | 0.9 | 2.6 | 0.00 | 0.00 | 0.00 | 72 | 1011.1 |
| 20260505024507 | 59 | 338 | 0.9 | 2.6 | 0.00 | 0.00 | 0.00 | 70 | 1011.2 |
| 20260505024410 | 59 | 335 | 0.9 | 2.6 | 0.00 | 0.00 | 0.00 | 70 | 1011.2 |
| 20260505024312 | 59 | 336 | 0.9 | 2.6 | 0.00 | 0.00 | 0.00 | 70 | 1011.2 |
| 20260505024207 | 59 | 336 | 0.9 | 2.6 | 0.00 | 0.00 | 0.00 | 70 | 1011.2 |
| 20260505024111 | 59 | 338 | 0.9 | 2.6 | 0.00 | 0.00 | 0.00 | 70 | 1011.2 |
| 20260505024011 | 58 | 347 | 0.9 | 3.5 | 0.00 | 0.00 | 0.00 | 70 | 1011.2 |
| 20260505023911 | 58 | 347 | 0.9 | 3.5 | 0.00 | 0.00 | 0.00 | 69 | 1011.2 |
| 20260505023908 | 58 | 345 | 0.9 | 3.5 | 0.00 | 0.00 | 0.00 | 69 | 1011.2 |
| 20260505023810 | 58 | 345 | 0.9 | 3.5 | 0.00 | 0.00 | 0.00 | 69 | 1011.2 |
| 20260505023712 | 58 | 345 | 0.9 | 3.5 | 0.00 | 0.00 | 0.00 | 69 | 1011.1 |
| 20260505023607 | 58 | 353 | 0.9 | 3.5 | 0.00 | 0.00 | 0.00 | 70 | 1011.3 |
| 20260505023511 | 58 | 7 | 0.9 | 3.5 | 0.00 | 0.00 | 0.00 | 70 | 1011.2 |
| 20260505023410 | 58 | 45 | 0.0 | 3.5 | 0.00 | 0.00 | 0.00 | 70 | 1011.2 |
| 20260505023307 | 58 | 86 | 0.0 | 3.5 | 0.00 | 0.00 | 0.00 | 70 | 1011.3 |
| 20260505023211 | 58 | 116 | 0.0 | 3.5 | 0.00 | 0.00 | 0.00 | 69 | 1011.3 |
| 20260505023111 | 58 | 128 | 0.0 | 3.5 | 0.00 | 0.00 | 0.00 | 70 | 1011.3 |
| 20260505023008 | 59 | 157 | 0.0 | 0.9 | 0.00 | 0.00 | 0.00 | 70 | 1011.3 |
| 20260505022910 | 59 | 159 | 0.0 | 0.9 | 0.00 | 0.00 | 0.00 | 70 | 1011.2 |
| 20260505022811 | 59 | 160 | 0.0 | 0.9 | 0.00 | 0.00 | 0.00 | 70 | 1011.2 |
| 20260505022708 | 59 | 160 | 0.0 | 1.7 | 0.00 | 0.00 | 0.00 | 69 | 1011.2 |
| 20260505022610 | 59 | 159 | 0.0 | 1.7 | 0.00 | 0.00 | 0.00 | 68 | 1011.2 |
| 20260505022510 | 59 | 155 | 0.0 | 1.7 | 0.00 | 0.00 | 0.00 | 68 | 1011.2 |
| 20260505022408 | 59 | 153 | 0.0 | 1.7 | 0.00 | 0.00 | 0.00 | 69 | 1011.2 |
| 20260505022311 | 59 | 152 | 0.0 | 1.7 | 0.00 | 0.00 | 0.00 | 68 | 1011.2 |
| 20260505022211 | 59 | 150 | 0.0 | 1.7 | 0.00 | 0.00 | 0.00 | 68 | 1011.2 |
| 20260505022107 | 59 | 150 | 0.0 | 1.7 | 0.00 | 0.00 | 0.00 | 67 | 1011.2 |
| 20260505022011 | 59 | 150 | 0.0 | 1.7 | 0.00 | 0.00 | 0.00 | 67 | 1011.2 |
| 20260505021911 | 59 | 149 | 0.0 | 1.7 | 0.00 | 0.00 | 0.00 | 67 | 1011.2 |
| 20260505021807 | 59 | 146 | 0.0 | 1.7 | 0.00 | 0.00 | 0.00 | 67 | 1011.2 |
| 20260505021711 | 59 | 136 | 0.0 | 1.7 | 0.00 | 0.00 | 0.00 | 67 | 1011.3 |
| 20260505021611 | 59 | 70 | 0.0 | 0.0 | 0.00 | 0.00 | 0.00 | 67 | 1011.3 |
| 20260505021507 | 59 | 9 | 0.0 | 0.0 | 0.00 | 0.00 | 0.00 | 67 | 1011.2 |
| 20260505021411 | 59 | 3 | 0.0 | 0.0 | 0.00 | 0.00 | 0.00 | 67 | 1011.2 |
| 20260505021310 | 59 | 2 | 0.0 | 0.0 | 0.00 | 0.00 | 0.00 | 67 | 1011.2 |
| 20260505021207 | 59 | 2 | 0.0 | 0.0 | 0.00 | 0.00 | 0.00 | 67 | 1011.2 |
| 20260505021111 | 59 | 4 | 0.0 | 0.9 | 0.00 | 0.00 | 0.00 | 66 | 1011.2 |
| 20260505021010 | 59 | 8 | 0.0 | 1.7 | 0.00 | 0.00 | 0.00 | 66 | 1011.2 |
| 20260505020908 | 59 | 4 | 0.0 | 1.7 | 0.00 | 0.00 | 0.00 | 66 | 1011.2 |
| 20260505020811 | 59 | 352 | 0.0 | 1.7 | 0.00 | 0.00 | 0.00 | 65 | 1011.2 |
| 20260505020711 | 59 | 349 | 0.0 | 1.7 | 0.00 | 0.00 | 0.00 | 65 | 1011.3 |
| 20260505020607 | 59 | 354 | 0.9 | 1.7 | 0.00 | 0.00 | 0.00 | 65 | 1011.3 |
| 20260505020511 | 59 | 346 | 0.9 | 2.6 | 0.00 | 0.00 | 0.00 | 65 | 1011.3 |
| 20260505020411 | 59 | 340 | 0.9 | 2.6 | 0.00 | 0.00 | 0.00 | 65 | 1011.3 |
| 20260505020308 | 59 | 332 | 0.9 | 2.6 | 0.00 | 0.00 | 0.00 | 65 | 1011.4 |
| 20260505020210 | 59 | 325 | 0.9 | 2.6 | 0.00 | 0.00 | 0.00 | 65 | 1011.3 |
| 20260505020110 | 59 | 320 | 0.9 | 2.6 | 0.00 | 0.00 | 0.00 | 65 | 1011.3 |
| 20260505020008 | 59 | 308 | 0.9 | 2.6 | 0.00 | 0.00 | 0.00 | 65 | 1011.4 |
| 20260505015911 | 59 | 300 | 0.9 | 2.6 | 0.00 | 0.00 | 0.00 | 64 | 1011.5 |
| 20260505015811 | 59 | 296 | 0.9 | 2.6 | 0.00 | 0.00 | 0.00 | 64 | 1011.5 |
| 20260505015708 | 59 | 286 | 0.9 | 2.6 | 0.00 | 0.00 | 0.00 | 65 | 1011.5 |
| 20260505015610 | 59 | 273 | 0.9 | 2.6 | 0.00 | 0.00 | 0.00 | 65 | 1011.6 |
| 20260505015510 | 59 | 264 | 0.9 | 1.7 | 0.00 | 0.00 | 0.00 | 66 | 1011.6 |
| 20260505015408 | 59 | 267 | 0.9 | 1.7 | 0.00 | 0.00 | 0.00 | 67 | 1011.6 |
| 20260505015311 | 59 | 270 | 0.9 | 0.9 | 0.00 | 0.00 | 0.00 | 67 | 1011.6 |
| 20260505015211 | 59 | 271 | 0.9 | 0.9 | 0.00 | 0.00 | 0.00 | 68 | 1011.5 |
| 20260505015107 | 59 | 277 | 0.9 | 0.9 | 0.00 | 0.00 | 0.00 | 68 | 1011.5 |
| 20260505015011 | 59 | 280 | 0.0 | 0.9 | 0.00 | 0.00 | 0.00 | 68 | 1011.5 |
| 20260505014911 | 59 | 286 | 0.0 | 0.9 | 0.00 | 0.00 | 0.00 | 68 | 1011.6 |
| 20260505014807 | 59 | 298 | 0.0 | 0.9 | 0.00 | 0.00 | 0.00 | 68 | 1011.6 |
| 20260505014711 | 59 | 308 | 0.9 | 0.9 | 0.00 | 0.00 | 0.00 | 68 | 1011.7 |
| 20260505014611 | 59 | 316 | 0.9 | 0.9 | 0.00 | 0.00 | 0.00 | 67 | 1011.6 |
| 20260505014507 | 59 | 327 | 0.9 | 0.9 | 0.00 | 0.00 | 0.00 | 68 | 1011.6 |
| 20260505014411 | 59 | 337 | 0.9 | 0.9 | 0.00 | 0.00 | 0.00 | 68 | 1011.6 |
| 20260505014311 | 59 | 344 | 0.9 | 1.7 | 0.00 | 0.00 | 0.00 | 68 | 1011.6 |
| 20260505014207 | 59 | 349 | 0.9 | 1.7 | 0.00 | 0.00 | 0.00 | 67 | 1011.6 |
| 20260505014111 | 59 | 350 | 0.9 | 1.7 | 0.00 | 0.00 | 0.00 | 67 | 1011.6 |
| 20260505014011 | 59 | 349 | 0.9 | 1.7 | 0.00 | 0.00 | 0.00 | 67 | 1011.7 |
| 20260505013908 | 59 | 347 | 0.9 | 1.7 | 0.00 | 0.00 | 0.00 | 66 | 1011.7 |
| 20260505013812 | 59 | 344 | 0.9 | 1.7 | 0.00 | 0.00 | 0.00 | 66 | 1011.7 |
| 20260505013712 | 59 | 343 | 0.9 | 1.7 | 0.00 | 0.00 | 0.00 | 66 | 1011.8 |
| 20260505013607 | 59 | 340 | 0.9 | 1.7 | 0.00 | 0.00 | 0.00 | 66 | 1011.8 |
| 20260505013511 | 59 | 338 | 0.9 | 1.7 | 0.00 | 0.00 | 0.00 | 65 | 1011.6 |
| 20260505013411 | 60 | 335 | 0.9 | 1.7 | 0.00 | 0.00 | 0.00 | 66 | 1011.6 |
| 20260505013308 | 60 | 331 | 0.0 | 1.7 | 0.00 | 0.00 | 0.00 | 66 | 1011.6 |
| 20260505013210 | 60 | 325 | 0.0 | 1.7 | 0.00 | 0.00 | 0.00 | 66 | 1011.6 |
| 20260505013110 | 60 | 321 | 0.0 | 1.7 | 0.00 | 0.00 | 0.00 | 65 | 1011.7 |
| 20260505013008 | 60 | 317 | 0.0 | 1.7 | 0.00 | 0.00 | 0.00 | 65 | 1011.7 |
| 20260505012911 | 60 | 310 | 0.0 | 0.9 | 0.00 | 0.00 | 0.00 | 64 | 1011.7 |
| 20260505012811 | 60 | 310 | 0.0 | 0.0 | 0.00 | 0.00 | 0.00 | 64 | 1011.7 |
| 20260505012707 | 60 | 309 | 0.0 | 0.0 | 0.00 | 0.00 | 0.00 | 64 | 1011.7 |
| 20260505012611 | 60 | 309 | 0.0 | 0.0 | 0.00 | 0.00 | 0.00 | 64 | 1011.7 |
| 20260505012511 | 60 | 309 | 0.0 | 0.0 | 0.00 | 0.00 | 0.00 | 64 | 1011.8 |
| 20260505012407 | 60 | 309 | 0.0 | 0.0 | 0.00 | 0.00 | 0.00 | 65 | 1011.7 |
| 20260505012310 | 60 | 309 | 0.0 | 0.0 | 0.00 | 0.00 | 0.00 | 65 | 1011.7 |
| 20260505012210 | 60 | 309 | 0.0 | 0.0 | 0.00 | 0.00 | 0.00 | 65 | 1011.7 |
| 20260505012108 | 60 | 309 | 0.0 | 0.0 | 0.00 | 0.00 | 0.00 | 65 | 1011.8 |
| 20260505012010 | 60 | 309 | 0.0 | 0.0 | 0.00 | 0.00 | 0.00 | 65 | 1011.9 |
| 20260505011910 | 60 | 309 | 0.0 | 0.9 | 0.00 | 0.00 | 0.00 | 65 | 1011.7 |
| 20260505011808 | 60 | 309 | 0.0 | 0.9 | 0.00 | 0.00 | 0.00 | 65 | 1011.8 |
| 20260505011711 | 60 | 309 | 0.0 | 0.9 | 0.00 | 0.00 | 0.00 | 65 | 1011.9 |
| 20260505011611 | 60 | 309 | 0.0 | 0.9 | 0.00 | 0.00 | 0.00 | 65 | 1011.8 |
| 20260505011507 | 60 | 309 | 0.0 | 0.9 | 0.00 | 0.00 | 0.00 | 65 | 1011.8 |
| 20260505011411 | 60 | 309 | 0.0 | 0.9 | 0.00 | 0.00 | 0.00 | 66 | 1011.8 |
| 20260505011310 | 60 | 309 | 0.0 | 0.9 | 0.00 | 0.00 | 0.00 | 66 | 1011.9 |
| 20260505011207 | 60 | 309 | 0.0 | 0.9 | 0.00 | 0.00 | 0.00 | 66 | 1012.0 |
| 20260505011111 | 60 | 309 | 0.0 | 0.9 | 0.00 | 0.00 | 0.00 | 66 | 1011.9 |
| 20260505011011 | 60 | 309 | 0.9 | 0.9 | 0.00 | 0.00 | 0.00 | 66 | 1012.0 |
| 20260505010908 | 60 | 309 | 0.9 | 1.7 | 0.00 | 0.00 | 0.00 | 66 | 1012.1 |
| 20260505010812 | 60 | 308 | 0.9 | 1.7 | 0.00 | 0.00 | 0.00 | 66 | 1012.1 |
| 20260505010712 | 60 | 306 | 0.9 | 1.7 | 0.00 | 0.00 | 0.00 | 66 | 1012.0 |
| 20260505010608 | 60 | 304 | 0.9 | 1.7 | 0.00 | 0.00 | 0.00 | 66 | 1012.0 |
| 20260505010510 | 60 | 302 | 0.9 | 1.7 | 0.00 | 0.00 | 0.00 | 67 | 1012.1 |
| 20260505010410 | 60 | 300 | 0.9 | 1.7 | 0.00 | 0.00 | 0.00 | 67 | 1012.1 |
| 20260505010307 | 60 | 298 | 0.9 | 1.7 | 0.00 | 0.00 | 0.00 | 66 | 1012.0 |
| 20260505010211 | 60 | 293 | 0.9 | 1.7 | 0.00 | 0.00 | 0.00 | 66 | 1012.1 |
| 20260505010111 | 60 | 289 | 0.0 | 1.7 | 0.00 | 0.00 | 0.00 | 66 | 1012.1 |
| 20260505010007 | 60 | 284 | 0.0 | 1.7 | 0.00 | 0.00 | 0.00 | 67 | 1012.2 |
| 20260505005911 | 60 | 277 | 0.0 | 1.7 | 0.00 | 0.00 | 0.00 | 67 | 1012.2 |
| 20260505005811 | 60 | 270 | 0.0 | 0.9 | 0.00 | 0.00 | 0.00 | 67 | 1012.2 |
| 20260505005707 | 60 | 264 | 0.0 | 0.9 | 0.00 | 0.00 | 0.00 | 67 | 1012.2 |
| 20260505005611 | 60 | 255 | 0.0 | 0.9 | 0.00 | 0.00 | 0.00 | 67 | 1012.2 |
| 20260505005511 | 60 | 248 | 0.0 | 0.9 | 0.00 | 0.00 | 0.00 | 67 | 1012.2 |
| 20260505005407 | 60 | 241 | 0.0 | 0.9 | 0.00 | 0.00 | 0.00 | 67 | 1012.2 |
| 20260505005311 | 60 | 234 | 0.0 | 1.7 | 0.00 | 0.00 | 0.00 | 67 | 1012.4 |
| 20260505005211 | 60 | 236 | 0.0 | 1.7 | 0.00 | 0.00 | 0.00 | 67 | 1012.3 |
| 20260505005107 | 60 | 236 | 0.0 | 1.7 | 0.00 | 0.00 | 0.00 | 67 | 1012.4 |
| 20260505005011 | 59 | 236 | 0.0 | 1.7 | 0.00 | 0.00 | 0.00 | 67 | 1012.4 |
| 20260505004911 | 59 | 235 | 0.9 | 1.7 | 0.00 | 0.00 | 0.00 | 67 | 1012.4 |
| 20260505004807 | 59 | 235 | 0.9 | 1.7 | 0.00 | 0.00 | 0.00 | 67 | 1012.5 |
| 20260505004711 | 60 | 235 | 0.9 | 1.7 | 0.00 | 0.00 | 0.00 | 67 | 1012.4 |
| 20260505004611 | 59 | 235 | 0.9 | 1.7 | 0.00 | 0.00 | 0.00 | 67 | 1012.5 |
| 20260505004509 | 60 | 234 | 0.9 | 1.7 | 0.00 | 0.00 | 0.00 | 67 | 1012.5 |
| 20260505004412 | 60 | 235 | 0.9 | 1.7 | 0.00 | 0.00 | 0.00 | 67 | 1012.5 |
| 20260505004311 | 60 | 237 | 0.9 | 1.7 | 0.00 | 0.00 | 0.00 | 67 | 1012.5 |
| 20260505004209 | 60 | 235 | 0.0 | 1.7 | 0.00 | 0.00 | 0.00 | 67 | 1012.5 |
| 20260505004111 | 60 | 235 | 0.0 | 1.7 | 0.00 | 0.00 | 0.00 | 67 | 1012.6 |
| 20260505004012 | 60 | 235 | 0.0 | 1.7 | 0.00 | 0.00 | 0.00 | 67 | 1012.6 |
| 20260505003907 | 60 | 235 | 0.0 | 0.9 | 0.00 | 0.00 | 0.00 | 67 | 1012.6 |
| 20260505003810 | 60 | 235 | 0.0 | 0.9 | 0.00 | 0.00 | 0.00 | 67 | 1012.6 |
| 20260505003710 | 60 | 235 | 0.0 | 0.9 | 0.00 | 0.00 | 0.00 | 67 | 1012.6 |
| 20260505003608 | 60 | 235 | 0.0 | 0.9 | 0.00 | 0.00 | 0.00 | 67 | 1012.6 |
| 20260505003510 | 60 | 235 | 0.0 | 1.7 | 0.00 | 0.00 | 0.00 | 67 | 1012.7 |
| 20260505003412 | 60 | 235 | 0.0 | 1.7 | 0.00 | 0.00 | 0.00 | 67 | 1012.6 |
| 20260505003307 | 60 | 235 | 0.9 | 1.7 | 0.00 | 0.00 | 0.00 | 67 | 1012.6 |
| 20260505003211 | 60 | 235 | 0.9 | 1.7 | 0.00 | 0.00 | 0.00 | 67 | 1012.6 |
| 20260505003110 | 60 | 237 | 0.9 | 1.7 | 0.00 | 0.00 | 0.00 | 67 | 1012.7 |
| 20260505003008 | 60 | 238 | 0.9 | 1.7 | 0.00 | 0.00 | 0.00 | 66 | 1012.7 |
| 20260505002911 | 60 | 239 | 0.9 | 1.7 | 0.00 | 0.00 | 0.00 | 66 | 1012.7 |
| 20260505002812 | 60 | 242 | 0.9 | 1.7 | 0.00 | 0.00 | 0.00 | 66 | 1012.7 |